GFSCGP_925_thetae_000.txt.gz
Theta_e
316 315 315 315 316 316 316 316 316 316 316 315 315 315 314 313 313 313 313 313 312 310 310 312 309 309 307 304 300 298 297 296 296 295 294 293 293 292 292 291 290 290 290 289
316 316 315 315 314 315 315 314 315 315 315 314 314 315 314 313 313 314 313 313 312 310 310 306 307 308 306 303 300 298 297 296 295 295 293 293 292 292 291 290 290 289 289 288
315 315 315 315 315 316 315 314 314 314 314 312 312 313 313 313 313 312 312 312 309 309 309 305 303 305 304 301 299 298 296 296 295 294 293 293 293 292 291 290 290 289 289 288
314 314 315 314 314 313 314 314 315 315 315 316 314 316 313 313 312 311 311 311 308 307 309 305 302 302 301 300 298 297 296 296 295 294 293 293 292 290 291 291 290 289 289 288
313 313 313 314 314 314 315 312 313 315 315 315 315 314 313 312 312 311 310 312 310 309 306 304 302 302 301 300 298 297 296 295 294 294 293 293 291 291 291 290 290 289 288 287
311 309 311 313 310 311 310 312 312 312 311 314 312 313 313 312 312 312 310 310 309 307 305 303 302 302 301 300 298 297 296 295 294 293 292 292 291 291 291 290 289 288 287 287
312 310 310 309 312 309 310 314 315 316 315 317 312 312 314 315 311 310 310 309 308 307 304 302 300 299 299 298 297 297 296 295 294 293 292 291 291 291 291 290 289 287 287 286
313 313 311 308 311 314 310 313 317 316 314 314 310 314 314 313 312 310 309 308 308 306 304 302 300 299 299 298 297 296 295 294 294 292 292 291 290 290 290 290 289 288 287 286
312 312 308 308 310 311 312 312 314 315 308 314 314 312 312 313 312 310 308 307 307 306 305 304 301 299 299 297 296 295 295 294 293 292 291 290 290 290 289 289 288 288 286 285
312 313 310 306 306 307 309 309 313 314 312 311 312 312 314 314 314 310 310 308 307 305 305 303 302 300 299 298 296 295 294 294 293 292 290 290 289 289 289 288 287 286 285 285
311 312 311 305 306 309 306 309 309 310 316 313 313 314 312 312 313 311 309 310 310 307 304 302 301 301 300 298 296 295 294 293 293 291 290 289 288 288 287 287 286 286 285 284
312 314 315 311 309 306 308 309 310 312 311 310 313 314 312 310 308 307 308 309 308 307 306 303 301 299 299 297 296 294 293 293 292 291 289 288 287 287 286 285 285 284 283 283
311 312 316 312 311 306 307 308 309 310 310 312 313 312 311 311 310 307 307 307 307 306 306 305 302 299 297 297 295 294 293 292 291 290 288 287 285 284 284 284 283 282 282 281
313 314 315 315 313 312 310 308 307 309 311 311 311 310 310 310 310 310 310 309 305 305 305 304 303 299 298 297 295 294 293 292 291 289 287 285 283 282 282 282 281 281 280 280
314 315 312 313 313 312 312 312 311 311 310 310 310 310 310 310 310 310 309 307 307 306 306 304 302 301 299 296 295 294 293 291 290 287 285 283 281 281 281 280 280 279 279 278
313 316 312 313 311 311 312 311 311 311 311 311 311 310 309 308 308 309 308 308 308 308 308 306 302 299 297 295 295 293 292 290 289 286 283 281 280 280 280 279 278 278 277 277
311 312 314 316 313 313 315 313 313 313 313 312 312 312 311 310 310 310 310 310 310 309 308 304 301 299 296 296 295 292 291 289 286 284 281 279 278 279 278 278 277 276 276 275
315 314 314 317 316 316 313 312 312 313 313 312 312 312 313 312 311 311 310 309 309 309 308 305 299 299 299 301 296 293 290 287 284 281 280 278 277 277 276 275 275 274 274 274
314 315 316 317 317 315 313 313 312 313 313 312 312 312 312 311 310 311 310 310 309 308 308 306 301 301 303 299 294 290 287 284 281 280 278 276 276 275 274 273 274 274 274 273
312 314 316 317 319 319 314 312 310 311 313 311 311 311 311 311 312 311 310 308 304 303 302 300 300 301 298 293 290 286 283 281 280 279 277 276 275 275 274 274 273 274 273 273
312 313 315 317 318 316 313 311 308 313 314 310 310 310 310 310 309 308 305 302 301 300 300 299 297 294 293 290 287 284 281 280 280 278 276 275 274 274 274 273 273 272 272 272
312 312 313 313 314 314 308 309 312 309 309 307 306 307 307 308 308 307 304 301 299 298 295 294 292 290 290 288 285 282 280 280 278 276 274 273 273 272 272 272 271 271 271 270
303 300 299 301 305 304 304 300 298 304 301 301 302 302 302 303 304 304 303 302 300 297 294 291 287 285 286 285 284 282 281 278 276 273 272 270 271 271 271 270 270 269 269 270
293 295 297 296 302 296 293 296 299 297 295 295 295 296 298 300 301 300 300 300 299 292 292 285 282 281 280 282 282 283 279 276 273 271 269 268 268 267 268 269 269 269 269 270
290 290 290 290 291 293 294 295 294 293 292 292 293 294 296 296 297 299 300 301 300 296 287 284 284 285 285 281 280 281 277 274 271 270 268 268 267 267 267 268 269 270 270 271
289 290 290 290 291 291 291 291 291 287 286 287 290 290 290 292 293 295 295 295 295 296 293 285 284 284 284 280 279 279 276 273 271 270 268 267 267 267 268 268 269 270 270 271

GFSCGP_925_thetae_003.txt.gz
Theta_e
312 311 312 312 312 311 312 311 311 313 313 314 315 314 314 312 310 309 309 310 311 309 308 309 309 308 306 304 302 300 299 298 298 297 297 296 295 294 293 293 292 292 291 291
314 314 312 311 312 312 312 312 311 312 310 311 312 313 312 310 312 312 311 311 311 308 306 305 306 305 304 302 300 299 298 298 297 297 296 295 295 293 293 292 291 291 290 290
313 313 313 313 313 313 312 312 312 312 312 310 310 311 311 310 310 311 311 310 310 307 305 304 300 302 302 299 298 298 298 298 297 296 295 294 294 293 291 291 290 290 290 290
312 312 312 312 312 312 313 311 312 312 313 314 311 314 311 310 310 309 310 311 307 304 304 302 301 299 300 298 298 298 298 297 296 296 294 294 292 291 291 291 290 290 289 289
312 312 311 312 313 311 313 312 312 313 312 312 313 312 313 309 309 310 311 311 309 303 304 302 302 303 300 298 297 297 297 296 295 295 294 293 292 291 292 291 290 289 289 288
308 308 311 311 310 310 310 311 311 310 308 313 310 311 311 309 310 310 310 310 309 304 303 303 302 301 299 298 297 296 296 295 295 295 294 293 292 292 291 290 290 289 289 288
308 308 308 309 311 308 310 310 311 311 311 315 309 309 313 311 309 309 310 310 309 305 302 300 298 298 297 296 296 295 295 294 294 294 294 293 292 292 292 291 290 289 288 288
310 310 308 307 310 310 308 311 312 310 312 313 306 312 313 310 310 308 308 309 307 304 302 300 299 298 297 296 296 296 295 294 294 294 293 293 292 292 292 291 290 290 289 289
309 311 309 307 308 310 310 311 311 312 299 310 313 311 310 311 310 308 308 305 306 304 301 300 297 297 296 296 296 296 295 295 294 293 293 292 292 291 291 290 290 290 290 289
311 311 309 307 307 308 309 308 312 311 312 312 313 310 313 312 313 311 308 305 305 304 302 301 298 296 297 297 296 296 295 294 293 293 293 292 291 291 291 290 290 289 289 288
308 311 311 306 307 309 308 309 309 310 312 314 313 314 312 311 311 310 307 305 303 304 302 301 300 299 298 297 296 295 295 294 294 293 292 291 291 290 290 290 289 289 289 287
310 312 314 309 305 305 307 309 309 312 311 309 313 314 311 307 308 305 308 307 306 306 304 300 300 298 297 296 296 295 294 294 294 292 291 291 290 289 289 289 288 289 288 286
313 314 316 314 310 305 307 306 307 309 309 313 314 313 312 311 309 304 305 303 303 305 304 302 299 298 298 297 295 295 294 294 293 292 291 289 289 289 288 287 287 287 287 285
315 314 315 318 315 311 312 309 307 310 311 313 312 312 311 311 310 310 309 309 309 305 306 304 302 299 297 297 296 295 294 294 293 291 290 288 288 288 287 286 286 286 285 284
314 317 315 315 314 313 313 313 313 312 312 313 313 312 310 310 310 309 309 309 306 303 303 303 303 301 298 297 296 295 294 292 292 290 288 288 286 286 285 284 285 285 284 282
313 317 317 318 315 314 315 315 314 315 314 313 312 311 311 311 311 311 311 310 309 307 306 304 301 300 298 296 297 295 293 292 291 289 287 286 285 284 283 283 284 283 282 281
314 315 317 319 317 316 318 316 316 314 313 312 313 312 310 310 310 311 311 310 310 308 307 305 303 300 298 297 298 294 294 291 290 288 286 285 282 281 280 282 282 280 279 279
312 311 313 318 316 318 314 311 312 314 312 312 312 312 312 312 312 311 311 311 310 310 309 303 300 299 299 303 300 299 294 290 289 287 285 282 281 279 279 280 279 278 277 277
312 314 316 317 317 315 313 310 311 312 312 311 311 312 311 311 310 310 310 307 308 307 308 308 302 302 302 302 302 295 290 289 287 285 283 281 280 278 277 277 276 276 275 275
310 312 313 313 315 314 310 310 309 310 314 301 302 303 304 305 311 309 306 303 303 301 300 298 299 300 300 300 297 291 288 286 286 285 283 280 279 278 276 276 275 275 275 274
305 309 313 314 315 312 305 304 307 315 303 299 298 299 298 302 302 302 301 300 299 298 296 298 296 293 295 294 292 288 286 285 286 284 282 279 278 277 276 275 274 273 273 273
299 301 300 304 307 309 301 302 297 295 298 297 295 295 295 296 297 298 298 297 298 298 298 298 293 292 292 291 290 286 284 286 285 282 279 277 276 275 274 273 272 272 272 271
294 296 295 296 297 293 295 293 292 297 294 293 293 293 294 295 296 296 296 297 297 298 297 299 294 289 291 290 289 286 286 285 282 279 276 275 274 274 273 272 271 270 270 270
288 289 290 290 290 290 290 291 293 291 291 290 289 288 290 293 291 291 291 293 293 293 294 296 296 295 294 293 288 288 286 284 280 276 274 272 272 271 271 270 270 270 270 270
289 290 287 288 288 288 289 290 288 288 285 284 284 286 285 284 284 285 286 287 289 291 292 294 293 292 293 294 292 290 285 282 277 275 272 271 270 270 269 270 270 270 271 272
289 289 289 288 288 287 288 286 286 282 281 280 281 280 280 280 280 281 282 282 283 284 286 289 291 290 291 292 290 288 284 280 276 274 271 271 270 269 269 269 270 271 271 273

GFSCGP_925_thetae_006.txt.gz
Theta_e
311 310 311 312 310 312 309 309 310 309 310 313 312 313 313 313 310 307 308 310 310 310 310 310 310 310 307 305 304 303 301 300 300 299 299 298 298 297 297 296 295 294 292 292
312 312 311 310 309 311 311 311 311 311 310 309 310 311 311 310 312 311 311 311 310 310 310 304 306 307 305 304 302 301 300 300 300 299 297 297 296 296 296 295 294 293 292 292
312 311 311 310 310 312 311 312 312 312 310 308 308 311 309 309 309 310 308 309 311 311 312 306 302 304 303 301 301 300 299 299 299 298 297 296 295 294 294 293 293 292 291 291
310 310 311 311 312 311 313 310 311 310 310 312 309 314 310 309 309 309 309 309 309 309 307 306 301 299 300 300 299 299 298 298 298 298 297 295 295 294 292 292 292 292 291 290
309 311 311 311 312 310 313 310 309 310 310 310 311 311 312 309 309 309 310 308 309 309 303 303 300 301 300 299 298 298 298 298 297 297 296 295 294 294 293 292 292 291 290 289
307 307 308 309 309 307 309 311 309 307 307 312 310 310 311 308 309 309 309 309 308 309 304 302 301 301 298 297 297 297 297 297 296 296 295 295 294 294 292 292 291 290 290 289
306 306 306 308 310 308 310 310 311 310 309 314 308 308 313 310 310 308 309 309 308 308 302 301 299 298 295 295 296 296 296 295 296 296 295 295 294 293 293 292 291 289 289 289
308 311 307 306 308 308 308 309 314 311 312 314 305 310 311 308 308 307 306 306 306 304 302 301 299 298 297 295 295 295 295 295 295 295 295 294 294 293 292 292 291 290 289 289
308 310 307 307 308 308 308 310 309 312 296 306 312 310 310 309 309 308 306 305 305 303 302 301 298 297 296 295 295 295 295 295 295 294 293 293 293 292 291 292 291 291 290 289
308 311 309 306 306 307 308 308 311 310 315 312 311 311 313 311 310 306 306 307 305 302 303 300 298 296 297 297 296 296 296 295 294 294 293 293 293 293 291 291 291 290 290 289
309 311 312 306 306 309 307 309 308 310 314 316 316 315 308 308 308 307 307 307 302 302 303 301 299 298 298 297 297 296 295 295 295 295 294 293 292 292 291 291 290 290 290 290
311 314 318 317 309 304 305 309 311 313 314 310 313 314 312 312 310 310 308 308 305 302 301 300 300 298 297 296 296 296 295 295 296 295 293 293 292 291 291 290 290 290 289 289
316 318 319 318 315 310 305 307 308 309 310 314 317 317 312 311 310 311 308 308 304 302 300 301 300 300 300 298 296 295 295 295 295 294 293 292 291 290 290 289 290 289 288 288
315 317 318 317 314 313 311 309 306 308 311 312 311 311 310 310 311 311 310 309 304 306 304 303 303 302 300 300 298 296 295 295 294 294 293 291 290 290 289 289 288 288 288 288
315 318 317 317 317 316 316 316 315 313 313 314 312 312 311 311 311 311 311 311 308 304 304 306 303 303 302 298 298 297 296 295 295 293 291 290 290 289 288 287 287 287 287 287
309 316 316 317 315 314 316 315 315 314 313 314 314 314 312 312 311 311 311 311 311 309 308 307 303 301 299 299 300 298 297 295 294 291 290 290 289 288 287 286 285 285 285 284
307 310 313 316 312 311 314 315 315 314 314 314 315 313 310 309 309 311 310 305 303 303 302 301 300 300 299 300 300 298 298 297 293 291 290 289 288 286 285 284 283 283 283 283
307 307 309 311 310 312 311 312 313 314 314 313 309 303 300 299 299 302 301 301 300 299 298 299 298 299 299 299 300 300 298 295 291 290 288 287 286 284 282 282 282 281 281 281
300 305 307 309 308 309 311 307 306 308 309 298 299 296 296 295 294 302 295 295 295 296 297 297 298 298 296 295 294 296 295 292 289 288 288 286 285 283 281 280 280 280 279 278
295 299 300 301 302 307 300 297 295 300 309 294 296 295 295 294 293 293 293 294 295 296 297 297 297 297 296 295 291 290 289 288 287 288 287 285 283 282 280 280 279 278 278 277
285 287 293 296 298 301 294 296 295 302 295 294 294 292 292 291 292 292 292 293 294 293 293 294 294 294 295 293 293 290 288 286 287 287 286 284 283 281 280 279 278 277 276 275
289 291 291 292 291 295 291 291 290 290 293 295 293 291 291 290 290 291 292 291 289 289 290 292 292 292 293 294 292 290 288 290 287 287 285 282 281 280 279 278 276 275 275 274
287 289 287 291 291 291 291 290 290 294 291 290 289 288 286 287 288 287 286 285 286 286 286 288 290 290 291 293 292 288 290 290 286 284 281 279 278 277 277 275 274 273 273 274
287 288 287 287 288 288 288 288 289 289 288 286 286 283 284 284 283 283 283 283 282 283 284 283 284 285 287 289 290 291 290 289 286 282 279 278 276 275 275 274 273 273 273 273
286 288 287 288 289 288 288 287 286 286 284 283 282 282 282 280 281 281 280 279 280 279 279 279 279 279 279 281 286 290 291 288 282 280 278 276 275 274 273 274 273 274 273 274
288 288 288 288 288 288 288 288 285 283 282 281 280 280 279 279 279 278 278 278 277 276 276 275 275 275 276 278 279 280 284 286 282 279 276 275 274 273 273 273 272 274 274 275

GFSCGP_925_thetae_009.txt.gz
Theta_e
310 309 310 310 309 310 308 307 308 308 309 310 310 311 311 311 310 311 307 309 310 309 310 310 310 309 309 307 305 304 302 301 300 299 299 299 299 298 298 298 298 297 295 294
311 310 310 309 308 309 309 310 310 311 310 307 309 310 309 308 309 310 311 310 310 309 309 308 306 307 307 307 304 302 302 300 299 299 299 298 297 297 298 298 297 297 294 293
311 310 310 309 309 310 309 310 311 311 309 307 307 311 310 307 307 308 309 309 309 309 309 309 302 303 306 304 304 302 301 300 299 299 298 298 296 296 296 296 297 296 294 293
309 309 310 310 309 309 311 308 309 310 310 312 308 312 310 309 309 308 308 308 307 307 307 306 304 300 304 305 303 301 300 299 299 298 298 297 297 295 295 295 296 295 294 292
307 310 310 310 311 308 311 309 308 308 308 308 309 309 311 308 309 308 307 307 307 307 306 306 302 302 304 303 302 301 299 298 298 298 298 297 296 296 296 295 295 295 294 293
307 305 307 308 308 307 308 310 308 305 307 311 309 310 311 308 309 309 308 307 306 305 306 302 301 302 300 300 299 298 297 297 297 297 297 297 296 296 295 293 293 293 293 292
305 306 306 307 309 307 309 308 309 309 309 312 307 308 313 310 310 306 309 305 305 303 302 304 300 299 296 295 296 296 296 296 296 296 296 296 296 296 295 293 292 291 291 291
307 315 306 305 307 307 307 308 311 309 312 315 304 309 314 309 307 306 306 305 303 302 303 300 300 298 296 295 295 295 295 295 296 296 295 296 296 295 294 293 292 292 291 290
307 309 306 305 306 307 307 308 308 311 300 307 311 309 310 307 309 308 305 303 304 305 303 300 299 297 297 295 294 295 295 295 295 295 295 295 294 294 294 293 293 292 292 291
309 310 308 305 306 306 307 307 310 308 312 313 311 311 312 310 311 309 307 306 305 304 301 300 298 296 297 297 297 295 296 296 296 295 295 294 294 295 294 293 293 292 292 291
310 313 313 310 308 313 306 308 307 308 312 315 316 315 313 311 307 306 306 306 305 304 303 301 299 299 298 298 297 297 297 296 296 296 294 294 294 294 293 293 292 292 292 291
315 315 318 316 308 307 306 309 309 311 313 311 313 315 313 313 311 308 309 310 306 303 303 302 300 300 300 298 298 298 298 296 296 296 294 295 293 292 291 292 292 292 291 291
314 317 320 317 311 310 313 313 313 313 311 313 314 314 312 312 311 311 308 305 304 304 303 303 300 300 300 301 301 298 296 297 296 294 294 293 292 292 292 291 291 290 290 290
313 316 319 320 317 313 315 311 311 312 316 314 313 311 311 311 311 311 310 307 306 302 300 299 299 298 299 300 299 298 298 297 297 295 293 292 291 292 292 290 290 289 289 289
312 315 314 314 314 315 316 315 315 316 313 312 312 314 313 312 310 307 306 303 301 299 298 297 298 297 297 298 299 298 298 297 296 295 293 292 292 291 290 290 289 288 288 287
306 308 308 310 308 308 311 313 312 311 309 309 310 311 306 298 296 298 296 295 295 295 295 296 296 296 296 296 296 296 296 295 296 294 293 293 291 290 290 289 287 287 286 285
303 305 305 306 304 303 305 305 305 306 309 307 308 298 296 295 294 296 294 293 293 294 295 296 296 296 295 295 295 295 293 293 293 292 293 292 291 290 288 288 286 285 284 283
301 300 300 302 299 298 299 301 305 304 297 297 297 296 294 293 292 293 295 291 292 293 296 296 295 293 294 294 293 293 291 291 291 291 291 291 290 288 287 286 285 284 283 283
299 300 298 292 290 297 298 297 295 296 296 295 294 293 292 291 290 291 290 291 291 292 294 292 291 292 292 292 292 292 291 290 289 289 288 289 288 287 285 284 283 283 282 281
293 297 298 285 294 295 297 291 294 293 299 293 293 293 291 290 289 288 289 290 290 292 289 288 288 289 290 290 291 291 291 290 289 287 289 288 287 286 284 283 282 282 281 281
282 280 284 280 285 288 289 289 290 288 289 288 292 291 290 291 290 289 289 289 288 286 286 285 285 286 287 288 288 290 290 290 290 290 286 287 286 285 283 282 281 281 280 279
286 280 280 277 280 288 288 288 288 287 289 290 292 290 289 289 287 287 287 285 284 283 283 283 284 284 283 282 285 286 287 289 289 289 288 283 283 283 282 281 280 279 278 277
284 286 282 286 286 289 288 288 289 289 290 289 289 288 288 285 285 285 283 282 282 282 281 281 281 279 279 280 280 280 280 282 287 288 286 285 281 281 280 279 277 276 276 276
287 288 288 285 288 288 288 288 288 288 289 288 287 286 284 283 283 283 282 282 281 280 279 279 278 277 277 276 276 277 278 279 279 282 285 283 281 279 278 278 277 276 275 276
287 287 286 287 288 288 288 288 288 287 286 285 283 282 282 281 281 281 280 279 278 278 278 277 276 275 274 274 273 273 274 274 275 277 282 282 279 278 277 276 276 276 276 277
288 288 288 288 288 288 288 288 287 285 284 282 280 280 280 279 279 278 277 277 277 276 275 274 272 272 271 271 271 270 270 271 272 274 276 281 279 277 276 276 275 277 277 276

GFSCGP_925_thetae_012.txt.gz
Theta_e
309 308 309 310 307 309 307 306 306 306 307 308 309 309 308 307 307 309 309 308 308 308 309 309 309 309 309 307 305 304 303 302 301 301 301 300 301 301 301 300 298 299 298 297
309 309 309 308 308 308 308 309 309 309 308 307 307 309 309 309 309 309 309 309 309 308 308 307 307 307 307 308 306 303 303 301 301 300 299 300 299 299 300 299 298 298 298 297
310 310 309 308 309 309 307 308 309 309 307 306 305 308 307 307 306 308 308 308 306 307 307 307 304 304 306 305 305 304 303 301 300 300 298 299 299 298 297 297 298 298 298 297
308 308 309 308 309 308 310 307 308 308 308 310 307 311 307 307 307 306 306 305 304 304 303 302 301 300 305 307 306 304 302 300 300 299 298 298 298 297 297 296 297 298 298 297
308 309 309 309 309 307 309 308 307 307 307 307 308 308 310 307 308 307 306 305 304 303 302 302 301 301 303 304 304 303 302 300 299 298 298 297 297 297 298 296 296 296 297 296
306 305 307 307 307 306 307 309 307 304 306 310 308 308 310 307 308 309 307 305 305 303 302 302 301 301 302 300 299 300 299 298 298 298 297 297 297 297 296 296 295 295 295 295
305 305 305 306 308 306 308 307 308 308 309 312 306 307 311 310 308 308 307 305 305 303 301 299 300 299 298 297 296 296 296 296 297 297 297 297 297 297 297 296 294 292 293 293
308 319 307 304 307 308 306 307 310 312 312 317 303 311 315 307 307 305 303 304 303 302 300 300 299 296 297 296 295 295 296 296 296 296 296 296 296 296 296 296 295 294 293 294
308 311 305 304 305 306 306 308 307 311 306 308 313 309 310 308 306 306 305 304 303 302 302 301 300 298 298 296 296 296 296 296 296 296 296 296 296 296 295 295 295 295 295 294
310 315 310 308 305 305 306 306 310 308 314 314 311 311 312 311 310 309 308 306 303 305 308 304 300 299 298 297 296 295 295 296 296 296 296 296 296 296 295 295 295 295 295 294
312 312 313 312 309 311 311 308 307 307 312 318 319 316 312 311 310 307 304 305 306 308 303 299 298 298 298 298 297 297 296 295 295 294 294 294 294 294 294 294 294 295 293 293
314 317 318 316 311 308 307 313 311 313 313 309 313 314 311 310 310 310 306 304 299 299 298 298 297 297 296 297 298 297 297 296 296 296 294 294 294 293 293 293 293 293 293 292
315 317 319 317 311 309 314 314 314 314 315 318 318 315 311 310 310 300 302 299 297 296 296 295 295 296 295 295 295 295 295 296 295 296 296 294 294 293 293 293 292 291 291 291
311 312 316 317 314 312 315 314 313 314 317 316 316 316 313 311 309 299 297 294 293 293 293 294 295 295 295 294 294 294 294 293 293 293 293 293 293 293 293 292 291 290 290 289
310 314 313 314 314 310 309 308 307 309 310 312 311 310 306 298 296 296 293 293 292 292 293 295 296 295 293 293 293 293 293 292 291 291 292 292 291 291 291 291 291 290 289 289
304 307 305 304 303 302 305 306 306 305 305 305 307 306 295 293 293 293 294 292 291 291 293 295 295 292 291 292 292 291 291 291 290 290 290 291 291 291 291 290 290 290 288 288
302 304 303 303 301 300 301 301 302 302 301 301 302 295 292 292 292 291 292 294 290 291 291 294 292 290 290 290 291 290 290 290 289 289 289 289 289 289 290 289 289 288 287 286
301 300 300 302 298 300 298 298 296 299 298 296 294 292 291 291 291 290 292 289 289 290 291 292 289 288 288 288 288 288 288 288 289 289 288 288 288 287 288 288 288 287 286 285
298 299 293 293 288 293 296 293 293 295 294 293 292 293 293 291 289 288 288 289 288 289 290 288 286 286 285 285 285 286 284 285 287 288 288 287 286 286 286 286 286 286 285 284
292 297 297 286 294 287 293 289 290 293 293 287 288 290 290 290 288 287 287 288 287 288 286 285 285 285 284 284 284 282 282 283 284 285 284 284 285 286 285 285 285 284 284 283
280 277 291 287 286 285 287 288 288 285 286 283 286 288 289 289 288 287 288 286 286 286 283 283 282 282 282 283 280 280 281 280 280 280 280 284 284 285 285 283 283 283 283 282
287 281 277 275 280 283 288 287 286 286 287 287 287 288 290 288 288 287 285 285 284 282 282 282 281 280 280 279 278 279 278 278 277 277 278 279 279 283 283 283 282 281 281 280
285 286 282 283 283 288 288 288 288 288 286 287 288 289 288 287 286 285 284 283 282 281 281 281 279 278 278 277 276 276 276 275 275 274 275 275 276 279 281 280 279 279 279 278
287 287 288 288 288 288 288 288 287 287 287 287 287 288 286 286 285 284 283 282 281 281 279 279 278 277 276 276 275 274 273 272 272 271 271 272 273 276 280 279 279 278 278 277
288 286 285 287 288 288 288 287 287 287 287 286 285 285 284 282 282 282 281 280 279 278 277 277 276 275 275 274 273 271 271 270 269 269 269 270 271 274 277 279 279 278 279 279
288 288 288 288 288 288 288 288 287 286 286 284 282 281 280 280 280 279 278 277 276 276 275 275 273 273 272 271 270 269 268 267 267 267 268 269 270 272 274 278 278 278 279 279

GFSCGP_925_thetae_015.txt.gz
Theta_e
308 308 309 309 307 308 308 306 305 305 306 306 309 309 308 307 307 308 309 309 308 308 308 307 308 308 308 308 307 306 305 304 304 306 306 305 306 307 308 310 309 307 303 299
307 309 308 307 306 307 307 308 308 308 307 305 307 309 309 309 309 309 309 309 307 307 307 306 305 306 306 307 307 305 304 302 302 304 304 304 303 302 303 305 305 306 303 299
309 309 307 307 308 308 306 307 309 308 306 305 305 308 307 308 306 306 307 306 305 305 305 305 304 303 303 304 305 305 303 302 301 302 302 301 301 301 299 300 301 302 302 299
307 307 308 308 308 307 310 306 307 307 308 309 307 310 308 308 308 307 305 304 304 303 304 303 301 302 301 301 302 302 302 301 300 300 300 300 300 299 298 298 298 299 300 298
308 308 308 309 309 306 309 308 307 307 307 307 307 307 308 306 308 308 307 307 306 304 302 302 302 302 300 299 299 300 300 299 298 299 299 298 299 299 299 298 297 297 297 296
305 304 306 306 306 306 307 308 305 303 306 310 308 308 310 307 308 308 308 307 305 303 302 304 302 300 298 298 297 298 297 298 298 297 298 298 298 297 297 297 296 296 296 296
305 305 305 306 307 306 308 307 310 311 309 314 305 307 310 308 307 308 308 306 303 301 302 302 301 298 297 295 295 296 296 296 296 296 297 297 297 297 297 297 296 294 294 294
310 319 305 304 307 309 307 308 315 319 315 319 303 314 315 306 307 305 303 303 302 303 301 299 298 297 296 295 293 295 295 295 295 296 296 296 296 296 296 296 296 295 295 295
309 311 306 302 304 307 306 308 308 311 309 310 313 311 313 308 307 305 304 302 301 299 298 298 297 296 296 296 294 294 295 294 294 294 294 295 295 295 295 295 295 295 295 294
309 318 310 307 305 305 306 306 310 308 315 318 314 312 314 310 308 304 302 300 299 297 296 296 296 295 295 295 295 294 294 294 294 294 294 294 294 294 294 294 295 295 295 294
311 313 314 313 308 308 306 307 307 308 315 319 319 316 310 309 304 303 301 299 296 295 295 295 295 294 294 294 293 293 293 293 292 292 293 293 293 293 293 294 294 294 294 294
312 316 318 316 311 307 309 311 310 318 319 315 317 318 312 304 303 300 296 295 293 292 293 294 294 294 293 293 293 292 292 292 291 291 292 292 292 292 292 292 293 293 293 293
315 317 318 315 311 310 314 312 313 314 313 317 317 316 312 307 300 298 294 293 292 292 292 293 294 294 292 291 292 291 291 291 290 289 290 291 292 291 290 290 291 291 291 291
310 313 316 316 314 314 315 312 312 314 316 315 315 313 309 303 297 295 294 292 292 291 291 292 294 293 290 290 290 290 290 290 289 288 289 289 290 291 291 291 290 290 290 289
309 312 311 312 312 305 306 306 305 306 306 308 307 306 305 299 294 294 294 293 292 291 291 291 294 292 289 288 288 288 288 288 288 288 288 288 288 288 288 291 289 289 289 289
304 308 303 303 304 304 303 301 301 302 302 304 304 305 294 293 292 292 291 293 292 289 289 290 292 290 287 287 287 286 286 286 285 286 287 287 287 286 286 287 290 289 288 288
302 302 303 304 301 299 299 299 299 299 299 299 300 295 291 290 292 291 290 292 291 288 289 289 290 288 286 286 285 284 285 283 283 284 285 286 286 284 284 285 286 289 287 287
301 300 301 301 291 300 298 294 297 297 297 292 292 291 291 292 292 291 290 291 288 288 288 289 288 286 285 284 284 283 283 281 281 282 282 282 281 281 283 284 284 285 285 285
297 298 292 297 296 295 296 293 293 293 292 290 289 290 291 291 289 288 288 287 287 287 287 288 288 285 284 283 283 282 282 280 280 281 280 279 279 279 283 283 283 283 284 284
293 296 297 288 292 285 291 288 288 291 289 287 285 285 286 290 289 288 286 286 287 287 286 286 285 283 282 282 281 282 280 279 279 279 278 277 277 278 279 279 281 281 282 283
278 280 295 294 294 289 287 288 288 286 287 283 284 286 286 289 289 288 286 286 286 285 285 284 283 282 281 281 280 280 278 278 278 277 276 275 275 275 276 276 278 280 281 281
288 281 275 272 280 288 287 287 287 287 287 286 286 287 287 287 288 289 288 286 284 283 283 282 281 281 281 280 278 278 277 277 276 275 273 273 273 272 273 274 275 278 280 280
287 286 284 284 284 287 287 287 288 288 287 287 286 286 286 287 288 288 286 284 283 283 282 282 281 279 279 278 277 276 276 275 273 272 271 271 270 270 271 272 273 276 279 279
286 285 287 288 288 286 288 288 288 287 287 287 286 285 285 286 286 286 284 283 282 281 280 279 278 277 277 276 276 275 274 273 271 270 269 269 269 269 269 270 272 274 278 279
289 286 286 287 288 288 288 287 287 287 287 286 285 285 284 283 283 282 281 280 279 278 277 276 275 275 275 274 273 272 271 269 268 268 267 267 267 267 268 269 271 273 275 278
289 289 288 288 288 288 288 288 287 286 286 281 280 280 280 279 279 278 277 276 275 274 274 272 272 271 270 269 269 268 267 266 266 265 265 265 265 266 266 267 269 270 273 276

GFSCGP_925_thetae_018.txt.gz
Theta_e
313 314 315 315 314 315 313 313 314 314 313 312 313 313 313 312 312 313 312 313 313 313 312 311 309 308 308 308 308 307 307 306 309 311 313 314 314 314 313 313 311 310 308 307
312 314 315 314 311 312 313 314 314 314 313 310 313 313 312 313 313 313 314 313 313 312 312 311 308 307 306 305 305 305 305 305 305 309 310 311 311 311 311 311 309 308 306 305
315 315 312 311 313 313 314 313 314 314 313 311 311 314 313 314 314 313 311 312 310 310 310 309 307 305 303 302 302 302 302 303 303 305 307 308 305 307 307 307 306 305 304 303
313 311 310 311 312 313 314 314 312 312 312 315 311 317 317 316 315 314 313 312 311 311 309 307 304 302 300 299 300 300 300 301 301 302 304 305 304 305 304 303 303 303 301 301
314 311 310 312 313 311 314 309 310 310 312 312 314 314 319 312 313 314 312 311 309 308 306 304 302 300 299 298 297 298 299 299 299 300 302 302 303 304 303 301 302 301 299 300
311 306 309 311 308 309 308 310 310 310 311 317 317 316 318 316 313 313 311 307 307 305 304 302 301 300 299 298 297 296 297 297 297 298 299 300 300 301 301 300 300 300 299 298
311 310 308 307 309 308 309 311 321 325 324 325 311 314 314 314 310 309 307 306 304 303 303 301 300 299 298 297 297 296 296 295 295 296 297 297 298 299 299 299 299 299 298 296
318 321 310 308 312 317 312 314 323 327 327 326 317 319 318 315 309 307 306 305 303 302 301 300 299 297 297 296 296 296 295 295 295 294 294 295 295 296 297 297 297 298 298 297
320 319 308 306 307 310 312 313 313 318 320 320 317 316 316 313 309 308 307 305 302 300 299 299 297 296 296 295 294 295 294 294 294 294 294 294 294 294 294 295 295 296 296 296
313 319 315 311 306 307 309 312 317 313 318 321 317 317 318 313 310 308 306 303 299 298 298 298 297 295 294 294 294 293 293 292 291 292 293 293 293 293 293 293 293 293 294 294
314 317 317 314 313 314 312 310 309 310 314 322 322 318 313 311 309 307 302 298 297 296 296 296 296 294 293 293 292 291 291 291 291 290 291 292 292 292 292 292 292 292 292 292
314 316 318 315 314 311 310 314 314 317 318 315 317 318 310 307 305 301 297 296 295 294 294 294 295 293 291 291 291 291 290 290 289 289 290 290 290 290 290 291 291 291 291 291
315 316 319 318 315 312 315 315 313 315 316 318 320 319 307 302 300 297 296 295 294 293 292 292 294 293 291 289 289 289 289 288 288 287 288 289 288 288 288 287 289 290 289 290
310 313 315 314 313 313 316 315 314 313 317 316 316 316 312 311 307 299 296 294 293 291 291 290 291 292 290 288 288 287 287 287 286 286 287 287 287 287 286 285 286 287 288 288
309 312 310 310 310 310 312 310 309 309 308 309 307 307 306 304 302 296 293 294 293 290 290 290 290 291 289 287 287 286 285 286 285 284 285 286 286 285 284 284 284 284 285 287
306 308 307 308 307 307 308 306 306 305 305 304 303 304 302 295 293 292 291 291 293 291 290 289 290 290 289 287 286 285 285 285 284 283 283 283 284 283 281 281 283 283 284 284
302 303 304 304 303 303 304 302 302 302 302 301 301 301 294 292 292 292 292 291 292 291 290 289 289 289 289 287 286 285 284 284 283 282 282 281 281 280 280 280 283 282 283 283
299 301 302 303 300 301 300 299 298 299 299 296 295 293 292 289 290 291 292 292 291 291 289 289 289 289 288 287 285 285 284 283 283 281 281 281 280 279 278 279 281 280 281 282
297 298 299 299 300 299 298 297 297 297 297 296 292 290 290 289 291 290 291 291 291 291 290 289 288 288 287 285 284 283 283 282 282 281 281 280 279 277 277 277 278 278 279 280
293 296 296 295 296 295 294 290 291 292 294 293 290 290 290 289 289 290 290 290 290 289 289 288 287 286 285 285 283 282 282 281 281 280 279 279 277 276 275 275 275 276 276 278
291 292 295 296 296 295 294 290 291 293 294 293 291 290 289 289 290 290 289 289 289 289 289 287 286 284 284 282 282 281 280 280 279 279 278 277 276 275 274 274 274 274 274 275
290 291 291 287 291 292 290 289 291 292 291 291 290 289 289 289 289 289 289 289 289 289 287 285 284 283 282 281 280 279 278 278 277 276 275 275 274 273 272 272 272 272 273 274
290 291 291 289 291 291 290 291 290 291 291 291 290 290 289 288 288 288 288 288 288 286 284 282 281 280 279 278 277 277 276 276 274 273 272 272 271 271 270 270 270 271 272 273
290 290 290 290 290 291 291 290 290 291 291 291 289 289 288 288 287 287 287 285 283 281 280 278 277 276 275 275 274 273 272 271 270 270 269 269 269 269 268 268 269 270 271 272
291 289 289 290 290 290 290 290 290 290 290 289 288 286 286 284 284 283 282 280 278 277 276 274 273 272 271 270 269 268 267 266 266 266 266 266 266 266 266 266 267 268 269 270
291 290 290 291 290 290 290 290 290 289 288 285 283 283 281 279 279 277 277 275 274 273 271 270 269 268 267 266 265 264 264 263 263 263 263 264 264 264 264 265 265 266 267 269

GFSCGP_925_thetae_021.txt.gz
Theta_e
315 316 317 318 318 317 317 317 317 317 318 317 317 316 315 315 315 315 316 317 316 315 313 310 308 307 307 306 307 308 309 310 310 313 315 318 319 320 320 320 319 318 315 312
315 316 316 317 316 315 316 316 317 317 317 316 316 315 314 315 316 316 316 315 315 313 311 308 306 305 304 304 304 304 305 307 308 309 312 314 315 317 317 317 316 316 314 311
317 318 316 315 315 316 316 316 317 317 316 314 314 316 319 316 319 317 315 313 312 311 309 307 305 303 302 302 302 302 303 304 305 306 309 310 311 309 311 313 313 313 312 310
317 316 314 314 314 315 316 316 314 314 314 318 315 319 318 319 319 315 314 312 311 308 307 306 304 303 301 301 300 301 301 301 302 304 306 307 309 307 308 307 308 309 309 308
316 314 313 315 315 314 315 312 312 312 314 317 318 318 319 319 318 314 311 310 308 307 305 304 303 301 301 300 299 299 299 299 300 301 302 304 304 305 305 305 303 304 305 304
314 310 311 313 312 312 311 311 313 314 316 321 320 319 320 317 314 312 310 309 308 306 304 303 301 300 300 299 299 298 298 298 298 298 299 300 301 302 302 303 302 303 302 302
317 314 311 310 312 311 311 313 320 321 325 328 319 320 320 317 313 312 310 308 306 305 304 302 301 300 298 298 298 297 297 297 297 297 297 297 297 298 299 300 300 301 301 301
318 318 314 311 313 316 317 317 321 322 324 325 322 324 321 316 310 309 308 306 305 303 302 301 299 298 298 297 296 296 295 294 294 295 296 296 296 296 297 297 298 298 299 300
317 317 316 312 311 311 316 316 315 318 319 322 320 319 319 316 311 310 308 306 303 302 301 301 299 297 296 296 295 295 294 293 292 293 294 294 294 294 294 294 295 295 296 297
317 320 317 313 311 311 311 310 318 317 322 322 318 318 318 316 314 310 307 303 301 300 300 299 298 296 295 295 294 293 292 291 291 291 292 292 292 292 292 293 293 293 293 293
315 318 316 314 314 314 313 313 313 314 318 322 321 317 313 314 312 308 303 300 299 297 296 297 297 294 292 292 292 291 291 290 289 289 290 290 290 290 289 288 290 290 291 291
313 314 317 313 312 312 313 314 314 317 318 316 317 319 313 310 306 303 300 299 297 296 294 294 295 293 291 290 290 289 289 289 288 287 288 288 288 287 287 287 286 286 287 290
314 314 315 314 310 313 316 315 315 316 316 319 321 317 309 306 303 301 300 298 296 295 291 292 292 293 291 289 289 288 287 287 287 286 287 287 287 286 284 283 284 285 285 285
311 313 314 312 310 311 313 312 313 314 315 314 315 314 310 311 307 303 301 298 296 294 292 291 291 291 291 289 288 288 287 286 286 285 285 286 285 285 284 283 283 283 283 284
308 310 309 309 308 308 309 308 308 309 311 312 311 311 308 306 305 300 298 296 295 293 292 291 291 291 290 290 288 288 287 287 286 285 284 284 284 283 282 282 282 282 283 283
303 305 305 305 304 303 305 306 306 307 307 307 307 306 304 300 296 296 295 294 293 292 293 291 290 290 290 290 288 287 287 287 285 284 284 283 282 282 282 281 280 281 282 282
302 303 303 302 301 300 302 301 301 302 302 302 302 302 295 296 294 293 293 292 292 291 292 291 290 290 289 289 289 288 287 286 285 284 283 283 282 282 281 280 280 280 280 281
300 301 301 301 299 300 299 298 298 298 299 300 299 295 292 291 291 291 291 292 292 291 291 291 291 290 289 289 288 287 286 285 284 284 283 283 282 281 281 279 278 278 279 279
296 297 298 299 299 298 298 296 296 296 296 297 298 291 290 290 290 290 292 291 290 290 290 290 290 290 289 288 287 285 284 283 283 283 282 282 281 281 280 278 277 277 277 277
294 295 297 298 298 296 294 295 292 293 295 295 293 290 291 290 289 290 291 291 290 290 290 290 290 289 288 286 284 283 283 282 282 281 280 280 280 279 278 277 277 276 276 276
293 295 297 297 297 296 296 292 292 294 295 294 293 292 292 290 291 291 291 290 290 290 290 290 289 287 285 284 282 280 280 279 279 278 278 277 277 277 276 276 275 275 274 274
291 293 294 293 292 292 292 291 292 293 292 293 291 291 291 291 290 290 290 290 290 289 289 287 285 283 282 280 278 277 277 276 275 274 273 273 273 273 273 272 272 272 272 272
291 292 292 293 292 292 291 292 293 293 293 293 292 292 291 291 290 289 289 289 289 287 284 282 280 278 277 276 275 274 273 272 270 269 268 268 268 268 268 269 269 270 270 271
292 292 292 292 291 292 292 292 292 292 292 292 291 291 290 290 289 289 288 286 284 282 280 278 276 275 274 273 271 270 269 268 266 265 265 265 265 265 265 266 266 267 268 268
293 292 292 292 292 292 291 291 291 291 291 291 290 290 289 288 287 285 284 281 280 278 276 274 273 272 271 270 268 267 266 265 264 264 264 264 264 264 264 264 265 265 265 266
292 292 292 292 292 291 291 292 292 291 290 290 290 287 283 282 282 280 279 277 275 274 272 271 270 269 268 267 266 265 264 264 263 263 263 264 264 264 264 264 264 265 266 267

GFSCGP_925_thetae_024.txt.gz
Theta_e
314 314 315 316 315 316 315 316 316 315 315 315 315 314 314 313 312 312 311 312 309 308 306 305 303 302 302 302 303 304 305 307 310 312 315 318 320 321 323 323 323 322 321 320
315 316 316 316 316 316 315 315 314 315 315 315 314 313 312 312 312 312 313 310 308 306 305 304 303 302 301 301 301 302 302 304 306 308 312 314 315 317 319 320 320 319 319 318
316 318 317 316 315 315 315 315 315 315 314 312 313 314 314 315 314 311 310 308 306 305 304 303 302 301 300 300 300 299 301 302 303 306 308 310 311 312 312 312 315 315 316 315
317 315 315 316 315 315 315 314 315 314 313 314 314 318 317 315 315 311 309 306 305 304 303 302 301 300 300 299 299 298 298 300 301 303 304 305 306 306 306 307 308 310 312 313
317 313 313 314 315 314 316 311 312 312 312 313 315 315 318 316 313 310 308 306 304 302 301 300 300 299 299 298 298 298 298 297 298 299 300 301 301 302 303 304 304 303 304 306
313 309 311 313 312 313 310 311 311 310 311 317 317 318 317 314 311 309 308 306 304 302 300 300 299 298 297 297 296 295 295 296 296 296 297 297 298 299 300 300 300 301 302 302
315 313 311 310 312 311 311 312 317 319 317 319 317 317 317 313 310 309 308 305 302 301 299 297 297 297 297 296 296 295 293 293 294 295 295 295 295 296 296 296 297 298 298 299
318 318 313 309 312 314 314 316 318 318 316 316 316 318 317 312 308 307 305 303 301 300 299 297 297 297 296 295 294 293 292 291 292 292 293 292 293 293 294 294 294 295 295 296
315 314 311 311 311 312 314 315 314 315 309 313 316 315 314 310 308 306 304 301 300 300 299 298 296 296 295 294 293 292 291 290 290 290 291 290 290 289 289 290 290 292 292 293
317 319 316 311 310 309 311 310 316 316 322 316 315 314 313 313 310 307 303 300 299 297 297 297 295 294 293 292 292 291 290 288 288 289 289 288 287 287 286 286 286 286 287 290
314 318 315 313 314 313 310 312 312 313 314 315 315 312 311 310 308 303 300 299 297 296 294 295 295 292 291 290 290 289 289 288 286 286 287 287 286 285 284 284 284 284 285 285
313 314 312 313 310 309 310 312 313 315 313 313 315 315 309 306 303 301 300 299 297 296 293 292 293 292 290 289 289 288 287 287 286 285 286 286 285 285 285 284 283 284 284 284
313 312 309 306 306 313 315 313 312 312 314 317 317 314 307 304 301 300 302 300 299 296 292 291 291 291 290 289 288 288 287 287 286 286 285 285 284 284 284 283 283 283 283 284
310 310 307 306 305 307 307 307 307 310 312 308 308 308 307 308 308 305 302 300 297 295 292 291 290 290 290 290 289 288 287 287 287 286 285 285 284 283 283 282 282 282 282 282
308 307 308 308 307 306 305 305 305 306 306 307 305 304 305 305 303 298 295 295 295 295 292 290 289 289 290 290 290 289 288 287 287 286 285 284 284 284 283 283 282 282 281 281
304 299 302 298 302 302 302 301 301 301 301 302 303 303 302 296 294 295 295 293 293 291 290 291 289 289 289 289 289 289 288 287 287 286 285 285 284 284 283 282 282 281 281 280
300 298 293 295 299 297 293 297 297 297 298 298 299 298 293 294 293 291 290 291 291 291 290 289 289 289 289 289 289 289 288 287 286 286 285 284 283 283 282 282 281 281 279 279
297 294 294 292 290 292 294 296 295 295 295 294 295 290 290 290 290 290 290 289 290 290 289 289 289 289 290 289 288 287 286 285 284 284 283 283 283 282 282 281 281 280 279 278
297 297 296 291 289 293 295 294 294 293 293 293 292 293 290 289 289 288 289 289 290 289 289 289 289 289 289 288 286 284 283 282 282 282 281 281 280 280 279 279 279 279 278 277
292 294 293 287 291 287 293 291 292 293 292 290 288 287 289 290 287 286 290 289 289 289 289 289 289 288 287 284 283 281 280 280 279 279 278 277 277 276 276 276 276 276 276 276
286 286 293 293 293 291 292 290 291 288 290 289 287 288 288 289 288 288 288 288 289 289 289 288 286 285 283 281 279 278 277 276 276 275 273 272 271 271 271 271 271 271 271 272
289 286 285 286 287 292 291 290 291 291 292 290 290 289 289 288 288 288 287 287 287 287 285 284 283 281 279 277 275 274 274 273 271 270 269 268 267 266 266 267 267 267 267 268
289 289 286 289 288 291 290 290 290 291 289 290 290 289 288 288 288 287 286 287 285 283 282 280 278 277 276 274 273 272 271 269 268 267 266 265 264 264 264 264 264 265 265 265
290 289 290 289 290 290 290 290 290 289 289 289 289 288 288 287 287 287 287 285 283 281 278 277 275 273 272 272 270 269 268 267 266 265 264 264 264 263 264 264 264 264 264 264
291 290 289 290 291 290 290 290 290 290 289 288 288 288 287 286 287 286 283 280 279 277 275 274 272 271 270 269 268 267 266 265 264 263 263 263 263 263 263 263 264 264 265 265
292 292 291 291 290 290 290 289 289 289 288 287 287 287 284 283 283 281 279 277 275 274 272 270 269 269 268 267 266 266 265 264 263 263 263 263 262 262 262 263 263 264 265 266

GFSCGP_925_thetae_027.txt.gz
Theta_e
311 310 311 310 310 310 313 314 314 312 312 312 312 312 311 310 309 309 306 305 304 303 302 300 300 299 299 300 301 302 304 306 309 312 314 317 320 323 324 324 323 324 324 325
312 312 312 311 313 313 313 314 313 312 313 313 311 311 310 310 310 309 306 304 303 302 301 300 299 298 298 298 298 300 302 303 306 308 310 312 314 314 319 321 321 320 320 321
313 313 313 314 314 314 313 314 313 313 312 310 310 311 311 311 307 306 305 304 303 302 300 299 299 298 297 297 297 297 298 300 302 304 307 309 309 309 308 310 314 317 317 317
313 312 314 314 315 313 315 312 313 313 311 311 311 313 314 312 309 306 304 302 301 300 299 298 297 297 296 295 296 297 297 297 298 300 301 301 300 301 301 303 305 308 311 312
316 312 312 313 313 312 313 310 311 311 310 311 311 312 312 309 309 307 304 302 300 299 298 297 296 296 295 294 294 294 295 296 296 296 297 297 298 298 298 300 301 301 302 304
311 308 310 311 311 311 309 310 310 309 308 313 313 314 314 311 309 307 304 301 299 298 296 296 296 295 295 294 293 293 293 293 294 294 295 295 295 295 296 296 296 297 298 299
312 311 310 310 310 309 309 310 314 313 312 314 313 313 313 311 308 307 303 300 298 296 295 294 294 294 293 293 292 291 290 291 292 291 291 291 291 292 293 293 293 294 294 294
315 316 310 309 311 312 310 313 313 312 314 311 312 314 313 306 304 302 301 299 298 297 295 294 294 294 293 292 292 290 289 289 289 289 288 288 287 287 287 287 287 289 290 292
314 313 309 310 310 311 313 314 312 314 302 308 313 313 309 306 303 301 300 299 298 298 296 294 294 294 293 292 291 289 287 287 288 288 287 286 286 285 285 285 285 285 285 286
316 316 314 309 310 309 311 310 314 311 310 311 314 312 311 309 304 301 300 298 297 295 296 294 293 292 291 291 290 289 288 286 286 287 287 286 285 285 284 284 284 284 284 284
314 315 314 312 313 313 310 311 311 312 313 312 310 310 310 309 303 300 298 297 295 294 294 294 292 291 290 290 289 288 287 287 286 285 286 285 285 285 284 284 284 284 284 284
312 313 310 313 309 308 309 310 311 312 311 309 313 313 308 304 301 300 299 298 296 294 292 291 292 290 289 289 288 287 287 287 286 286 285 285 285 284 284 284 284 284 284 284
312 309 303 305 306 311 313 311 309 309 312 313 314 310 305 302 301 300 299 297 296 293 290 290 291 291 289 288 288 287 287 287 286 286 286 285 284 284 284 284 283 283 283 283
309 310 304 305 302 307 307 306 305 308 307 302 304 304 304 302 303 302 300 300 297 293 289 288 288 289 289 289 289 288 288 288 287 287 286 286 285 284 284 283 283 282 282 281
307 305 307 307 306 304 305 304 304 304 304 305 304 303 302 301 298 298 295 296 296 293 290 288 287 288 289 289 289 289 289 289 288 287 287 286 285 284 283 283 282 282 281 281
304 299 301 296 302 302 301 301 301 301 300 300 300 300 299 295 294 293 292 292 291 290 290 290 287 288 289 289 289 289 289 289 288 287 287 286 284 283 282 282 282 281 281 280
300 298 291 293 298 295 293 296 297 297 297 296 296 295 290 294 293 290 289 290 290 290 290 289 288 288 288 288 288 288 288 287 286 285 284 283 282 282 281 281 281 280 279 279
297 292 289 287 286 293 294 293 294 294 294 291 291 288 289 290 289 289 288 288 288 288 288 288 288 288 288 288 288 286 285 285 284 282 281 280 280 280 279 278 277 277 276 277
297 296 289 290 286 290 293 292 293 293 291 290 289 290 291 288 288 287 288 289 288 288 288 288 288 288 288 286 284 284 283 281 279 278 278 278 277 275 273 273 272 272 273 273
294 296 294 279 289 288 290 291 291 290 290 286 284 287 287 288 287 285 288 288 288 289 288 288 288 287 285 283 282 281 278 276 275 276 275 273 271 270 270 269 268 268 268 269
283 281 295 295 292 287 288 289 290 287 289 285 285 286 287 288 287 287 287 287 288 288 288 287 285 283 281 280 279 277 274 274 273 272 270 269 268 267 266 266 266 266 265 266
289 287 283 281 282 291 289 289 290 289 290 289 288 288 288 288 287 287 286 286 286 286 285 284 282 280 278 277 275 273 272 271 269 268 267 266 266 265 265 264 264 264 264 264
289 289 286 289 288 289 288 289 289 289 288 289 288 288 287 287 287 286 286 285 285 285 283 280 279 277 275 273 272 270 269 268 267 266 265 265 265 264 264 263 263 263 263 264
288 288 289 287 289 289 289 288 288 288 289 288 287 287 286 286 286 287 286 285 284 281 279 278 276 275 272 271 269 268 268 267 265 265 265 264 264 263 263 263 263 263 263 263
290 288 288 289 290 289 289 288 288 288 287 287 287 286 286 285 286 286 285 282 281 278 276 275 274 271 270 269 268 268 267 266 265 264 264 263 263 263 263 262 262 263 264 264
291 291 291 291 290 289 290 289 289 288 288 287 287 286 285 285 285 283 280 280 277 275 274 272 270 269 268 267 267 267 266 265 264 263 263 263 263 263 262 262 262 263 265 266

GFSCGP_925_thetae_030.txt.gz
Theta_e
311 309 308 308 309 308 310 312 312 311 311 311 311 311 310 309 308 304 302 302 301 300 299 298 297 297 297 298 299 301 304 306 310 312 313 315 317 320 322 322 322 323 325 326
311 310 309 309 309 310 311 312 312 311 310 312 310 310 309 307 307 304 302 302 301 299 298 297 296 295 295 296 297 298 299 302 305 307 308 309 308 306 309 312 314 317 320 322
312 313 311 312 312 313 312 312 312 313 311 309 310 311 311 306 305 304 302 301 299 298 297 296 295 293 294 294 295 295 296 297 300 303 306 307 306 307 306 305 306 307 310 313
311 310 313 313 314 313 315 311 312 312 311 313 309 311 310 309 306 304 301 299 298 296 295 295 294 293 292 293 294 294 294 295 296 297 298 298 297 296 296 298 300 302 303 303
315 312 312 313 313 311 314 310 310 310 310 309 309 309 308 307 307 304 300 299 297 296 295 294 294 293 292 291 292 293 293 293 294 295 295 295 294 294 294 296 297 298 299 299
311 308 309 310 310 310 309 309 309 306 307 311 309 310 312 310 309 304 300 298 297 295 294 294 293 292 292 291 290 291 291 290 290 290 289 290 289 289 289 290 291 292 294 295
311 310 309 309 310 309 308 310 314 311 310 314 311 311 312 306 306 304 300 297 295 294 293 292 292 292 291 290 289 289 290 289 288 288 287 287 286 286 286 285 286 286 286 286
314 317 309 308 309 311 308 311 312 309 313 312 309 312 310 303 301 300 298 297 296 294 293 292 293 292 291 290 288 288 288 288 287 287 286 286 285 285 285 285 285 285 285 285
313 314 308 308 309 310 312 313 310 312 297 307 312 310 307 303 301 299 299 298 297 295 294 292 293 292 291 290 288 287 286 287 287 286 286 285 285 285 284 284 284 284 284 284
313 316 313 310 310 308 310 308 312 309 309 311 311 311 311 305 302 300 299 298 297 295 294 292 292 291 290 289 288 288 287 286 286 286 285 285 285 285 285 285 285 285 284 285
313 312 312 311 312 312 309 310 310 310 308 307 306 308 307 306 302 300 299 297 295 294 294 291 290 290 290 289 288 287 287 287 287 286 286 286 286 286 286 285 285 285 285 284
311 313 308 312 308 307 309 308 309 309 308 307 310 309 307 305 302 300 298 297 295 293 292 291 289 290 289 288 288 287 287 287 287 286 286 286 286 285 285 285 285 285 284 284
310 307 301 305 305 309 309 309 307 308 307 304 310 309 304 301 300 298 299 296 295 293 289 290 289 288 288 288 288 287 287 287 287 286 286 286 286 285 285 284 284 283 283 282
309 307 306 308 302 307 307 306 305 307 305 304 308 306 304 302 301 299 298 297 295 292 289 288 288 289 289 288 288 287 287 287 287 287 287 287 286 285 284 283 282 282 281 281
309 311 307 306 306 305 306 306 304 305 304 303 302 300 301 299 298 295 296 297 297 293 288 287 286 287 289 288 288 288 288 288 287 287 287 286 285 284 283 282 281 280 280 279
303 302 302 299 302 303 303 303 301 302 302 302 302 301 299 296 294 294 293 294 295 292 291 288 287 287 288 288 289 288 288 288 287 287 286 285 285 284 282 280 279 279 278 277
303 299 295 298 296 294 293 295 297 296 297 296 296 296 290 294 294 292 291 289 289 289 288 287 287 288 288 288 288 288 288 287 286 285 284 284 282 279 278 278 277 275 274 274
299 295 295 291 286 291 295 292 293 294 295 291 291 288 289 292 291 289 287 287 287 287 287 286 287 288 288 288 287 287 286 285 284 282 281 279 278 276 275 274 273 272 271 271
297 297 294 294 288 291 294 292 292 292 292 290 290 289 291 290 288 287 286 286 286 286 287 288 288 288 287 287 286 284 283 282 281 278 276 275 274 273 272 271 270 269 268 268
295 296 296 282 285 288 290 291 289 290 289 284 285 287 287 287 286 286 286 287 287 288 288 288 288 287 286 284 283 282 280 278 276 275 273 272 271 270 269 268 267 267 266 266
287 294 297 293 284 286 288 289 289 288 289 283 284 287 286 287 288 287 286 286 288 288 288 287 287 286 284 281 280 278 275 274 273 271 271 271 270 269 268 267 266 265 264 264
289 289 289 287 290 290 288 288 290 290 289 289 287 288 288 288 287 287 286 285 286 286 286 286 284 282 280 279 278 275 274 272 271 270 269 269 268 268 267 265 265 264 263 263
289 289 286 289 288 290 288 290 289 289 288 289 288 287 287 287 286 286 286 285 285 286 285 284 282 279 277 276 274 272 271 270 269 268 268 268 267 266 265 264 264 263 263 263
288 287 288 287 288 289 289 289 288 288 288 288 288 287 286 286 286 287 286 285 284 285 282 281 278 276 274 273 271 270 269 268 268 267 267 267 266 265 265 264 264 262 262 262
288 287 287 287 289 288 288 287 288 288 287 288 287 287 287 286 287 286 286 284 284 282 280 278 276 274 272 270 270 269 268 267 267 266 266 266 264 264 264 263 263 263 264 264
289 291 290 290 290 290 290 289 288 287 287 287 287 286 285 285 285 284 284 284 283 279 277 275 273 272 270 269 269 268 267 266 265 265 265 264 263 263 263 262 262 264 265 266

GFSCGP_925_thetae_033.txt.gz
Theta_e
309 307 307 308 308 308 309 309 311 310 310 312 311 310 309 307 302 301 300 299 298 298 297 295 294 295 296 298 300 302 304 307 311 313 313 311 310 310 312 314 316 320 321 322
309 308 307 307 307 309 309 311 311 310 309 310 310 310 308 304 303 301 300 299 298 297 295 294 293 294 294 294 295 297 299 303 305 306 304 304 304 302 302 303 305 309 311 313
310 312 310 310 310 311 311 311 311 312 310 309 309 310 310 304 302 301 299 298 297 295 294 293 292 292 293 293 295 296 297 298 300 302 304 304 304 303 301 300 299 300 301 302
310 310 312 311 312 311 315 310 311 312 311 314 308 312 307 306 304 301 299 296 295 294 293 293 292 291 291 292 292 293 294 296 297 298 298 297 295 293 293 294 295 297 298 298
314 312 311 312 312 311 314 309 310 310 309 308 308 309 306 305 306 302 298 297 295 294 293 292 291 290 290 291 291 291 291 291 291 292 293 291 289 288 288 289 290 290 291 292
311 308 309 311 308 309 308 308 308 306 306 311 309 310 310 309 307 302 299 296 295 294 292 292 291 290 289 289 289 289 288 288 288 288 288 287 287 286 286 286 286 286 285 285
311 310 309 308 309 308 308 310 313 312 311 315 309 310 309 305 303 303 299 296 294 293 292 291 291 290 288 288 289 288 288 287 287 287 286 286 285 285 285 284 284 285 284 284
312 316 309 307 309 309 307 310 313 310 311 311 309 313 310 302 299 299 297 295 294 293 292 291 291 290 288 287 287 288 287 287 286 286 285 285 285 285 285 285 285 285 285 285
312 314 308 307 308 309 309 311 308 310 294 306 311 309 305 301 300 298 297 295 294 293 292 291 291 290 289 288 287 287 287 286 286 285 285 286 286 286 286 285 285 285 285 285
311 315 310 309 308 307 309 307 312 308 308 310 310 310 309 304 301 299 298 297 296 294 292 291 291 291 289 288 287 286 286 286 286 286 286 286 286 285 285 285 285 285 285 285
311 312 312 311 311 310 309 310 309 309 307 305 304 306 304 305 302 300 299 297 296 295 293 291 290 290 289 288 287 287 286 286 286 286 286 286 286 286 286 285 285 285 284 284
312 311 310 311 307 305 307 308 309 312 309 306 307 310 304 303 301 299 299 298 295 294 293 291 290 289 289 288 287 287 287 287 287 287 287 287 287 286 286 285 285 284 284 283
310 309 304 308 306 308 308 307 306 306 303 301 308 308 303 301 300 299 299 297 295 293 291 290 288 288 288 288 287 287 287 287 287 287 287 287 286 286 285 285 284 283 282 282
310 307 309 315 307 307 307 306 305 304 307 305 308 308 305 303 301 299 298 297 296 294 290 289 287 287 288 288 288 287 287 287 287 287 286 286 285 284 284 284 283 281 281 280
308 306 306 305 304 305 305 305 304 304 305 308 307 307 304 302 301 298 295 293 295 293 288 288 288 288 288 288 288 287 287 287 287 286 286 285 285 284 284 283 282 280 279 278
303 305 302 300 305 306 307 305 304 305 304 303 303 303 300 297 294 293 292 293 295 295 291 287 287 287 288 289 289 288 287 287 286 286 285 284 284 284 283 281 280 278 277 276
303 302 303 309 297 297 300 298 302 302 300 301 301 301 290 293 293 292 291 290 291 292 291 289 287 288 288 289 289 288 287 286 286 285 285 285 284 283 280 279 277 276 275 274
303 302 302 298 295 302 300 292 293 296 296 292 291 288 289 292 293 291 289 289 288 288 287 286 287 288 289 289 288 287 286 286 285 285 284 283 281 279 278 277 275 274 273 271
298 300 297 302 292 295 297 293 291 291 291 291 292 292 292 291 288 287 287 285 286 285 286 288 289 289 288 288 287 286 285 285 284 283 281 279 278 276 275 274 273 271 270 269
297 297 303 288 295 296 295 290 289 290 290 286 288 289 288 287 287 289 286 285 285 287 288 289 289 288 286 286 286 285 284 282 281 279 278 276 275 274 273 271 270 270 268 267
292 295 301 293 299 290 288 288 289 288 291 284 285 288 286 287 288 288 286 285 287 288 288 289 287 287 287 285 284 282 281 280 279 277 275 274 273 272 271 270 269 268 267 265
291 291 290 288 292 292 289 288 291 291 288 288 286 287 287 287 288 286 286 285 286 286 288 288 287 286 285 284 282 280 279 277 276 274 272 272 272 271 270 268 268 267 266 264
291 290 289 291 290 290 288 290 289 289 288 288 288 287 287 287 287 286 285 285 285 286 287 288 286 284 283 281 279 278 276 274 272 271 271 271 270 269 269 268 268 266 264 263
288 286 289 288 288 288 288 288 288 288 288 288 288 288 286 286 286 287 285 285 285 286 285 286 284 281 280 278 277 275 273 272 270 270 269 269 268 268 267 267 266 264 264 263
289 287 287 287 289 288 288 287 288 288 287 287 286 287 286 285 286 286 286 284 285 285 284 284 281 279 278 276 274 272 271 270 269 268 268 267 267 266 266 266 266 264 264 264
288 290 289 288 289 290 290 288 287 287 287 287 286 286 285 285 286 285 284 285 285 283 282 279 279 278 276 274 272 270 269 268 268 267 267 266 265 265 264 264 264 267 265 267

GFSCGP_925_thetae_036.txt.gz
Theta_e
308 307 308 308 306 308 308 309 310 309 309 311 310 309 309 303 300 299 298 297 296 295 294 293 294 295 297 300 303 305 308 308 311 311 310 308 304 304 306 307 309 311 313 315
308 307 307 306 307 308 309 309 309 309 309 309 310 309 306 303 301 300 298 297 296 294 292 292 293 294 294 295 297 300 302 306 308 308 306 304 302 300 301 301 302 303 304 305
309 311 307 308 308 308 307 308 310 311 310 308 308 309 307 302 300 299 298 296 295 294 293 291 291 291 292 294 295 297 298 300 303 303 304 303 301 299 298 297 297 297 298 299
308 309 311 309 310 308 311 308 310 311 312 314 308 313 308 304 302 300 298 295 294 293 293 291 290 290 290 290 292 294 296 297 298 299 299 298 294 289 288 288 289 290 291 291
314 310 310 312 311 310 313 309 309 309 309 308 309 309 307 304 305 301 297 295 294 293 292 290 289 289 289 289 289 289 290 291 291 292 292 290 287 286 286 286 286 286 286 286
311 308 308 310 308 309 305 307 306 305 306 311 309 310 309 307 306 302 298 295 294 292 291 291 289 289 289 288 288 288 288 287 288 288 288 287 287 286 286 285 285 285 285 285
311 310 308 307 308 307 307 309 313 312 311 314 307 308 309 306 303 302 299 296 294 292 290 289 289 288 288 288 287 287 286 286 286 286 286 286 286 286 286 285 285 285 285 285
314 316 309 307 308 309 307 310 313 311 310 309 308 312 311 303 299 298 298 296 293 292 291 290 290 288 287 287 287 286 286 286 285 285 285 285 286 286 285 285 285 285 285 284
311 314 307 306 307 308 308 310 308 308 294 305 310 309 306 301 299 296 295 294 293 292 291 290 290 289 287 286 287 287 286 285 285 285 286 286 286 286 285 285 285 285 284 284
311 315 309 308 307 306 309 307 312 308 310 308 310 309 310 305 302 298 296 295 294 292 291 290 291 290 288 287 286 286 286 286 286 286 286 286 286 286 286 285 285 285 284 284
309 312 312 309 309 309 309 310 308 309 308 308 305 307 303 304 301 299 297 296 295 294 292 290 291 291 289 287 286 286 286 286 286 286 286 286 286 286 286 285 285 284 283 283
310 310 310 311 306 304 307 308 308 313 309 304 306 311 303 303 300 299 298 297 295 294 293 291 291 290 289 288 287 286 286 286 286 287 287 286 286 286 286 286 285 284 283 282
311 310 306 309 308 307 308 306 307 306 304 303 307 309 303 301 299 298 298 296 295 294 292 291 290 288 289 288 287 287 286 287 287 287 287 286 286 286 285 285 284 283 282 281
310 308 309 314 310 308 310 307 305 306 304 306 310 309 307 304 302 298 298 296 296 294 292 290 288 288 289 288 287 287 287 287 287 287 286 286 286 285 285 284 284 283 281 281
310 309 307 305 304 306 307 307 305 306 308 310 310 307 303 305 302 300 298 296 294 293 292 288 288 287 288 288 287 287 287 287 287 286 286 286 285 285 284 284 283 281 280 279
304 307 305 304 305 305 306 304 303 305 304 303 303 304 300 300 298 297 296 294 293 293 293 289 288 289 288 288 288 288 287 287 286 286 286 285 285 284 284 283 282 280 279 278
306 304 305 311 297 301 309 305 304 303 302 304 305 305 294 296 295 294 292 291 292 293 293 291 287 288 289 290 290 289 289 287 286 285 285 285 283 283 283 282 280 278 277 277
302 301 305 298 299 308 303 291 296 305 303 298 294 290 293 293 291 291 290 290 290 289 289 289 290 289 290 290 289 289 288 287 286 285 285 283 283 283 282 280 278 277 276 275
299 303 299 302 301 302 300 291 291 293 294 293 297 297 292 290 289 288 287 287 287 286 287 288 290 289 289 289 289 288 287 286 285 284 283 282 283 282 279 278 277 276 275 273
298 300 308 294 303 305 296 290 289 291 295 288 292 291 289 288 287 287 287 285 285 287 287 288 288 288 289 289 287 286 286 285 284 283 282 281 281 279 278 276 275 273 272 271
298 298 306 298 301 297 291 288 289 292 295 283 286 287 286 287 287 287 288 286 287 287 288 288 288 288 289 288 286 286 285 284 283 281 280 279 278 277 276 274 273 271 271 269
296 299 297 296 298 301 288 289 292 292 287 287 287 287 287 287 287 287 286 286 285 286 287 288 288 287 288 287 286 285 283 283 280 279 278 276 275 274 273 272 272 270 269 267
294 293 293 296 296 289 289 291 289 289 288 287 287 287 286 287 286 286 286 285 285 286 287 288 287 287 287 286 285 284 283 280 278 277 276 275 274 273 272 271 270 269 268 266
289 287 291 290 289 289 289 289 289 288 289 288 287 287 286 286 286 286 286 285 284 286 286 288 286 285 285 284 283 282 281 278 277 275 274 272 272 271 270 269 269 268 267 265
290 288 288 288 289 288 288 288 289 288 287 287 286 286 286 285 286 286 285 283 284 285 286 286 285 284 285 283 281 279 278 276 275 273 272 271 270 269 269 268 268 267 267 266
288 289 289 289 289 289 290 289 288 287 287 286 286 285 284 284 285 284 283 285 285 285 285 284 284 283 282 280 279 277 275 274 273 271 270 269 268 268 267 267 267 267 266 267

GFSCGP_925_thetae_042.txt.gz
Theta_e
312 316 317 318 317 316 316 316 318 314 312 314 317 317 315 309 308 308 306 304 302 301 297 297 296 297 299 300 302 305 307 306 307 307 306 303 300 297 296 298 300 301 300 302
313 316 317 313 312 313 313 316 317 314 311 313 315 315 315 309 309 308 306 304 302 300 299 297 296 296 297 297 299 300 301 302 302 303 301 299 295 293 292 294 297 298 299 300
317 316 312 312 311 313 314 315 316 316 312 311 313 316 316 309 306 304 304 303 301 301 300 297 295 295 295 295 296 299 301 302 300 301 300 297 294 292 291 290 290 291 292 292
313 311 310 311 312 313 316 312 312 312 314 320 312 323 317 312 308 305 303 302 301 300 298 296 295 294 293 292 292 294 298 301 301 300 297 295 294 291 289 288 287 287 287 287
316 311 313 314 314 311 317 311 312 313 315 315 315 318 319 309 310 307 304 302 301 300 298 296 294 292 290 290 291 291 292 294 294 294 293 292 290 288 288 287 287 286 286 286
315 309 312 314 310 311 309 310 310 311 314 320 319 318 321 314 312 310 305 302 301 299 297 294 292 290 289 289 289 289 290 291 291 291 290 290 289 288 288 287 287 286 285 285
315 313 309 308 313 308 311 316 322 322 320 323 310 315 319 314 308 309 306 303 300 298 296 294 292 291 289 288 288 288 288 287 288 288 288 287 287 288 287 287 287 286 285 285
322 323 312 309 316 315 312 317 323 327 322 320 309 316 316 308 305 304 305 303 300 298 296 294 293 291 289 288 288 287 287 286 287 287 287 286 287 286 286 286 285 285 284 284
320 320 309 307 308 313 312 314 313 312 305 319 316 313 311 305 304 303 303 301 299 298 296 295 292 291 290 289 288 287 287 286 286 286 286 286 286 286 286 285 285 284 283 283
317 321 309 307 308 308 311 312 315 315 324 326 318 316 319 310 308 304 302 301 300 299 297 295 293 291 289 289 287 287 286 286 286 286 286 286 286 286 285 285 284 284 283 283
312 315 313 309 311 314 311 312 312 314 317 327 324 318 312 313 310 306 304 303 301 299 298 296 294 291 289 288 288 287 286 286 286 286 286 285 285 285 285 285 284 284 283 282
314 315 318 313 308 306 311 313 313 319 316 312 315 320 306 307 307 307 305 303 302 299 298 297 295 293 289 288 287 287 286 286 286 285 285 285 286 285 285 284 284 284 283 283
313 317 324 318 311 307 310 310 311 313 314 321 323 320 306 305 305 304 305 302 301 299 299 297 296 294 292 289 287 287 286 286 286 285 285 285 285 285 285 285 285 284 283 283
313 317 321 325 320 314 313 312 311 313 319 319 318 319 309 308 307 304 303 302 301 300 299 298 296 295 294 291 289 287 286 286 286 285 285 285 285 285 285 285 285 284 283 282
313 319 318 317 314 313 314 314 311 313 314 319 318 315 311 309 307 307 305 303 301 300 299 299 298 296 295 292 290 288 287 286 285 285 285 285 285 285 285 285 284 284 283 281
310 319 316 317 313 310 313 313 312 312 313 314 315 314 311 309 307 305 304 302 301 301 300 299 298 297 294 292 291 289 287 286 285 285 285 285 285 285 285 284 283 282 281 280
313 316 316 321 317 310 312 313 312 312 312 313 314 314 307 306 306 306 305 302 302 301 300 298 297 295 294 292 291 289 288 286 285 285 286 285 285 285 284 283 282 281 281 279
311 313 313 316 310 316 312 300 309 310 309 307 305 305 306 306 303 302 303 302 301 300 298 296 295 294 293 292 290 290 288 287 286 285 285 285 285 284 284 283 281 281 280 278
306 311 306 312 313 314 301 297 305 308 310 305 306 302 298 294 296 298 295 296 299 297 296 295 295 294 292 292 291 290 288 288 287 286 285 285 285 284 283 282 281 280 278 276
300 305 313 305 315 318 310 297 294 300 308 301 304 301 296 295 303 304 293 293 292 292 292 291 291 292 292 292 291 290 289 288 288 287 287 286 285 284 283 281 280 279 277 275
304 305 311 309 312 310 304 294 292 308 313 297 302 300 295 298 300 294 291 290 291 290 290 290 290 290 292 291 290 289 288 288 290 288 287 286 285 284 282 280 278 277 275 274
307 308 309 308 310 312 293 291 301 302 293 294 294 293 293 292 290 290 289 289 288 288 288 289 288 289 290 289 288 288 287 289 288 287 286 285 283 282 280 278 277 275 274 273
306 307 308 308 308 293 293 294 293 293 296 292 293 291 292 291 289 289 288 288 287 287 288 288 288 287 287 287 288 287 289 288 287 285 284 283 281 279 278 276 275 273 273 272
294 291 297 301 294 292 292 291 291 290 292 291 291 291 290 291 289 288 288 288 287 287 287 288 287 286 286 287 286 287 287 286 285 284 282 280 278 277 275 274 273 273 272 271
294 292 293 291 290 290 291 291 291 291 290 289 288 289 290 289 288 288 288 287 287 287 288 287 287 286 286 286 286 286 285 284 283 281 280 277 275 274 273 273 272 272 272 272
291 291 294 296 292 293 293 293 291 291 290 290 289 287 286 287 288 287 287 287 287 286 287 285 285 285 285 284 284 284 283 282 281 278 276 274 274 273 272 271 271 272 271 270

GFSCGP_925_thetae_045.txt.gz
Theta_e
316 317 319 320 319 320 320 321 321 321 316 316 318 318 319 314 312 314 313 311 308 306 302 302 302 304 306 305 305 307 309 309 310 309 308 305 302 300 298 297 298 301 301 302
316 318 319 319 319 319 318 320 320 321 315 315 318 319 319 318 314 314 313 311 308 304 303 302 302 303 306 306 305 306 307 308 309 307 304 301 298 296 295 294 296 296 298 297
319 319 316 316 317 317 318 319 320 320 316 314 316 319 319 318 315 312 311 310 307 305 303 302 302 303 303 303 303 304 304 304 303 302 299 297 296 295 294 292 292 291 291 291
317 318 315 316 317 317 320 318 317 317 317 322 317 323 322 321 315 311 309 308 306 305 303 301 300 300 300 299 299 300 300 301 301 301 299 299 297 294 292 290 289 289 289 289
318 314 314 316 317 316 318 315 316 317 318 320 321 320 321 319 317 314 310 307 305 304 302 301 299 297 296 296 296 296 296 295 296 296 296 294 292 291 290 289 288 288 287 288
316 313 314 316 313 314 314 315 315 315 318 324 321 322 323 321 317 315 309 306 305 303 301 299 297 295 294 293 294 293 293 293 293 293 293 292 291 291 290 290 289 288 287 286
317 316 315 313 315 312 315 318 326 326 323 326 317 323 322 321 313 315 310 306 305 303 301 299 296 294 293 293 292 292 291 291 291 291 291 291 291 291 290 290 289 288 287 286
323 325 318 313 319 321 316 320 326 332 329 326 311 320 320 315 311 308 309 307 304 302 301 298 296 295 293 292 291 290 290 290 290 290 290 290 290 290 289 289 288 287 286 285
324 325 316 314 315 319 317 319 319 320 313 318 319 316 316 309 307 307 309 306 304 302 300 298 296 295 292 291 290 290 289 289 289 289 289 289 288 288 288 287 287 286 285 284
322 325 314 311 310 311 315 315 318 318 327 329 324 321 320 312 310 307 308 306 303 302 300 298 296 294 292 291 290 290 289 289 288 288 288 288 288 287 287 287 286 285 284 284
319 320 316 310 313 316 313 315 316 317 321 331 328 322 317 318 312 308 307 305 303 302 301 299 296 294 293 291 290 289 289 288 288 288 287 287 287 287 286 286 285 285 284 283
318 320 326 317 313 312 315 316 316 320 322 318 320 323 308 313 314 310 307 305 304 302 301 299 297 294 292 291 290 289 288 288 288 288 287 287 287 286 286 286 285 285 284 283
316 321 327 324 313 310 312 313 315 316 317 323 325 323 309 309 310 309 309 307 305 303 301 299 297 295 293 291 290 289 288 288 288 287 287 287 287 286 286 286 285 284 284 283
316 319 324 329 324 318 315 313 313 315 319 320 322 321 310 310 309 308 308 307 305 303 302 300 299 297 294 292 290 290 289 288 288 287 287 287 286 286 286 285 285 284 283 283
317 321 321 321 321 320 317 316 314 314 315 319 320 319 318 311 310 309 307 306 305 303 302 301 299 298 296 294 291 290 289 288 288 287 287 287 287 286 286 285 284 284 283 282
313 319 319 321 320 320 320 318 316 314 314 315 316 318 317 315 310 309 308 306 305 304 302 301 300 299 298 296 294 291 290 288 288 287 287 287 287 286 285 285 284 283 283 282
312 314 317 322 319 319 315 317 316 316 314 315 316 316 311 311 309 308 307 306 305 304 303 301 300 299 298 296 294 293 291 289 287 286 286 286 286 286 285 285 284 283 282 281
313 312 316 321 318 322 319 315 312 316 315 314 314 311 309 308 307 307 308 306 304 303 302 301 300 299 298 296 294 293 291 289 287 286 286 286 286 285 285 284 284 282 281 280
309 313 316 319 321 319 316 303 311 315 317 314 312 307 303 301 301 303 303 304 304 303 302 300 299 298 296 294 293 292 291 289 287 286 286 286 285 285 284 284 283 282 280 279
302 308 313 313 321 323 311 305 304 310 315 311 308 305 301 301 310 310 297 296 298 298 297 296 296 295 294 293 292 291 289 288 287 287 288 286 285 285 285 284 283 281 280 279
305 307 312 317 317 316 305 297 299 314 315 303 306 303 299 303 304 298 295 294 294 293 292 293 293 293 293 293 292 290 289 288 291 290 288 287 286 285 284 283 282 281 279 278
309 310 312 313 314 316 297 295 307 304 297 301 304 302 300 299 294 294 294 292 291 290 290 290 290 290 291 291 291 289 289 293 291 290 288 287 286 285 283 282 281 279 278 276
309 311 313 312 312 295 295 296 297 297 301 295 298 298 299 294 292 292 291 289 289 289 288 289 290 290 289 289 289 288 290 289 289 287 287 285 284 283 282 281 279 277 276 274
298 296 305 305 298 296 294 296 293 293 294 293 293 294 294 292 290 289 288 288 288 288 288 288 288 287 288 288 287 288 287 287 287 286 285 283 282 280 279 278 277 276 275 274
296 296 299 295 292 293 295 294 295 294 291 290 290 291 292 291 289 288 289 289 288 288 288 288 287 287 288 287 287 286 286 286 285 284 283 281 280 278 277 276 276 275 275 275
293 294 297 300 293 299 296 296 295 293 291 290 290 289 288 290 289 288 289 289 288 288 287 287 288 288 287 286 286 285 284 284 283 282 280 279 277 275 274 274 274 274 273 273

GFSCGP_925_thetae_048.txt.gz
Theta_e
316 315 317 316 316 317 318 319 319 320 315 316 315 315 315 311 310 309 310 308 306 305 302 302 304 307 307 307 309 311 312 311 312 310 306 305 302 302 303 301 302 303 304 303
316 317 317 318 318 318 318 318 318 318 314 314 315 315 316 313 311 310 311 309 306 302 300 302 304 307 307 306 308 309 310 310 309 307 303 302 300 298 297 296 296 297 298 298
318 318 317 317 318 318 318 318 318 319 315 314 313 314 315 315 314 311 311 309 306 302 301 301 303 305 306 306 306 307 307 307 307 306 303 299 296 294 293 292 292 292 292 292
317 317 316 317 317 317 318 317 317 318 317 318 314 319 319 317 316 312 310 308 304 302 301 301 303 304 304 303 304 304 304 305 303 301 300 297 295 293 291 290 289 289 290 289
318 315 315 317 317 316 317 315 316 317 316 317 317 319 319 318 318 314 310 307 304 302 301 300 301 301 300 300 300 300 301 300 300 300 298 296 293 291 289 288 288 288 288 288
315 313 314 316 312 314 314 315 315 316 317 320 319 320 320 320 317 316 310 307 304 302 299 299 299 297 297 297 297 296 296 296 297 298 296 295 292 290 289 289 288 288 288 287
315 314 314 313 314 312 315 317 322 322 320 322 317 319 320 318 315 314 311 308 304 301 299 297 295 294 294 294 294 294 294 293 294 294 294 292 291 291 290 289 288 288 287 286
318 320 316 312 316 317 314 317 322 324 325 322 311 317 317 311 308 310 309 306 303 301 299 296 294 294 293 293 293 292 292 292 292 292 292 291 291 290 290 289 288 287 286 285
320 321 314 313 314 316 316 317 318 319 307 314 318 315 314 309 308 308 306 305 303 301 299 296 295 294 293 293 291 291 291 291 291 291 291 291 290 290 289 288 288 287 286 285
321 325 315 309 311 312 315 314 317 316 318 322 321 320 319 312 309 306 306 305 303 301 299 296 295 294 292 292 290 290 290 290 290 290 290 290 289 289 288 287 287 286 285 285
318 321 313 310 312 315 313 314 315 317 318 321 322 321 316 315 311 307 307 305 303 301 299 296 295 294 292 291 290 290 289 289 289 289 289 289 288 288 287 287 286 286 285 285
317 320 316 313 312 311 314 315 315 319 319 317 317 322 309 311 310 307 307 305 303 301 299 297 296 293 292 291 290 289 289 289 289 289 288 288 288 287 287 286 286 285 285 285
317 318 321 322 313 310 311 312 315 316 314 320 319 320 308 307 309 306 306 304 302 300 299 297 295 293 292 291 290 289 289 289 288 288 288 287 287 287 287 286 286 285 285 285
316 319 321 325 322 315 312 312 313 315 317 317 319 318 311 309 308 307 305 304 302 301 300 297 295 294 292 291 290 289 289 289 288 288 288 287 287 287 286 286 286 286 285 285
317 321 319 320 320 318 314 313 312 314 315 318 318 317 316 313 307 307 306 304 303 301 300 298 296 294 292 291 290 289 288 288 288 288 288 287 287 287 286 286 286 285 285 284
314 320 319 320 317 319 321 318 312 312 313 314 315 316 314 313 308 305 305 305 303 302 300 299 297 296 293 291 290 289 289 288 288 288 287 287 287 287 286 286 286 285 284 284
314 316 316 322 317 319 321 320 319 318 312 313 314 314 311 311 306 305 304 304 303 302 301 300 298 297 295 292 291 290 289 289 288 288 287 287 287 287 286 286 286 285 284 284
312 313 316 320 318 323 318 314 316 318 318 314 312 309 308 310 308 305 305 304 303 302 301 300 299 298 297 295 293 291 290 289 288 288 287 287 287 287 286 286 286 285 284 284
312 312 318 321 323 319 317 305 309 313 316 315 315 313 304 303 304 305 304 303 302 300 300 300 299 298 297 297 295 293 291 290 288 288 287 287 287 287 286 286 285 285 284 283
304 311 315 314 321 324 307 301 303 309 314 308 311 310 301 302 308 306 299 299 300 300 300 299 299 299 297 296 295 294 292 290 288 288 288 287 286 286 286 286 285 285 284 283
306 308 313 317 319 315 301 296 300 311 310 298 300 300 300 305 305 302 295 296 296 297 297 298 298 296 296 295 295 293 291 290 292 290 288 288 287 286 286 286 285 284 283 282
309 310 310 312 316 317 297 297 308 302 295 300 300 298 298 294 294 293 292 291 290 290 292 294 293 293 293 292 292 291 290 292 291 290 289 288 288 287 286 285 284 283 282 281
311 309 311 311 312 295 293 295 296 296 297 297 301 299 295 292 292 291 290 288 287 288 289 290 290 289 290 291 292 291 292 291 290 289 288 288 286 286 285 284 283 281 280 279
299 297 305 305 300 297 295 298 293 293 293 293 294 295 293 291 289 288 287 286 286 287 287 289 289 288 288 289 289 290 290 290 289 288 287 287 286 284 283 282 282 280 279 277
297 298 299 295 293 295 295 295 296 295 291 291 290 292 291 288 288 287 287 285 286 287 287 288 289 290 289 288 288 287 286 286 286 286 285 284 283 282 281 280 280 279 278 278
292 296 300 302 295 299 298 297 296 296 293 290 289 289 289 288 287 287 286 287 287 287 287 287 288 288 287 286 286 285 285 284 284 284 282 282 281 279 278 277 276 275 275 275

GFSCGP_925_thetae_051.txt.gz
Theta_e
313 312 313 312 311 313 315 316 317 315 314 313 312 312 311 308 307 306 305 304 304 302 301 303 305 308 310 311 313 314 314 313 315 313 312 309 306 307 309 309 308 308 308 307
314 314 313 313 313 314 314 315 315 314 313 312 312 312 311 309 309 308 308 306 305 300 299 302 305 307 308 310 313 313 313 312 310 309 308 306 303 301 302 302 303 303 303 302
315 316 315 315 316 316 315 316 315 316 314 312 312 313 312 311 309 308 308 307 305 301 300 300 303 306 307 309 311 311 310 309 307 307 304 301 299 295 295 296 295 294 295 294
314 314 316 315 316 315 316 314 315 316 316 316 312 318 314 313 312 310 309 306 304 300 300 301 302 305 306 309 311 308 308 307 306 304 303 301 297 293 291 292 291 290 290 290
315 315 315 316 315 314 315 314 315 315 314 315 315 314 315 314 316 315 311 308 304 300 300 301 302 304 305 305 306 306 306 305 303 303 302 299 295 292 290 289 289 289 288 288
313 312 313 314 311 313 312 314 313 313 314 317 316 316 318 317 317 316 311 305 301 300 299 300 301 303 302 302 303 303 303 300 299 299 297 297 294 290 288 288 288 288 288 287
313 313 313 312 313 312 313 314 318 320 317 321 315 316 319 316 313 313 310 305 301 300 298 298 297 297 298 298 299 301 300 298 299 298 296 296 292 290 289 289 288 287 287 287
317 317 313 312 314 314 313 315 318 320 321 319 311 317 317 313 310 307 308 306 302 300 299 297 296 295 295 296 297 297 297 296 296 296 295 294 291 290 289 289 288 288 288 287
316 317 312 310 314 314 313 316 316 319 301 311 316 314 313 310 308 308 306 304 301 299 298 295 294 294 294 294 294 295 294 294 294 294 293 291 291 290 289 289 289 288 287 285
317 322 312 309 312 312 313 312 316 314 316 317 318 317 320 313 311 306 305 303 301 299 296 294 293 293 293 293 293 293 293 293 293 292 292 291 290 290 290 289 288 287 286 285
315 321 313 310 312 314 313 314 314 315 314 317 317 320 312 315 312 307 306 304 301 299 297 295 294 292 293 292 292 292 292 292 291 291 291 290 290 290 290 289 287 286 285 285
314 319 313 313 309 309 313 314 313 318 316 314 315 322 308 311 310 306 305 304 302 300 297 295 294 291 291 291 290 290 290 290 290 290 290 290 289 289 288 287 286 286 286 286
316 318 319 317 313 310 312 313 315 315 311 319 317 321 306 308 309 305 304 303 302 300 297 295 293 291 291 290 289 289 289 290 290 289 289 289 288 288 287 287 286 286 286 285
316 317 320 323 321 314 312 311 313 316 318 318 319 319 312 309 309 306 303 302 300 300 298 295 294 293 291 290 289 288 289 289 289 289 289 288 288 288 287 287 286 286 286 286
317 320 316 318 317 314 313 312 313 315 316 319 319 318 316 312 307 306 303 301 300 300 298 296 295 293 292 290 289 289 289 289 289 288 288 288 288 287 287 286 286 286 285 285
314 318 317 319 316 316 318 314 312 313 314 315 316 317 313 312 311 305 304 303 302 301 299 298 296 294 292 290 289 288 288 288 288 288 288 288 287 287 287 286 286 285 285 285
315 316 318 323 316 317 321 319 319 318 313 313 315 315 311 311 310 305 303 303 303 302 300 299 296 295 293 291 290 289 288 288 288 288 288 288 287 287 286 286 286 285 285 285
313 317 317 322 318 323 318 314 317 319 319 315 311 311 308 310 308 304 302 303 303 302 300 299 297 296 293 292 291 289 288 289 288 288 288 288 287 287 286 286 286 286 285 285
315 315 319 321 323 318 317 308 313 317 318 316 317 315 313 306 305 304 301 301 303 301 300 299 298 296 294 292 291 290 289 289 288 288 287 287 287 287 287 286 286 286 285 284
308 314 317 316 322 324 312 303 302 310 318 310 313 315 314 303 310 312 300 299 299 298 299 298 298 297 295 293 291 290 288 288 288 288 288 288 288 287 287 287 286 286 285 285
310 312 315 318 321 314 303 297 299 315 313 295 298 302 301 307 308 303 298 299 297 297 298 298 298 296 295 294 293 290 289 288 288 289 288 288 288 288 287 287 286 286 285 285
311 311 312 313 316 318 301 300 310 304 297 298 301 299 299 297 295 295 294 293 293 294 294 295 294 294 294 294 293 290 290 291 291 290 289 288 288 287 287 286 286 285 285 284
311 309 309 311 312 297 295 298 296 296 296 298 300 297 294 293 294 292 291 291 290 291 291 293 293 292 293 294 295 293 294 292 291 290 290 289 288 287 287 286 285 284 283 283
301 299 309 308 303 297 294 297 294 294 293 292 294 296 292 292 290 290 288 288 287 287 287 290 290 289 290 292 292 293 292 291 290 290 289 288 287 287 286 285 285 284 282 281
301 300 302 300 295 295 296 295 297 294 291 290 290 292 292 290 289 288 286 285 285 286 287 289 289 288 289 290 290 290 289 289 289 289 288 287 286 285 284 283 283 282 282 281
294 299 303 305 299 301 300 296 295 296 292 290 290 290 288 288 288 287 286 285 286 286 287 287 286 286 286 286 286 286 285 285 286 286 285 285 284 283 282 281 280 278 277 277

GFSCGP_925_thetae_054.txt.gz
Theta_e
311 311 312 312 309 312 313 314 315 314 314 312 311 311 310 307 305 305 304 303 303 302 301 302 304 307 310 311 312 313 315 315 317 317 314 312 312 311 312 312 313 312 312 312
312 312 312 311 311 311 312 314 313 312 313 311 312 311 310 308 307 307 307 305 304 301 298 300 304 307 310 311 312 313 314 314 314 313 312 311 308 306 306 308 308 307 307 306
314 315 313 313 313 313 313 313 313 315 313 312 311 311 311 310 308 307 308 307 306 303 301 300 303 306 309 310 311 312 312 310 308 310 309 304 302 300 300 301 303 303 300 298
313 313 314 314 314 314 315 313 314 315 315 316 312 317 313 312 310 309 309 306 306 303 300 300 303 304 307 309 311 311 310 308 308 307 307 307 303 298 296 297 296 295 293 292
314 314 314 315 315 313 315 313 313 314 314 314 314 314 314 312 313 312 312 308 305 302 301 300 302 304 307 309 310 310 310 308 306 307 307 304 300 299 294 292 291 290 290 290
312 311 313 314 312 313 311 313 312 311 312 316 315 314 315 314 315 314 313 310 305 301 300 300 302 304 306 308 309 308 308 306 304 304 303 302 302 294 291 289 289 288 288 288
313 313 312 311 313 312 312 314 316 318 316 319 313 314 317 315 313 312 314 309 302 300 299 300 300 302 301 304 306 306 305 303 302 302 301 300 299 295 291 289 288 288 287 287
316 316 313 310 313 315 313 314 316 317 318 316 312 317 316 311 311 309 306 305 300 299 299 299 300 301 300 300 302 303 303 302 300 300 299 297 295 292 290 289 289 288 288 287
315 315 311 310 312 313 312 315 314 317 298 311 316 314 313 310 309 308 307 304 299 298 298 298 299 299 297 298 299 301 301 301 298 296 296 294 293 291 290 289 289 288 287 287
314 316 310 310 311 311 312 311 316 313 315 316 317 316 319 314 311 310 308 304 299 297 296 296 296 296 296 297 298 300 301 299 297 296 295 294 291 290 289 289 288 288 287 286
313 316 313 310 312 314 312 313 314 313 313 315 314 318 311 314 311 311 308 304 300 297 296 295 294 294 294 295 296 296 296 297 295 294 294 292 290 289 289 288 288 288 287 286
312 317 313 312 310 308 312 314 312 315 314 313 314 321 309 311 311 309 308 304 300 299 296 294 293 292 292 292 293 293 294 294 294 293 293 291 290 289 289 288 288 287 287 286
314 315 314 315 312 309 311 312 314 313 311 316 318 321 306 307 310 308 307 303 300 298 294 293 292 291 291 291 291 291 291 292 292 292 291 290 290 289 289 289 288 287 287 286
314 316 316 320 318 312 312 312 312 316 319 318 319 319 314 311 311 308 305 302 299 298 296 294 293 291 292 291 290 290 290 291 291 291 290 290 289 289 289 288 287 287 286 285
316 319 316 317 316 313 313 312 314 315 317 320 320 318 318 313 309 308 306 301 299 298 296 295 294 292 292 291 290 289 289 290 290 290 289 289 289 289 288 287 287 286 285 284
314 320 318 319 316 313 315 311 312 314 315 316 317 318 314 312 309 306 305 302 301 300 298 296 295 293 292 291 290 289 289 289 289 288 288 288 288 288 288 287 286 285 285 284
316 318 317 323 318 315 319 318 313 312 313 314 317 316 313 313 310 308 305 303 303 301 300 298 296 294 293 291 290 288 288 288 288 287 288 288 288 287 287 287 286 285 285 284
314 319 319 323 318 323 319 316 317 318 315 312 312 313 311 311 311 308 305 303 302 302 300 298 297 295 293 292 290 289 288 288 288 287 287 287 287 287 287 286 286 285 285 284
315 316 317 322 323 320 316 309 313 317 319 316 316 315 314 312 306 308 302 302 303 302 301 300 298 296 293 292 290 289 288 288 288 287 287 288 287 287 287 286 286 285 285 285
316 318 316 316 322 325 315 307 307 311 320 312 313 315 315 308 313 315 309 299 299 299 298 297 297 295 292 291 290 288 288 287 287 287 287 287 288 287 286 287 286 286 286 286
312 317 318 318 322 317 304 297 303 319 315 294 297 302 303 309 310 300 299 299 297 296 296 297 296 293 292 291 290 289 288 288 288 288 288 289 288 287 287 287 287 287 285 284
312 314 314 316 319 320 301 300 311 306 297 297 301 301 302 300 297 296 296 295 294 294 294 295 294 294 293 291 290 289 289 290 290 291 289 288 288 287 287 287 286 285 285 284
313 312 311 312 314 301 298 300 297 296 296 299 300 298 295 295 296 294 293 292 291 291 291 292 292 291 292 291 291 290 289 290 289 288 288 288 288 287 287 286 286 285 284 284
302 300 307 309 305 301 296 295 295 294 294 293 296 295 293 294 292 292 291 290 289 287 288 291 291 289 289 291 292 293 291 291 290 288 288 288 287 287 286 286 285 285 284 283
301 302 304 305 301 298 299 295 296 292 291 291 291 293 293 291 291 290 287 285 285 286 287 291 290 289 288 290 291 291 291 291 290 290 289 288 287 287 286 285 285 284 284 283
296 302 307 307 302 305 303 298 295 294 292 291 291 290 288 290 289 287 286 285 285 284 286 287 287 288 288 289 289 288 288 289 289 289 288 288 287 285 284 284 282 281 281 280

GFSCGP_925_thetae_057.txt.gz
Theta_e
310 310 312 311 308 311 311 312 313 313 313 312 310 310 311 307 305 304 304 303 303 303 303 303 303 304 306 309 311 312 313 314 316 318 318 317 318 317 318 318 319 320 319 318
311 311 310 310 310 310 312 313 312 311 310 311 311 310 309 308 306 307 307 306 304 303 299 300 302 304 306 309 311 312 313 314 316 317 315 315 314 312 313 314 315 315 314 313
312 313 311 311 311 312 311 311 312 313 312 309 310 311 310 309 307 306 306 307 306 305 302 299 300 303 306 309 311 311 312 313 314 311 312 312 308 307 306 306 309 310 309 308
312 312 313 312 313 312 313 311 312 313 315 315 311 316 313 311 310 308 308 307 307 305 302 300 300 302 305 308 310 311 312 311 311 312 310 312 308 302 302 304 304 303 301 300
313 312 313 314 313 312 314 312 312 313 313 314 313 314 314 311 311 311 311 309 308 306 302 300 300 303 304 307 310 311 311 308 310 310 310 308 303 303 303 301 299 295 293 292
310 310 312 313 312 312 310 312 311 310 311 315 315 314 315 313 313 312 311 310 307 303 300 300 301 303 304 307 309 309 308 308 308 307 306 305 305 302 297 296 293 290 290 290
312 312 311 310 313 311 312 314 316 315 314 318 310 312 316 312 311 311 312 310 307 302 298 298 299 302 302 305 307 307 306 305 306 304 304 304 303 302 301 297 292 289 288 288
313 312 312 310 314 314 313 313 315 314 315 313 311 316 315 310 310 308 307 307 305 300 297 298 299 302 302 303 305 305 304 304 303 303 304 303 302 299 298 294 292 289 289 289
313 313 311 310 311 313 312 314 313 315 298 310 313 312 311 310 309 308 307 306 302 300 297 297 298 301 301 302 304 304 303 303 302 302 302 301 299 297 295 291 290 289 289 288
312 314 310 310 311 310 311 310 315 311 313 312 314 314 316 315 312 310 309 307 302 298 296 296 297 300 300 301 303 302 302 302 302 301 301 300 298 295 294 290 289 289 288 287
312 313 311 310 311 312 312 313 312 312 311 313 312 316 310 314 312 312 309 307 303 299 296 295 296 297 298 299 300 301 301 300 300 299 299 298 296 294 292 290 289 288 287 287
311 314 312 311 309 308 311 312 312 314 312 311 312 317 310 310 310 309 309 307 302 299 295 294 294 294 295 295 297 298 298 298 301 300 297 296 294 291 290 289 288 288 287 286
312 314 311 314 312 308 310 311 312 312 309 313 315 318 306 307 307 306 307 307 301 298 294 293 291 292 292 293 294 295 296 296 298 299 295 293 291 290 289 288 288 287 286 286
314 316 314 319 316 312 311 311 311 314 317 316 317 318 315 312 309 308 307 304 301 297 295 293 292 292 292 292 292 293 293 295 295 294 293 292 291 290 289 288 288 287 286 286
315 316 316 316 313 312 311 311 312 314 315 317 317 316 317 314 309 310 307 304 300 298 295 294 293 292 292 292 291 292 292 292 293 292 291 290 290 289 288 288 287 286 285 285
315 318 315 317 315 314 315 311 312 313 315 315 316 316 314 313 309 309 307 305 302 300 298 296 294 293 292 292 291 290 290 291 291 290 289 289 289 288 288 288 287 286 285 285
315 317 319 322 318 317 319 316 316 313 314 315 316 316 313 314 311 310 309 304 303 302 301 298 295 294 293 292 291 290 290 289 289 289 289 288 288 288 288 288 287 286 285 284
314 317 317 322 318 323 319 316 315 316 314 312 313 314 313 312 311 309 307 307 304 303 301 298 296 295 294 292 291 290 289 289 289 288 288 288 288 288 287 287 286 285 285 284
317 316 320 322 322 320 317 313 314 316 318 315 312 312 312 310 307 310 303 304 306 302 302 300 299 297 294 292 291 290 288 288 288 287 287 287 288 287 287 286 286 285 284 284
313 317 316 316 322 323 316 310 308 312 320 316 313 314 314 311 314 316 310 302 300 299 300 299 299 297 294 292 290 288 287 287 287 287 287 288 288 287 287 286 285 285 285 286
310 315 319 319 321 318 306 298 307 320 316 297 305 312 311 310 311 301 298 300 296 296 297 297 296 293 292 291 289 287 287 287 288 288 288 287 287 287 286 286 286 286 287 284
313 316 318 318 320 321 301 303 314 307 298 297 301 302 303 302 300 298 296 295 295 294 293 293 291 290 290 290 289 287 287 288 288 288 287 287 287 286 286 287 290 289 286 285
312 310 310 313 314 309 300 304 300 297 298 300 300 299 298 298 298 295 294 293 292 291 291 292 291 289 289 289 289 288 288 288 288 288 288 288 289 289 290 290 289 285 285 284
302 302 307 309 307 304 299 295 295 294 295 294 296 296 294 296 294 294 292 291 289 286 287 290 290 287 287 289 289 290 289 290 291 290 290 289 288 287 286 285 285 284 284 283
299 300 302 304 304 301 299 295 296 293 292 291 292 293 293 292 292 292 288 285 284 285 288 290 288 286 286 289 290 290 290 289 288 288 287 286 286 286 285 285 285 285 284 284
298 302 307 306 300 303 302 298 295 292 292 291 292 291 289 291 290 288 287 285 284 284 286 287 286 286 285 287 288 288 289 289 289 288 286 286 285 285 285 284 282 282 281 281

GFSCGP_925_thetae_060.txt.gz
Theta_e
308 309 311 310 308 310 308 311 312 311 311 311 310 309 309 308 304 305 304 303 303 303 305 305 306 306 305 305 307 309 312 314 314 316 317 321 323 324 325 325 326 326 326 322
309 310 309 309 308 310 311 313 312 310 310 310 310 310 309 307 306 306 307 306 304 304 301 301 304 304 304 305 307 309 311 312 313 315 315 319 320 318 321 320 321 322 322 321
311 312 309 310 310 311 310 310 310 312 311 308 309 310 308 308 307 306 305 306 305 306 305 300 299 302 303 304 306 309 310 311 312 314 314 316 315 313 313 313 314 315 318 317
310 310 312 311 312 311 312 309 310 312 313 313 310 314 311 310 309 307 308 305 306 305 303 301 300 300 302 304 305 308 311 310 312 313 313 315 314 307 310 312 312 312 313 312
311 311 312 313 312 310 312 309 310 312 311 312 310 314 313 310 311 311 310 308 306 305 303 301 300 301 302 303 305 308 310 310 310 312 313 312 310 310 311 308 308 308 307 307
310 309 310 312 311 310 309 311 310 309 310 315 311 312 312 310 312 311 311 308 306 304 301 299 300 301 302 303 305 307 309 309 309 311 310 309 309 308 305 302 302 301 302 302
312 311 310 310 312 310 311 313 314 312 312 316 310 312 314 310 309 309 310 309 307 305 301 298 297 299 301 303 304 306 308 305 307 308 308 307 308 308 308 305 301 297 295 294
312 311 311 309 312 313 311 313 314 310 311 310 310 315 313 309 308 307 306 306 306 303 300 298 297 299 301 302 303 305 307 304 305 307 306 306 307 305 303 302 302 301 296 292
310 310 310 309 310 311 311 314 311 312 296 308 310 308 309 308 309 308 307 306 305 302 300 297 296 300 301 302 303 305 305 303 305 306 304 303 303 302 302 301 297 295 294 291
310 312 310 310 310 309 310 309 313 310 312 310 312 312 313 312 312 309 309 307 304 302 300 296 296 299 301 302 303 305 305 303 304 305 303 302 301 301 300 299 297 295 291 289
310 311 311 310 310 311 311 312 311 311 310 310 310 314 308 310 310 311 310 308 306 303 299 296 295 298 300 301 302 304 304 302 303 303 301 300 299 299 299 299 295 293 289 288
309 312 311 311 308 307 310 311 311 313 311 308 310 316 309 309 309 308 309 308 306 303 299 295 295 297 297 299 300 301 301 301 304 302 299 298 300 299 297 294 293 290 288 287
311 314 309 314 312 308 310 310 311 310 308 311 314 316 306 307 309 308 307 307 303 301 297 294 293 293 294 295 296 297 299 300 302 299 297 295 297 297 295 292 291 288 287 287
314 316 317 319 315 311 311 310 310 313 315 315 314 315 313 312 310 308 306 304 303 300 297 294 292 292 293 294 295 295 296 298 299 298 296 295 295 295 293 293 290 288 287 287
316 316 316 315 314 311 311 311 311 313 314 315 315 314 314 312 310 310 308 306 304 301 297 295 294 292 292 293 293 294 295 295 296 295 294 293 296 294 292 290 289 287 286 286
315 317 315 317 315 315 315 311 311 312 313 313 314 314 313 310 309 308 308 309 306 302 300 298 295 293 292 293 293 293 293 293 294 293 293 292 292 290 289 288 287 286 285 285
315 316 316 321 315 314 317 315 315 312 312 313 315 314 313 312 310 312 309 306 305 304 303 300 297 295 294 293 293 292 292 292 292 292 292 292 291 289 288 287 286 286 286 285
313 316 317 321 315 322 317 314 315 316 314 312 312 313 313 313 311 309 310 308 305 305 303 300 298 297 295 294 293 292 292 291 290 290 290 290 289 288 287 286 285 285 284 285
310 313 318 321 321 318 315 311 312 315 316 314 314 313 313 312 308 309 307 305 307 305 302 302 302 300 297 295 293 292 290 289 289 289 288 288 288 287 286 285 284 284 284 284
310 311 314 316 322 322 315 308 308 311 319 313 312 314 313 310 312 313 306 303 301 299 299 299 300 299 296 293 292 290 288 288 288 288 287 288 288 287 286 285 285 284 284 284
311 311 315 318 321 318 305 299 308 319 315 298 300 309 309 308 311 303 299 300 295 295 295 296 295 294 293 292 291 288 287 287 287 288 288 287 287 287 286 285 285 285 284 284
313 316 317 317 319 321 301 304 312 308 300 298 301 303 303 302 301 298 296 295 293 294 292 291 290 289 290 290 290 287 286 287 288 288 287 287 287 286 286 286 285 285 285 284
309 311 313 314 313 309 300 306 303 299 301 299 300 300 299 298 299 297 295 293 291 291 290 290 288 287 287 288 290 287 287 287 287 287 287 287 286 286 286 286 286 285 285 284
303 302 306 307 306 307 303 298 296 295 297 295 296 297 295 297 296 295 293 291 289 285 286 288 287 285 286 288 288 289 288 288 288 287 287 287 287 286 286 286 286 286 287 287
303 302 303 304 303 302 300 296 296 295 293 292 293 294 294 294 294 293 289 286 284 284 286 287 286 284 284 287 288 288 288 288 288 288 288 287 288 287 287 287 287 287 287 287
298 302 305 306 303 303 302 295 295 295 294 292 292 292 290 290 291 289 286 285 285 284 285 285 283 282 282 284 285 286 287 289 289 288 287 287 287 286 287 286 283 283 284 283

GFSCGP_925_thetae_063.txt.gz
Theta_e
307 309 311 310 308 308 308 310 311 309 309 311 310 309 310 308 306 306 306 306 305 305 306 306 308 308 308 307 307 308 308 310 312 312 316 319 321 322 324 329 330 330 330 330
308 310 309 308 307 310 310 311 311 309 309 310 310 311 310 308 310 310 310 309 307 307 304 303 305 306 306 306 306 307 308 310 312 312 316 317 319 320 324 323 324 324 328 327
309 310 307 309 309 309 309 310 310 312 310 308 308 310 309 308 308 308 307 308 307 307 308 304 301 303 303 304 306 306 307 309 312 313 315 316 316 317 318 318 322 323 323 324
309 309 310 310 310 310 311 308 309 311 312 312 309 312 310 308 309 307 308 307 307 307 305 304 301 301 302 304 305 305 307 309 311 312 313 315 315 313 315 318 320 321 320 320
310 310 311 311 310 309 311 307 309 310 311 311 311 313 311 309 310 310 310 309 307 306 305 304 301 302 304 302 303 304 306 308 310 311 312 313 313 314 317 316 315 314 315 314
309 308 309 310 309 309 307 309 309 307 309 314 311 312 311 309 311 310 309 308 307 305 303 301 302 302 302 302 303 304 305 308 309 311 311 312 312 311 314 311 310 310 310 310
311 311 310 309 310 309 310 312 312 311 313 316 308 311 312 309 308 308 310 310 306 305 304 302 299 298 299 301 302 303 304 306 308 309 310 310 311 311 313 313 310 307 306 306
311 311 310 309 310 312 310 311 312 309 309 308 309 313 312 308 307 306 305 305 305 305 303 302 299 298 299 301 302 303 304 305 305 307 308 308 310 310 309 310 310 309 310 310
309 309 309 308 310 310 311 313 310 310 295 308 308 307 307 306 307 306 308 306 304 304 303 301 299 298 300 301 302 303 304 305 303 306 306 307 308 307 307 306 307 306 305 305
309 310 309 309 309 309 309 309 313 309 311 309 310 309 311 312 311 309 308 307 305 303 302 300 297 298 299 301 302 303 304 305 302 305 305 307 307 305 305 305 305 303 303 299
309 310 309 309 310 310 311 312 310 309 309 310 309 312 306 309 309 308 307 307 306 304 303 301 297 298 299 300 301 302 303 304 302 303 303 305 305 303 302 302 302 302 300 296
309 311 310 310 308 306 308 310 310 311 310 308 309 315 307 308 310 308 307 308 307 305 302 299 296 297 298 299 301 302 303 303 302 303 303 303 305 301 299 299 299 299 298 293
310 313 307 313 311 308 308 308 310 308 308 310 314 316 306 307 308 307 307 306 304 303 301 297 295 295 296 297 299 300 301 301 301 301 302 302 304 300 298 297 297 296 295 291
312 313 314 319 313 310 310 308 308 312 312 314 312 314 312 311 311 308 307 305 304 303 300 298 296 294 295 296 297 298 299 300 300 300 299 299 299 298 298 297 297 296 294 290
315 319 316 315 314 311 311 311 311 313 313 314 314 313 313 311 309 310 309 305 305 304 301 298 297 295 294 294 295 296 297 298 299 298 297 298 299 298 296 295 295 293 291 288
314 319 317 318 316 317 316 311 310 311 313 313 313 313 313 312 308 307 307 309 309 306 303 302 300 296 294 294 294 295 295 295 296 296 296 296 297 295 294 292 291 291 289 287
312 317 316 320 316 317 317 317 316 314 311 313 314 313 312 312 310 310 308 306 307 306 306 304 301 298 297 296 296 294 294 294 294 294 294 294 293 292 291 291 290 288 287 286
310 310 312 320 316 320 317 314 314 316 315 313 313 314 314 313 310 308 308 308 307 305 305 304 302 300 300 300 297 295 294 293 292 292 292 292 292 291 289 288 288 286 285 284
310 310 314 318 321 318 315 311 311 313 315 313 313 313 312 312 309 310 309 305 308 307 304 303 304 303 302 300 297 294 293 291 290 290 290 290 290 289 288 286 285 284 283 283
310 311 313 316 317 317 313 310 307 310 318 312 312 312 312 309 312 313 306 304 303 299 298 297 299 299 299 298 295 293 290 289 288 289 289 289 289 289 288 287 285 284 283 282
307 311 313 316 317 317 311 303 306 318 314 298 300 309 307 308 311 305 300 301 297 295 295 295 295 295 295 294 292 290 288 288 288 289 289 289 288 288 288 286 284 283 283 283
310 312 313 314 315 316 307 305 315 312 301 300 302 304 304 303 302 301 298 296 294 293 293 292 291 289 290 290 290 288 287 288 288 288 288 288 287 287 286 285 284 283 283 283
305 307 307 313 313 309 302 308 303 298 299 300 300 300 299 298 298 298 296 294 291 289 289 288 288 286 287 288 290 287 287 287 287 287 287 286 286 286 285 285 284 283 284 283
302 301 304 304 302 303 303 302 298 299 299 296 295 296 296 296 295 296 293 291 289 285 285 285 285 284 285 287 288 288 287 287 287 286 286 285 285 285 285 285 285 285 285 284
297 301 300 303 304 303 303 299 297 297 295 293 293 294 293 293 294 293 289 286 285 285 285 285 284 282 282 285 286 286 286 287 286 286 286 286 286 286 285 285 285 285 286 287
295 300 304 306 300 302 303 296 295 295 295 293 292 292 288 289 291 288 286 285 285 284 284 282 281 280 280 282 284 286 287 288 287 287 286 287 286 286 286 286 285 286 286 286

GFSCGP_925_thetae_066.txt.gz
Theta_e
312 316 317 316 316 313 314 315 315 315 313 315 316 317 316 316 316 316 316 316 316 316 315 313 311 310 310 311 311 311 311 312 314 315 315 314 314 317 325 328 328 332 332 332
314 315 316 313 312 313 314 316 316 315 312 313 316 316 316 316 316 316 317 317 317 317 317 313 311 309 308 309 309 310 311 312 313 314 314 314 315 315 321 324 325 327 328 331
314 314 312 313 312 314 315 316 315 315 313 313 314 316 317 316 315 315 315 316 316 316 316 315 312 310 309 308 309 309 310 311 313 313 314 311 310 315 319 322 323 324 327 327
314 312 312 313 313 314 315 313 314 314 315 316 313 314 315 315 315 314 315 316 316 316 315 314 314 310 308 308 308 308 309 310 312 313 312 311 313 314 317 319 321 322 322 324
314 313 313 314 314 313 315 312 313 314 316 316 315 315 314 312 314 315 316 316 317 316 315 314 313 310 309 308 308 308 308 309 311 312 311 312 314 315 313 316 319 321 317 321
312 309 312 314 310 312 311 314 314 314 316 317 314 315 314 315 315 315 315 315 315 315 313 312 310 308 308 306 306 307 308 309 310 310 311 312 314 311 313 314 315 317 317 317
313 313 311 311 313 311 314 316 316 318 320 319 313 315 315 315 313 313 315 315 314 312 313 312 310 307 305 305 305 306 307 308 309 309 310 311 312 310 312 314 314 314 312 312
313 313 313 312 314 315 315 316 316 324 317 314 311 315 315 315 313 313 312 313 313 310 312 312 311 308 306 304 305 306 306 307 308 308 308 309 311 309 309 312 311 313 313 312
312 313 310 310 311 313 314 315 314 315 308 314 313 315 315 313 312 311 312 313 314 313 312 312 310 307 305 305 305 306 306 306 308 307 307 308 308 306 307 309 307 306 306 307
312 313 311 310 310 310 312 313 315 314 322 319 314 314 315 316 316 314 314 314 313 312 312 311 309 306 304 304 304 305 306 306 306 305 306 307 306 306 306 309 308 306 304 308
313 312 312 311 313 314 313 314 313 313 316 320 317 314 314 315 315 314 314 312 313 312 311 311 308 305 303 303 304 305 305 306 305 304 305 304 303 303 305 307 308 307 307 308
312 314 316 313 310 309 311 314 314 316 317 315 315 317 311 313 314 313 314 311 311 309 310 309 307 304 303 303 303 304 305 305 305 303 304 303 302 301 303 303 304 303 303 304
312 316 320 319 313 309 312 312 312 314 313 321 321 318 311 311 312 311 313 313 311 309 309 307 305 304 304 303 303 303 304 304 304 302 302 302 301 299 299 300 302 301 300 300
313 316 319 323 319 315 314 313 313 314 317 317 317 316 315 314 314 313 313 313 311 311 310 309 307 306 304 303 302 302 303 303 302 301 301 300 300 298 297 301 300 299 298 298
314 316 317 318 318 316 316 316 314 314 315 317 316 316 316 315 314 314 314 314 313 313 311 310 309 308 305 302 301 300 301 301 301 300 300 300 298 298 297 299 298 296 295 294
313 316 317 318 318 318 317 315 314 314 314 314 315 315 315 314 314 314 313 314 314 314 314 313 308 307 304 302 301 300 300 300 299 299 299 299 297 297 297 296 295 294 293 292
309 312 316 319 317 318 319 318 318 316 316 316 318 317 317 316 315 314 314 313 313 313 312 312 311 309 307 305 304 301 300 299 297 297 297 297 296 295 294 294 294 292 290 290
310 310 312 314 314 317 318 316 316 318 318 317 316 315 316 316 316 314 314 314 313 312 310 310 310 310 309 305 303 301 299 297 295 295 295 295 294 293 293 291 291 289 288 288
310 310 312 313 315 315 313 313 315 317 318 316 317 317 316 315 313 314 313 312 312 312 311 309 307 305 303 302 301 298 296 295 294 293 294 293 293 292 291 289 288 287 286 285
307 309 311 314 314 316 311 310 308 312 319 316 316 316 316 315 316 315 311 308 307 304 301 299 298 298 299 299 297 295 293 292 292 292 292 292 291 291 290 289 288 287 286 284
308 308 311 310 312 314 312 307 307 318 320 305 306 312 312 314 314 313 303 304 300 298 297 296 295 294 293 293 293 292 291 290 291 291 291 290 290 290 289 288 286 285 284 283
308 311 313 313 313 316 308 306 316 311 307 309 306 304 305 306 305 305 302 301 299 296 294 292 291 289 289 290 290 290 289 289 289 289 289 288 288 287 287 286 285 284 283 282
305 306 306 306 306 306 305 307 306 301 301 302 302 303 300 301 301 300 299 297 295 292 290 287 288 287 287 288 289 288 287 287 287 287 287 286 286 286 285 285 284 283 283 282
302 301 303 304 302 306 304 303 301 300 299 297 297 296 296 297 298 295 295 293 291 288 287 286 286 285 284 285 287 287 286 286 287 286 285 285 285 285 284 284 284 284 283 284
302 303 304 305 304 305 304 303 302 301 300 299 297 293 294 293 294 294 292 289 288 287 285 285 284 282 281 284 285 285 285 286 286 286 285 285 285 285 285 284 284 284 284 285
299 300 301 301 300 302 301 300 298 299 299 298 295 293 291 290 292 290 288 287 287 285 284 282 280 279 279 281 283 285 287 287 286 286 286 286 285 285 284 284 284 285 286 286

GFSCGP_925_thetae_069.txt.gz
Theta_e
316 315 315 315 315 316 316 316 316 316 315 316 316 316 316 317 317 317 317 317 317 317 318 318 316 315 317 320 323 325 325 324 324 323 322 322 323 325 326 328 328 329 333 331
316 316 316 316 317 316 316 316 316 316 316 315 316 316 316 317 317 317 317 317 317 318 318 318 317 315 314 316 319 319 319 319 319 319 318 318 318 318 319 319 325 328 330 330
316 315 315 315 315 316 316 316 315 316 316 315 316 317 317 317 317 317 317 317 317 318 318 318 319 316 314 314 315 316 315 315 315 316 317 316 316 316 315 315 319 326 328 328
315 314 314 315 315 315 314 315 315 315 316 315 316 315 315 315 316 317 318 317 317 318 318 317 318 318 315 314 313 313 314 314 314 315 316 316 316 315 313 312 314 323 325 325
314 315 315 315 314 314 315 315 315 316 317 317 317 317 315 315 316 316 316 319 318 319 319 318 317 316 316 314 313 313 312 313 313 315 315 316 314 313 315 316 313 320 323 323
315 312 314 315 313 314 314 316 316 317 316 316 315 315 315 316 315 316 316 317 317 317 317 316 315 315 314 313 312 312 311 312 312 313 315 315 314 314 317 315 311 316 320 319
314 314 314 313 314 313 315 316 315 317 321 318 315 316 316 316 315 316 316 316 316 316 315 316 315 312 311 311 310 311 311 311 311 312 313 314 313 314 316 314 311 313 316 316
314 314 314 313 315 315 316 316 317 322 319 318 314 317 315 316 316 316 315 316 316 316 315 315 315 314 312 310 309 310 309 310 310 311 312 313 313 314 315 312 311 312 317 316
314 314 313 313 313 314 315 316 316 318 319 316 315 316 316 317 315 315 315 315 315 316 317 315 315 314 312 309 309 309 309 309 310 310 311 311 311 312 314 312 310 309 315 315
314 315 313 312 312 313 313 314 316 315 323 321 316 317 316 317 316 316 316 315 316 316 316 315 314 312 310 309 309 308 309 309 309 309 310 310 310 311 312 310 310 309 311 312
313 313 314 312 314 314 313 313 314 314 316 320 320 317 315 316 317 316 318 317 315 315 315 315 314 311 309 308 308 308 308 308 308 308 309 308 309 309 309 309 308 307 309 308
314 314 318 315 313 313 314 314 314 317 317 315 317 318 315 315 317 316 316 316 315 312 312 312 312 310 308 307 307 307 308 308 308 308 307 307 308 308 307 307 305 304 307 307
314 315 320 318 316 312 313 314 314 315 315 323 322 317 314 315 315 315 314 316 316 314 314 312 310 309 309 308 308 307 307 307 307 307 306 306 307 305 304 304 302 302 305 306
312 316 319 321 319 317 315 314 314 314 317 317 318 317 316 316 316 316 315 316 316 315 315 314 313 312 310 309 308 307 307 307 306 306 306 305 305 305 303 303 301 301 304 304
310 316 316 317 317 317 319 319 317 315 315 317 317 317 316 316 316 316 316 315 315 315 314 315 314 314 313 310 307 306 306 306 306 305 305 304 304 304 303 302 300 298 300 302
311 315 314 316 315 315 318 319 318 318 318 317 316 317 316 316 316 316 315 315 315 315 314 314 314 314 311 311 308 307 306 305 304 305 304 303 303 302 301 299 297 297 298 298
309 312 315 317 315 313 316 317 318 318 318 317 318 316 316 316 316 317 317 317 316 315 315 314 314 313 312 310 307 307 306 305 303 303 302 302 301 300 298 297 295 295 295 295
308 309 311 313 313 315 315 313 315 317 317 317 317 316 316 316 316 316 316 317 316 315 314 314 313 313 311 308 307 305 304 303 302 301 300 300 299 298 297 295 294 293 293 293
306 308 309 310 310 310 309 310 311 311 312 314 317 317 317 316 316 317 316 316 315 314 313 308 306 304 303 303 302 301 299 298 298 298 297 297 297 296 294 293 292 291 291 290
307 308 309 310 312 310 307 308 309 311 314 310 311 311 312 314 318 318 310 308 308 306 304 302 301 299 299 298 296 295 296 296 295 295 295 295 295 294 293 292 291 290 289 288
307 307 309 311 311 310 311 309 309 313 312 305 305 307 308 310 311 308 306 306 305 302 299 298 297 295 293 291 292 292 293 292 293 292 293 293 293 292 292 291 290 288 287 286
303 305 307 309 309 310 306 307 312 307 305 304 304 305 304 304 302 303 303 302 300 298 295 293 292 291 289 289 290 291 290 290 289 290 290 290 290 290 289 289 287 287 285 284
302 302 304 307 309 307 305 306 306 305 305 305 303 303 302 301 299 299 299 298 297 294 291 289 288 288 287 287 288 289 287 287 287 288 287 287 287 287 287 287 285 284 284 283
301 301 302 302 301 301 302 303 305 304 303 303 302 301 300 299 298 296 295 294 293 291 288 287 287 286 285 285 285 286 286 286 286 286 286 286 286 285 285 285 285 284 284 284
301 301 302 302 302 302 304 305 305 304 302 301 301 299 298 297 295 295 294 292 290 289 287 286 285 284 283 284 284 286 285 286 286 286 286 286 286 286 285 285 285 285 285 285
299 299 300 301 300 300 300 301 303 301 302 301 299 298 294 293 293 293 292 289 288 287 285 283 282 282 281 283 284 286 286 286 286 286 286 286 286 286 285 285 285 285 285 285

GFSCGP_925_thetae_072.txt.gz
Theta_e
315 313 313 314 313 314 315 315 314 314 315 316 315 314 313 312 312 312 311 311 312 312 313 317 316 316 318 323 326 331 332 331 329 329 329 330 330 330 331 330 332 332 333 333
315 314 314 314 316 316 316 315 314 313 314 315 314 313 312 312 312 312 312 312 311 312 311 313 317 316 316 319 323 328 330 330 327 327 327 327 328 328 329 328 329 330 330 330
317 315 315 316 316 316 315 314 313 314 315 313 313 314 314 314 313 312 312 312 312 312 311 312 313 316 315 316 320 325 327 327 326 325 325 324 324 323 324 325 326 327 326 327
315 315 314 315 315 314 314 314 313 315 314 313 315 313 313 311 311 313 313 312 311 312 312 312 313 315 315 315 316 319 322 324 324 323 322 320 319 317 317 318 318 318 321 323
314 314 314 315 315 313 314 314 315 315 315 315 315 314 312 310 312 312 312 312 312 312 313 314 311 315 316 315 314 315 318 318 318 318 318 317 316 316 316 315 315 315 312 319
314 312 314 315 313 314 314 315 316 316 314 313 312 313 311 311 313 314 314 315 315 315 313 314 315 315 315 316 315 314 314 315 315 315 316 316 316 316 316 314 313 313 310 314
314 313 313 313 314 314 315 315 313 317 316 316 313 312 311 313 312 313 313 311 312 314 313 313 312 311 313 313 314 313 313 313 313 314 314 316 316 316 314 314 316 314 310 311
312 313 314 312 313 314 314 313 315 314 318 314 311 312 312 313 314 313 313 311 310 312 310 310 312 312 311 311 312 312 312 312 312 312 313 315 315 316 314 314 316 315 313 311
313 313 312 312 312 313 315 314 313 314 306 312 313 312 311 312 312 312 311 310 309 310 311 312 310 312 313 311 310 310 310 311 311 311 312 313 314 315 314 314 315 314 313 312
314 315 313 311 312 312 313 312 315 313 314 313 313 312 312 312 312 311 312 313 312 311 311 310 310 311 311 310 309 309 309 309 309 310 311 312 312 313 312 313 314 313 312 311
313 314 313 312 312 312 312 312 313 313 313 314 313 312 313 313 315 315 314 314 312 312 310 309 308 309 309 308 309 309 309 309 309 309 310 310 311 311 311 312 313 312 311 310
314 315 313 313 312 310 312 311 312 313 313 311 312 314 313 312 313 314 313 313 313 311 310 308 308 308 308 308 308 308 308 308 308 309 309 309 310 309 309 310 311 310 310 309
314 315 312 315 314 311 312 312 313 312 311 314 315 314 310 312 313 314 314 314 311 312 310 309 307 306 307 308 308 308 308 308 308 308 308 308 308 308 308 309 309 308 308 307
314 316 315 316 318 317 317 316 313 313 316 314 314 313 313 312 311 311 310 310 310 309 310 309 308 306 309 310 309 309 309 308 308 308 308 308 307 307 307 307 307 307 305 305
311 316 315 315 315 315 316 318 319 321 318 315 314 313 313 312 311 312 312 310 310 310 310 309 309 308 310 310 310 309 308 308 307 307 307 307 307 306 306 306 305 304 303 302
311 312 313 310 311 312 313 313 315 316 318 319 318 316 313 313 312 312 312 312 312 312 312 310 309 309 309 311 311 310 310 309 307 306 306 306 306 305 305 305 304 303 301 300
309 312 313 310 310 310 313 312 313 313 313 315 317 315 314 314 313 313 312 312 313 313 313 311 310 309 310 310 309 309 308 307 306 305 305 305 305 304 304 303 302 301 299 298
305 307 309 305 302 308 308 308 311 314 314 313 314 315 314 314 312 313 312 312 312 311 309 307 305 304 304 303 303 303 304 303 303 303 304 303 303 303 302 302 301 299 297 295
306 305 303 298 296 301 302 302 303 306 306 307 311 310 308 307 307 310 306 305 306 305 303 302 302 301 300 300 298 297 298 298 299 299 300 300 300 300 300 299 297 296 294 292
302 304 305 298 302 297 303 305 307 307 309 305 306 306 306 306 308 310 303 302 302 302 300 298 297 297 296 294 293 293 294 294 295 296 296 296 296 297 297 296 295 293 292 291
304 303 304 304 305 304 303 304 307 308 304 299 301 303 304 305 306 305 302 301 300 299 298 296 294 293 292 290 291 291 291 292 292 292 292 293 294 294 294 293 292 291 290 289
302 302 301 306 306 305 304 305 309 303 301 301 301 303 302 303 303 302 300 299 297 295 295 293 290 290 289 288 288 290 289 289 289 290 291 291 291 291 291 291 289 288 288 286
298 297 296 299 298 305 304 303 302 304 302 300 302 301 302 302 301 299 299 296 294 294 292 290 288 287 287 287 287 288 287 287 288 288 288 288 288 289 289 288 287 285 285 284
298 298 297 297 298 298 298 298 299 302 302 301 299 299 300 299 298 296 295 293 292 291 290 287 287 286 285 285 285 285 286 286 287 287 286 286 286 286 286 286 285 285 284 283
295 295 295 296 298 297 298 297 298 300 300 298 297 298 298 298 296 294 293 291 289 289 288 286 284 284 283 284 285 286 286 286 286 286 286 285 285 285 285 285 285 285 284 284
294 296 296 297 296 297 297 296 297 299 298 296 296 296 295 294 293 291 289 290 288 288 286 285 283 282 282 283 284 285 286 286 286 285 285 285 285 285 285 285 285 285 285 285

GFSCGP_925_thetae_075.txt.gz
Theta_e
313 310 310 310 309 310 313 313 313 312 313 313 312 311 310 310 308 306 306 307 307 308 311 313 314 315 317 321 326 330 334 335 336 336 336 336 335 333 334 333 333 334 334 333
311 310 310 310 311 312 313 314 313 311 313 313 312 311 309 309 310 310 309 306 306 307 308 310 313 314 315 317 323 328 332 334 334 335 334 333 331 331 333 333 333 333 334 334
313 313 311 313 314 314 314 313 313 312 312 311 311 309 310 310 310 309 308 307 308 308 308 307 308 312 314 315 319 325 329 332 333 333 331 330 329 329 330 331 331 331 329 332
313 313 313 313 313 313 314 312 312 312 312 311 310 310 310 311 310 309 309 308 308 307 307 307 308 310 312 314 316 321 324 328 331 331 329 328 327 326 327 327 329 329 329 328
313 312 311 313 313 311 312 313 313 314 313 313 312 311 309 308 309 308 308 307 307 306 307 308 309 311 313 314 314 316 321 326 329 330 328 326 325 324 324 324 324 328 328 327
311 311 313 312 311 311 311 313 313 311 310 310 310 310 308 309 310 310 312 311 311 312 311 311 313 314 314 314 313 314 318 323 326 326 326 325 322 321 319 319 318 319 321 322
313 312 312 312 311 312 312 309 310 312 312 310 309 309 309 308 309 311 312 310 309 311 309 309 311 310 311 313 313 314 315 317 320 321 323 323 322 320 319 318 316 315 315 315
312 312 312 311 311 312 312 310 310 310 315 312 309 311 311 309 311 310 311 308 306 306 306 307 306 309 311 310 312 313 313 313 314 316 316 316 317 317 316 316 316 315 314 314
309 310 311 310 311 310 312 313 310 311 300 309 310 309 309 309 309 308 307 308 309 308 308 308 307 309 310 311 310 311 312 312 312 312 313 314 314 315 315 315 315 314 314 314
311 313 311 310 311 310 311 310 313 310 309 310 310 309 311 310 310 313 312 311 309 309 308 306 307 309 309 310 310 309 309 310 310 311 311 311 312 313 314 315 315 314 314 314
310 312 312 310 311 311 311 312 312 311 311 310 310 309 306 309 311 313 313 311 312 311 309 307 307 308 309 309 309 309 309 309 309 309 310 310 311 311 312 313 314 314 313 313
312 312 310 311 309 309 310 310 311 312 311 309 311 313 309 309 311 309 311 312 312 311 307 305 306 307 308 308 308 309 309 309 309 309 309 309 310 310 311 311 312 311 312 312
313 311 305 311 311 310 311 311 311 311 308 312 310 313 309 308 307 307 309 308 308 307 307 306 305 305 306 307 309 309 309 310 310 309 309 309 309 309 310 310 310 310 310 311
314 314 310 311 316 315 316 315 316 315 309 312 312 312 312 310 309 308 307 309 309 307 306 306 305 305 308 309 308 309 309 310 310 309 309 309 309 309 309 308 308 308 309 309
314 316 314 314 314 314 317 316 316 317 317 320 314 313 312 311 310 309 308 308 308 308 308 308 307 306 309 309 310 310 310 309 309 308 308 308 308 308 307 307 307 307 307 308
310 307 312 311 311 312 311 310 311 314 315 315 315 316 314 313 312 310 310 309 310 311 310 308 307 306 306 307 307 307 307 307 307 306 306 307 307 306 306 306 306 306 306 305
310 310 309 301 308 309 305 308 310 310 311 313 315 313 311 311 311 309 309 308 307 306 305 304 303 303 302 302 302 304 304 304 304 304 305 304 304 304 304 305 305 305 304 303
307 308 308 294 293 297 302 303 306 310 310 310 311 311 307 306 305 305 305 304 304 304 303 302 301 299 299 299 299 298 299 301 301 301 301 301 302 302 303 303 303 303 302 301
303 301 294 294 286 297 299 298 300 303 304 305 306 305 304 304 303 305 304 302 303 302 301 299 298 297 296 295 293 294 295 295 296 298 298 298 298 299 300 300 300 300 299 298
303 303 300 286 296 297 298 301 303 305 304 303 304 304 303 304 303 303 302 301 300 300 299 298 296 294 294 294 292 291 292 293 293 294 294 295 295 295 296 297 297 297 296 295
300 303 304 302 302 297 298 298 305 300 300 295 299 301 301 302 302 302 300 301 301 299 298 296 294 293 291 291 290 289 290 291 290 290 292 292 293 294 294 294 294 294 293 291
298 296 297 295 301 302 299 304 305 301 299 298 299 298 298 299 299 299 300 298 296 296 295 294 291 290 290 289 288 287 288 289 289 289 290 291 292 292 292 291 291 290 289 288
295 298 296 298 298 298 301 300 300 299 298 298 299 297 299 299 299 299 298 295 293 293 293 292 290 288 288 287 286 286 287 287 287 288 288 289 289 289 290 290 289 287 286 286
295 295 295 294 295 294 294 296 298 298 298 297 297 297 298 298 297 296 294 294 292 292 291 290 288 286 286 286 285 285 286 286 286 287 287 287 287 287 287 287 287 286 285 284
292 294 290 291 295 296 296 295 296 296 298 297 296 296 297 296 296 294 293 290 289 289 288 287 285 284 283 283 283 283 284 286 286 286 285 285 285 285 285 285 285 285 284 285
292 294 295 293 294 294 294 294 293 293 295 295 294 294 294 294 294 292 288 289 289 287 285 284 283 281 281 282 282 283 283 285 285 284 284 285 285 285 285 285 285 285 285 285

GFSCGP_925_thetae_078.txt.gz
Theta_e
311 310 310 310 307 307 309 311 312 311 312 313 311 310 309 308 307 306 305 304 305 305 309 310 311 312 315 321 325 328 330 334 335 334 334 334 333 333 334 336 335 335 334 332
309 309 309 309 309 310 311 312 311 310 312 312 311 310 308 308 308 307 306 305 304 304 305 307 311 312 311 314 318 324 327 331 334 334 334 333 333 333 333 334 335 335 334 333
309 309 309 310 312 312 311 311 311 311 310 310 310 307 307 308 308 308 306 305 305 304 304 304 306 309 311 311 313 318 323 328 332 334 333 333 333 333 333 333 332 333 334 333
312 312 310 312 312 311 312 311 311 311 310 309 308 307 308 308 308 307 306 303 303 304 304 305 306 307 309 312 313 314 320 326 330 333 333 332 332 330 330 330 331 331 332 333
312 312 312 312 311 310 311 311 312 312 310 312 310 309 307 307 308 307 305 305 308 307 307 308 308 311 312 311 312 312 317 324 328 331 332 332 330 329 329 328 328 329 330 332
311 310 310 310 311 310 310 311 309 308 306 308 308 306 305 307 308 310 308 308 305 306 305 305 310 311 311 313 312 311 313 319 325 329 330 330 329 328 327 326 326 326 327 328
312 311 311 310 311 311 310 307 308 309 309 308 307 308 306 307 307 309 308 305 304 303 304 305 304 306 309 311 311 311 312 316 321 325 326 328 328 327 327 326 325 324 323 324
312 313 311 310 310 311 309 307 308 307 311 309 308 310 309 308 307 305 306 306 306 306 306 306 306 307 309 311 310 311 312 312 315 320 324 325 326 326 325 324 323 322 321 321
310 310 310 310 309 310 311 311 307 308 296 308 308 308 308 307 308 309 308 307 307 307 306 306 307 309 310 310 310 311 311 311 312 312 314 316 318 319 321 321 320 318 317 316
308 311 310 310 310 309 309 308 312 309 307 307 308 308 309 310 309 310 309 309 308 307 306 305 306 308 309 309 309 309 309 309 310 310 311 312 312 313 314 314 315 315 315 315
309 310 311 310 310 310 311 311 310 309 308 307 307 308 305 308 310 309 310 310 308 307 306 305 305 309 309 309 310 309 309 310 310 310 310 310 311 311 311 312 313 313 314 314
309 310 310 311 308 308 309 310 310 311 310 307 310 311 306 308 306 307 308 308 307 306 305 303 305 306 307 308 308 308 310 309 310 310 310 310 309 309 310 310 311 311 312 312
311 313 311 313 311 310 311 311 310 309 307 308 310 311 305 305 306 305 307 307 305 305 304 304 305 305 307 309 310 309 309 310 310 309 309 309 309 309 309 309 309 310 310 311
312 312 310 313 314 313 315 313 315 312 308 309 311 311 309 309 309 309 307 306 305 305 305 305 304 305 306 306 306 307 307 307 308 308 308 308 309 309 309 308 308 308 308 309
312 310 313 313 313 314 315 315 314 315 315 314 314 315 314 312 311 309 308 307 307 306 305 304 303 302 303 303 303 303 305 305 305 305 305 306 307 307 307 307 307 307 307 307
308 310 312 310 311 312 313 312 313 313 313 313 312 313 310 309 308 308 308 307 306 305 304 303 302 301 301 300 300 300 301 301 301 302 303 304 304 304 305 305 305 305 305 305
307 309 308 305 305 308 306 308 309 309 311 311 312 311 308 308 307 306 306 305 304 304 303 301 300 299 299 298 297 297 298 297 297 298 298 299 300 301 301 302 302 303 303 303
306 302 297 296 296 306 302 300 304 308 308 309 310 309 307 306 304 303 303 304 302 302 302 299 299 298 297 296 296 295 296 296 296 296 296 296 296 297 298 299 300 301 301 302
303 301 297 299 290 296 297 297 297 299 301 305 305 304 303 302 299 303 302 300 302 301 300 299 297 296 295 294 293 293 293 294 294 294 293 293 293 293 295 296 297 298 299 299
303 300 299 283 289 292 294 301 298 301 301 301 302 302 301 301 297 296 299 299 300 300 299 297 296 294 293 292 291 290 290 290 291 291 291 291 292 292 293 294 295 295 295 296
304 305 305 290 289 292 295 299 301 297 298 294 298 299 299 299 297 296 296 298 300 298 297 295 294 293 292 291 289 289 289 289 288 289 289 290 290 291 292 292 292 292 293 293
298 299 298 301 303 300 296 300 300 298 297 297 297 298 297 296 296 296 297 297 297 295 295 294 292 291 291 290 288 287 287 287 288 288 288 288 289 290 290 291 290 291 290 289
298 295 295 297 298 297 297 299 299 297 296 297 298 296 296 296 297 297 297 295 294 294 293 292 290 290 290 288 286 285 287 287 287 286 287 287 287 288 289 289 289 289 288 287
295 294 296 296 296 296 296 295 296 298 297 297 295 295 296 297 296 295 294 294 292 292 290 289 288 287 287 287 285 285 285 285 285 286 286 286 286 286 287 287 287 287 285 285
293 293 291 291 295 295 295 294 294 295 293 294 293 295 295 295 295 293 292 288 290 289 288 288 287 286 287 285 285 284 284 283 283 284 285 284 284 284 285 285 285 285 285 284
291 294 295 293 294 294 293 292 291 291 291 291 291 292 293 293 293 292 289 290 289 288 287 285 285 284 285 284 283 283 282 282 282 284 284 284 285 284 285 284 285 285 285 285

GFSCGP_925_thetae_081.txt.gz
Theta_e
309 309 308 308 306 305 306 310 310 310 311 312 310 309 308 307 306 305 305 304 303 304 306 308 310 310 313 320 324 327 330 333 334 334 334 334 333 333 332 331 329 332 332 330
309 309 308 307 308 309 310 310 311 309 311 311 310 309 307 306 307 307 306 304 303 302 302 304 307 308 309 310 314 322 325 329 331 332 333 333 332 332 332 332 331 333 332 331
308 308 307 308 308 309 309 309 309 309 309 308 308 305 304 305 305 306 305 304 303 303 303 302 304 306 307 309 310 312 318 323 327 330 332 332 332 332 332 332 332 332 332 332
309 309 308 309 310 309 311 308 309 310 308 307 307 305 306 306 305 305 304 302 302 303 303 303 304 307 308 308 308 309 312 318 324 328 331 332 332 331 331 331 331 331 332 331
309 311 310 310 310 309 310 309 310 309 308 310 309 308 306 305 307 307 304 305 304 303 303 303 304 307 309 310 311 309 309 313 320 327 330 331 331 331 331 331 331 331 332 331
309 309 309 310 309 309 308 308 306 306 304 307 306 305 303 304 307 308 305 303 303 303 304 304 308 309 310 310 311 311 310 312 319 324 328 331 331 330 330 330 330 329 330 330
311 311 310 309 310 310 308 306 307 307 308 307 305 306 305 306 306 306 306 305 305 304 304 304 304 306 309 310 310 311 311 312 317 324 327 329 330 330 330 330 329 328 327 327
311 313 311 309 310 310 307 307 308 306 308 307 307 309 307 307 306 306 306 306 305 304 303 304 304 306 308 310 310 310 310 311 311 315 321 324 326 327 328 327 327 326 326 326
310 310 309 309 308 310 310 308 305 306 295 307 306 307 307 305 309 307 307 306 306 305 304 304 305 306 307 308 309 309 309 309 310 311 312 315 319 322 323 323 324 323 323 322
308 310 309 310 309 309 309 307 311 307 305 305 306 307 306 307 309 308 307 307 306 305 305 304 305 307 308 309 309 309 310 309 310 309 310 311 311 311 312 313 314 315 316 317
306 309 310 309 309 309 309 310 308 308 307 306 305 307 303 306 308 308 307 306 306 305 304 303 304 306 308 309 309 308 308 308 309 309 309 309 310 310 310 310 310 311 311 312
308 308 310 310 308 306 309 308 308 309 309 306 308 308 305 306 306 306 308 308 307 304 302 301 304 305 306 306 306 306 306 306 306 306 307 308 309 309 309 309 309 309 309 310
310 311 309 313 311 309 309 310 308 307 307 307 310 309 306 305 305 305 307 306 303 303 303 302 303 303 303 303 303 304 305 305 305 305 306 306 307 307 307 307 308 308 308 308
311 311 312 312 314 311 314 314 313 310 311 310 309 309 307 306 310 308 306 305 305 304 303 302 301 301 301 300 300 300 301 301 302 303 304 304 305 304 304 304 305 305 306 306
311 314 313 313 314 314 313 313 314 314 311 310 313 312 310 311 309 308 306 305 304 304 303 301 300 299 300 299 299 299 299 299 299 300 300 299 299 301 302 303 303 303 303 304
308 313 312 312 310 312 314 312 312 312 313 313 313 313 310 308 306 306 305 304 304 304 303 301 300 299 298 297 297 297 297 297 296 297 298 298 297 298 299 299 300 300 301 302
307 307 306 312 306 310 310 307 309 309 309 309 310 310 307 307 306 305 305 304 304 303 302 301 299 298 297 296 295 295 295 296 296 295 294 295 295 295 295 296 297 298 298 299
304 305 303 303 298 310 304 298 300 307 308 308 308 308 306 305 303 302 302 303 301 301 301 299 298 298 297 296 296 295 295 295 294 294 293 292 291 292 293 293 294 295 296 297
304 303 296 302 289 299 301 297 296 301 302 303 305 305 302 301 299 299 300 300 301 301 300 298 297 296 295 294 294 294 294 294 293 291 290 290 290 290 291 292 292 293 294 294
302 301 302 284 295 297 296 299 296 298 298 298 302 301 300 297 300 296 301 299 299 300 299 297 296 294 294 293 292 292 291 290 290 290 290 290 289 289 290 290 291 290 290 291
305 303 304 293 291 292 293 296 298 296 296 293 298 299 299 297 295 294 295 296 299 298 297 295 294 293 292 292 291 291 290 290 290 290 290 290 289 289 289 289 290 290 290 290
304 305 303 299 301 301 294 296 299 297 296 297 297 298 297 295 294 294 295 296 297 297 295 294 293 292 292 291 290 290 289 289 289 290 290 289 288 288 287 288 288 288 289 288
298 298 297 299 301 296 295 298 298 296 296 297 297 296 296 294 294 294 295 294 294 295 295 293 292 292 292 290 288 286 287 286 286 286 287 287 286 286 286 286 286 287 287 287
295 294 295 295 296 295 296 295 295 297 295 295 295 295 294 294 294 294 293 293 292 293 292 290 289 289 290 289 287 286 285 284 284 282 282 284 283 284 284 285 285 285 285 285
293 294 292 292 294 295 295 295 293 294 293 292 293 293 292 292 293 293 292 289 291 291 290 289 288 287 288 289 288 286 283 282 281 281 282 283 284 285 285 284 284 284 284 284
291 293 295 293 294 294 294 292 291 291 291 290 290 290 291 291 291 291 288 290 290 289 289 289 289 288 288 286 285 284 282 280 279 279 281 283 284 285 285 284 285 285 286 286

GFSCGP_925_thetae_084.txt.gz
Theta_e
308 307 307 309 305 304 305 307 308 308 309 311 309 308 307 306 306 305 304 303 303 302 304 306 307 308 309 314 322 324 328 331 333 333 333 333 333 333 332 331 330 329 329 329
308 308 306 306 305 307 308 309 309 309 310 310 308 308 306 305 306 306 306 304 302 301 301 303 304 305 307 309 311 319 323 327 330 332 333 332 332 332 332 332 331 331 329 329
308 307 306 307 307 307 308 308 308 309 307 306 305 305 303 304 304 303 304 303 301 301 299 300 303 305 305 305 307 309 315 321 326 330 332 332 332 332 332 332 331 331 330 329
307 307 306 308 307 306 308 306 308 308 308 308 305 304 305 305 304 303 301 301 302 301 302 302 303 305 307 308 307 306 307 312 319 325 330 331 331 330 330 331 330 330 330 329
308 309 307 309 309 307 309 307 308 307 306 308 308 306 305 302 307 306 303 301 301 302 303 303 304 305 307 309 310 310 309 308 311 319 326 330 330 330 330 330 330 330 330 329
308 308 309 308 307 308 306 305 304 304 302 306 305 304 303 304 306 307 303 304 304 303 303 303 306 307 308 308 309 310 311 312 313 318 323 327 329 329 330 330 330 330 330 330
311 310 309 309 309 308 306 306 307 307 306 306 304 305 303 305 306 305 306 305 303 302 303 303 302 304 307 308 309 309 309 310 313 319 324 327 329 329 329 329 330 330 330 329
310 311 310 309 309 310 306 306 307 305 306 306 306 307 305 305 305 304 305 306 304 303 302 302 303 305 306 307 307 308 308 308 309 310 316 322 325 326 327 328 328 327 327 327
309 309 308 308 308 309 309 307 304 305 293 304 305 305 305 305 306 306 306 305 305 304 303 302 303 305 306 307 306 306 307 307 308 308 309 309 311 315 318 320 321 321 321 321
308 309 309 309 308 307 307 305 309 305 304 305 305 306 304 309 308 307 306 306 306 304 302 301 302 304 306 306 307 307 306 305 306 307 307 308 308 308 309 309 309 310 311 311
305 308 310 309 309 308 308 308 306 306 306 305 304 305 302 307 306 306 306 306 304 303 301 300 302 304 305 306 306 306 306 306 306 306 306 306 306 307 307 307 307 307 307 308
306 308 310 310 307 306 307 307 307 308 307 304 306 306 304 306 305 305 306 305 303 302 302 301 302 302 302 302 302 302 302 302 302 303 304 305 305 306 306 305 305 305 306 306
307 308 306 312 310 308 308 307 307 305 306 306 308 308 304 303 305 305 306 305 303 304 301 300 301 300 300 300 300 300 300 300 301 302 303 304 304 304 304 303 303 304 304 305
310 310 309 310 311 309 311 312 308 308 309 309 308 308 306 305 308 306 306 305 304 303 302 300 299 299 299 298 297 297 296 297 297 298 298 298 299 299 300 301 301 302 302 302
311 314 313 312 312 312 312 312 311 309 309 310 309 307 308 306 308 306 305 304 303 303 302 301 299 298 298 297 296 296 296 295 295 295 295 294 295 296 296 297 298 299 300 300
309 315 312 312 313 311 314 312 311 312 313 313 313 313 310 308 306 305 304 302 302 302 302 301 299 298 297 296 297 297 297 297 297 297 296 295 295 295 295 296 296 296 297 297
312 311 313 315 308 312 315 311 310 310 310 311 314 310 307 308 308 306 305 303 302 301 301 300 298 297 297 296 296 296 296 296 296 296 296 295 294 294 294 294 294 294 294 295
308 307 307 303 307 314 306 298 303 308 308 308 307 307 306 305 304 302 303 301 301 301 301 299 298 298 297 296 296 296 295 295 296 296 295 294 293 292 292 291 292 293 293 292
305 305 300 307 305 301 302 299 297 302 304 304 306 304 303 299 299 299 298 299 299 299 300 299 298 297 296 296 296 296 296 295 295 294 293 293 291 290 290 289 288 289 290 290
302 303 306 293 303 302 301 296 295 297 298 297 302 301 298 295 300 297 299 298 298 299 299 297 296 296 295 295 293 293 293 292 291 291 291 291 290 289 289 288 288 288 288 289
305 304 306 291 295 294 294 296 297 295 296 292 298 297 295 295 296 293 295 295 298 299 298 297 295 294 294 293 292 292 291 290 289 289 290 290 289 288 287 286 287 287 286 287
307 307 304 297 299 304 293 296 298 297 296 296 295 295 295 294 294 294 294 294 295 297 296 296 294 294 292 291 290 289 289 288 288 287 287 287 288 286 286 286 285 285 285 286
304 302 302 302 302 296 293 298 296 295 294 296 294 294 293 294 294 293 293 293 295 296 295 295 293 292 290 289 288 287 287 286 286 286 286 284 283 283 284 283 283 284 284 284
295 294 298 299 297 296 296 295 295 294 293 293 294 294 294 294 292 292 291 292 292 293 294 293 290 289 289 289 288 286 285 284 283 283 283 282 283 283 284 285 285 284 284 284
293 294 291 292 294 294 294 295 293 292 291 291 292 293 292 291 291 291 290 287 289 289 289 288 288 288 288 287 285 285 284 282 281 281 281 281 281 283 284 285 285 284 284 285
291 293 296 294 294 295 295 292 291 291 291 290 290 290 291 291 290 289 285 286 285 284 285 286 286 287 286 286 285 284 282 281 279 279 278 278 279 279 282 284 285 284 284 284

GFSCGP_925_thetae_087.txt.gz
Theta_e
307 307 308 307 305 304 304 304 306 307 309 310 309 308 307 306 306 305 305 304 303 303 303 304 305 305 307 308 319 324 329 331 332 333 335 330 331 330 330 331 331 330 329 328
308 307 306 305 303 305 306 307 308 308 308 309 308 309 307 306 306 305 304 303 302 301 300 301 303 304 304 306 308 316 322 326 328 331 332 332 331 331 331 331 332 331 330 329
307 307 304 306 306 307 307 306 307 308 306 304 303 305 303 304 303 302 300 301 302 302 303 302 304 305 307 304 305 307 312 318 323 327 330 331 331 332 331 330 329 329 331 330
306 305 305 305 306 305 307 305 306 307 307 306 304 304 305 303 305 303 301 301 302 303 303 302 303 305 307 308 307 305 306 310 318 324 328 330 330 330 330 331 330 329 329 330
307 307 306 307 307 305 306 304 306 306 306 307 307 306 305 301 307 304 303 304 304 303 303 303 303 305 306 308 309 311 310 307 308 317 325 328 330 330 330 330 330 330 329 328
308 307 307 306 306 307 304 304 303 302 302 306 305 304 303 303 306 305 306 305 304 303 303 302 304 305 306 307 308 309 310 314 315 314 319 326 327 328 329 329 329 329 329 329
309 310 308 307 308 307 305 305 307 309 307 307 303 305 304 304 304 305 307 306 304 302 302 302 302 303 304 305 306 308 308 308 311 319 322 323 324 325 326 326 326 327 327 327
309 310 309 308 308 309 305 306 309 307 307 306 305 308 305 304 303 304 305 305 303 302 301 301 301 302 303 304 305 305 306 307 307 308 309 314 319 321 321 321 322 322 322 322
307 307 308 307 307 308 308 307 303 305 292 304 306 305 304 305 306 305 306 304 303 302 301 301 302 303 303 304 304 304 305 305 305 306 306 307 308 308 308 308 309 309 310 311
308 309 308 308 307 307 306 304 308 304 303 304 304 305 306 308 307 306 306 305 303 302 302 301 301 302 302 302 302 303 303 303 303 305 305 305 306 306 306 306 307 307 307 307
305 309 310 308 308 308 307 307 305 305 305 304 303 305 300 309 307 306 305 304 303 301 302 301 301 301 301 301 302 301 302 302 302 302 303 303 303 304 304 304 304 304 305 305
306 308 311 310 307 305 307 306 306 307 306 302 305 305 303 306 305 305 305 303 302 302 301 299 300 300 300 300 301 301 302 303 302 302 302 302 302 303 302 302 301 301 302 303
306 307 304 310 309 307 307 306 305 304 306 305 308 306 303 304 303 304 304 303 303 301 300 299 299 299 299 299 299 300 300 300 301 303 303 303 303 303 302 302 302 301 300 300
308 307 307 309 308 308 310 307 306 307 309 307 308 307 306 304 305 303 304 304 303 302 301 299 298 298 298 298 298 297 297 297 298 298 298 298 298 299 299 299 299 299 299 299
309 308 311 311 311 309 309 309 306 307 308 308 308 307 308 305 306 305 305 303 303 302 301 300 298 297 296 296 295 295 295 295 295 295 295 295 296 296 296 297 297 298 298 297
309 311 311 311 311 310 313 310 308 309 307 310 305 307 306 305 304 305 305 303 302 302 301 300 298 297 296 295 295 295 295 294 294 294 294 293 293 293 293 294 294 294 295 295
311 311 310 313 310 310 315 312 310 309 309 309 312 309 306 307 307 306 304 302 301 300 300 298 297 296 296 296 296 296 295 295 295 295 295 294 294 294 293 293 293 293 293 292
308 309 309 308 312 318 310 297 304 310 309 308 307 307 308 308 306 304 302 300 299 298 299 298 297 297 297 296 296 295 295 295 295 294 294 293 292 292 292 291 291 290 290 290
307 307 303 309 304 305 304 300 304 310 310 306 306 305 304 301 299 300 300 297 297 298 299 299 298 297 296 296 295 295 295 295 295 294 294 293 292 292 292 291 291 290 289 288
303 306 310 301 307 307 304 297 295 299 303 298 304 304 300 297 303 300 297 296 297 298 299 298 297 297 296 295 294 294 293 292 292 291 291 291 291 290 290 289 289 288 287 287
307 306 310 303 306 301 297 296 294 299 302 292 299 300 296 298 298 294 295 294 297 298 298 297 296 295 294 293 292 292 291 290 289 289 289 289 288 287 287 286 286 286 285 285
305 307 305 297 303 306 293 297 299 297 296 295 294 294 294 292 293 293 293 294 296 297 297 296 295 294 292 291 290 290 289 288 288 287 287 287 286 284 283 283 284 284 283 283
307 303 301 302 303 296 292 297 296 296 295 294 293 292 292 292 292 292 293 294 294 295 295 294 293 292 290 289 289 288 288 287 286 286 286 286 285 285 284 284 284 285 285 283
296 294 301 302 297 296 294 294 294 294 295 292 291 291 291 291 291 291 291 291 291 292 291 291 290 289 289 288 287 286 286 285 284 284 284 283 283 283 283 282 283 285 284 284
294 294 293 294 294 296 295 295 293 291 291 291 291 291 290 290 290 290 288 286 288 287 287 287 287 286 286 285 284 284 283 283 282 281 280 280 280 280 280 281 282 284 284 285
291 293 297 297 294 296 296 294 292 291 291 290 289 289 290 290 290 287 285 285 283 282 281 282 281 281 281 280 280 280 280 279 278 278 278 277 277 277 278 279 281 282 284 284

GFSCGP_925_thetae_090.txt.gz
Theta_e
310 313 314 313 312 310 312 310 311 309 311 312 313 313 313 313 312 314 314 313 311 311 308 306 305 305 307 313 325 330 332 334 334 331 332 332 331 331 331 331 331 332 328 326
312 312 312 309 308 309 309 311 311 311 310 312 312 314 314 312 310 309 309 309 309 310 310 308 308 307 305 307 311 319 326 330 333 332 331 331 331 331 331 331 331 331 330 327
312 310 308 308 308 310 310 310 311 312 309 308 309 312 310 308 307 308 307 307 308 309 310 310 309 309 310 307 305 310 317 324 328 331 331 330 331 331 330 330 330 330 330 330
310 306 309 310 309 310 311 309 310 311 312 311 309 310 312 308 310 309 311 311 311 311 310 309 310 309 309 310 309 304 308 316 322 326 328 328 328 329 329 329 329 330 330 329
310 308 308 310 310 309 310 309 310 310 312 312 312 311 312 307 311 312 312 311 311 310 310 310 308 308 307 308 311 313 310 308 314 321 325 327 327 328 328 328 328 328 329 328
310 307 308 309 306 308 307 309 309 309 311 313 311 312 311 309 311 312 311 310 310 309 309 308 307 307 307 308 308 309 312 316 318 317 321 324 325 326 327 327 328 328 328 329
311 310 309 308 309 308 309 312 313 313 314 312 306 309 312 307 308 313 312 311 309 309 310 309 308 307 306 306 307 307 307 308 312 318 321 321 321 322 323 324 324 324 324 324
311 311 311 309 311 311 311 311 314 318 313 312 306 311 311 307 307 311 310 309 308 309 309 308 307 306 306 305 306 306 306 306 306 307 308 310 315 316 318 319 319 319 319 319
311 310 308 308 307 311 310 310 308 309 303 313 311 310 308 308 309 310 309 309 309 309 309 308 306 305 305 304 303 304 304 304 305 305 306 306 306 306 306 307 307 307 307 307
309 311 309 308 308 308 309 308 311 310 318 316 309 310 312 311 312 311 310 310 309 308 308 307 305 304 303 302 301 301 301 302 302 303 303 303 303 303 303 303 304 304 304 305
308 312 311 309 311 312 308 309 308 310 311 321 313 310 310 312 313 312 311 310 309 309 308 306 304 302 301 301 301 300 300 300 301 301 301 302 302 302 302 301 301 301 301 301
308 312 314 312 308 306 308 310 310 312 312 308 311 313 306 311 312 312 310 308 308 308 306 305 303 302 301 301 300 299 298 299 300 301 301 301 301 301 300 300 300 300 300 300
309 313 316 312 310 308 309 308 310 309 311 315 316 312 306 310 310 310 310 308 308 306 305 304 304 303 302 300 299 298 298 298 298 299 299 298 299 299 299 299 299 299 299 299
308 311 312 312 311 312 312 310 308 310 314 312 312 311 309 310 311 310 309 309 308 307 306 305 303 301 300 299 298 297 297 297 297 297 297 297 296 296 296 296 296 296 296 297
310 314 310 310 311 310 312 312 309 310 311 311 311 309 310 311 311 310 309 309 307 306 305 304 303 301 299 298 297 296 295 295 296 296 295 295 295 295 295 295 295 295 295 295
311 315 312 313 312 313 313 312 311 311 311 311 310 309 309 311 310 309 309 308 308 307 306 303 301 299 298 297 296 295 294 294 294 294 293 293 293 293 293 293 293 293 293 293
313 313 315 315 311 315 315 314 312 311 311 310 311 310 308 309 309 310 310 308 308 306 304 302 301 299 297 296 294 294 293 293 293 292 292 292 293 293 292 292 292 292 291 291
311 312 315 314 315 317 311 301 308 311 311 310 310 311 309 308 309 309 309 308 306 304 302 301 299 298 296 294 294 293 293 293 293 293 292 292 292 292 292 291 291 290 289 289
309 310 309 316 318 315 309 302 309 311 313 310 310 310 308 307 307 306 305 305 303 302 301 300 298 297 295 294 293 293 293 293 293 292 291 291 290 290 290 290 289 288 288 287
306 311 314 307 317 319 311 300 298 304 315 309 309 308 306 306 310 310 302 299 299 299 299 298 297 295 294 293 294 294 293 293 292 291 291 291 290 290 289 289 288 288 286 285
309 310 314 313 314 312 305 298 297 313 316 297 307 307 304 309 306 302 298 297 298 298 298 297 295 295 294 293 293 292 292 291 291 291 290 289 289 288 287 286 286 286 285 285
311 313 311 308 313 314 298 297 303 305 298 300 302 302 302 298 298 299 297 297 298 297 296 296 295 293 292 291 291 291 290 289 289 288 288 287 287 286 286 285 285 285 285 285
310 310 311 310 312 299 298 298 298 299 300 298 298 297 297 297 298 297 296 296 296 296 294 293 293 291 289 290 290 290 288 287 287 286 285 285 285 284 284 283 283 283 285 285
300 297 306 306 303 299 297 297 297 298 298 296 297 296 296 295 295 294 294 293 292 291 290 290 290 289 289 288 288 287 285 285 284 283 283 282 282 282 282 281 281 282 283 285
301 298 301 302 296 297 296 297 297 295 294 294 293 293 294 294 293 293 292 291 289 288 287 288 288 287 285 285 284 283 282 282 281 280 279 279 278 277 278 279 280 281 282 283
295 298 303 306 299 301 299 297 295 295 294 294 293 291 291 292 292 290 290 288 286 285 284 284 283 282 281 280 280 279 278 278 277 276 275 275 275 275 276 277 278 280 282 282

GFSCGP_925_thetae_093.txt.gz
Theta_e
314 314 314 314 314 315 316 314 314 313 312 313 314 314 314 314 314 314 315 316 315 314 313 310 309 310 311 316 328 331 333 335 335 332 333 332 332 332 332 332 331 331 330 330
313 313 314 314 313 313 314 313 313 313 312 314 314 314 314 314 314 314 313 313 313 312 312 311 310 309 309 310 314 324 330 332 334 333 332 332 332 332 332 331 331 331 331 331
313 313 312 311 310 312 312 313 313 313 313 312 312 313 314 311 310 310 310 310 311 312 312 312 312 313 313 310 309 312 320 327 331 333 331 331 332 331 331 331 331 330 330 330
312 309 310 311 311 312 312 311 312 313 314 312 312 311 314 312 312 312 313 313 313 313 312 313 313 312 313 314 311 307 313 319 325 330 331 330 329 329 329 328 328 328 327 328
310 309 310 312 312 312 312 311 312 313 313 313 312 311 312 310 312 314 314 314 314 314 313 312 311 311 311 314 317 312 308 315 320 324 327 328 327 327 326 327 328 328 327 327
311 308 310 311 309 311 310 312 312 313 312 311 311 312 312 312 312 314 314 314 313 312 311 310 310 311 311 312 313 316 319 317 315 320 324 325 324 324 325 325 325 327 327 327
312 310 310 309 310 310 312 311 312 312 314 312 309 313 312 310 311 314 314 313 312 312 312 312 311 310 310 310 310 311 313 317 320 319 320 321 322 322 321 321 322 322 322 322
311 311 311 310 311 311 312 311 315 321 316 314 308 312 312 309 310 314 313 312 312 312 312 311 310 309 309 309 309 309 309 309 310 311 312 314 317 317 315 313 313 314 313 313
311 311 310 310 310 311 312 311 311 311 308 315 312 311 310 310 311 313 313 312 312 312 312 311 309 309 307 307 307 307 306 306 307 307 307 307 307 307 307 307 307 306 306 305
311 313 310 309 310 309 311 310 310 311 321 318 312 312 312 311 311 312 312 312 313 312 311 310 308 307 306 305 304 304 304 304 304 303 303 303 303 303 302 302 302 302 302 302
310 313 311 310 311 311 309 310 310 310 313 327 317 311 311 313 312 313 313 313 312 312 311 309 307 306 305 304 304 303 302 302 302 301 301 301 301 301 301 300 300 300 300 301
310 313 314 312 309 308 311 311 311 312 314 311 315 315 309 312 312 314 313 313 312 312 310 308 306 305 305 304 303 302 301 300 300 300 299 298 298 298 298 298 297 297 297 297
310 316 318 313 311 309 311 311 312 312 315 321 318 312 308 310 313 313 313 312 311 310 308 307 306 305 304 302 300 299 298 298 297 297 297 296 296 296 296 296 295 296 296 296
310 315 312 313 312 312 312 312 310 312 314 313 313 312 311 312 314 313 313 311 311 309 308 308 306 305 303 301 300 298 297 296 296 296 296 296 296 295 295 295 295 295 295 294
310 314 312 311 311 312 313 312 312 311 311 312 312 311 312 312 313 313 312 311 311 310 308 307 306 304 302 300 298 297 296 295 295 296 295 295 295 295 295 295 294 294 294 294
311 318 312 316 312 312 313 313 312 311 311 311 311 311 312 312 312 312 311 311 311 309 308 307 305 302 301 299 298 296 295 295 295 295 294 293 293 293 293 293 293 293 293 293
314 316 317 318 314 315 316 313 313 312 311 311 311 311 311 312 312 312 311 311 310 309 308 306 303 301 299 298 296 296 294 294 294 293 292 292 292 292 292 292 292 291 291 291
313 315 318 319 317 316 313 307 311 312 311 311 311 311 311 312 312 312 311 311 310 309 307 304 302 300 298 296 295 294 294 293 293 292 292 291 291 291 291 291 290 290 290 290
312 314 316 318 317 316 315 306 310 312 312 311 311 311 311 311 311 311 311 310 309 307 304 302 301 299 296 295 294 294 293 292 292 291 291 291 291 290 290 290 289 289 289 289
308 311 315 315 320 319 313 307 307 310 313 311 310 310 310 309 311 311 309 307 304 303 301 300 298 297 295 294 293 292 292 292 291 291 291 290 289 289 289 288 289 288 288 288
312 311 315 315 319 319 306 300 303 316 317 303 310 310 308 309 309 310 304 302 302 301 299 298 296 295 294 293 292 292 291 291 290 290 290 289 288 288 288 287 287 286 286 286
311 314 315 315 317 318 300 299 311 308 300 301 306 308 307 303 303 302 302 301 300 298 297 296 294 293 292 291 291 291 291 290 290 290 289 288 288 287 286 285 285 284 284 285
313 312 313 313 315 303 300 303 301 301 302 301 305 303 303 302 301 299 300 299 299 297 294 294 293 290 290 290 291 291 289 289 288 288 288 287 286 285 284 283 283 283 283 284
304 301 309 309 307 303 300 299 298 299 301 299 300 299 300 301 298 297 296 295 294 292 292 292 291 290 289 289 289 289 287 287 286 285 284 283 282 282 282 281 281 281 282 283
304 302 306 306 299 299 299 299 299 297 296 297 296 297 299 297 296 295 294 292 291 290 289 290 290 289 288 287 286 285 284 284 283 282 281 280 279 279 279 279 279 279 280 280
299 303 307 310 303 304 302 299 298 298 297 296 295 294 294 295 294 293 292 291 289 287 287 288 287 286 284 283 281 281 281 280 280 278 278 277 277 276 277 277 278 279 279 280

GFSCGP_925_thetae_096.txt.gz
Theta_e
313 313 313 312 312 313 315 314 313 313 312 313 313 314 312 310 310 311 312 310 311 311 310 310 311 311 315 324 330 332 334 336 335 333 331 332 331 331 331 332 331 331 330 330
313 313 313 313 312 312 313 313 313 312 312 313 313 312 312 311 311 311 311 312 311 310 309 310 310 309 309 310 315 325 331 334 336 334 331 331 331 331 331 331 330 330 330 331
313 313 312 312 311 312 312 313 312 314 312 312 312 311 313 312 311 309 309 309 310 312 310 310 312 313 312 310 309 313 323 330 333 335 332 331 331 331 330 330 328 328 328 328
313 310 311 311 311 311 312 311 313 313 311 310 310 306 311 308 308 309 310 308 308 310 311 311 312 312 313 314 312 309 313 320 328 333 333 329 328 329 328 328 327 327 327 326
311 309 311 312 312 312 312 311 312 314 313 312 311 309 310 308 309 310 311 311 311 310 310 310 311 312 313 316 316 307 310 316 322 327 332 330 327 327 326 326 326 326 326 326
310 308 310 311 310 311 310 311 312 312 310 310 309 307 309 308 309 311 312 311 311 310 309 309 311 311 312 313 317 317 311 315 319 323 326 327 325 324 324 324 323 325 325 323
310 309 309 309 309 310 311 310 311 310 311 311 306 310 309 309 312 311 311 310 309 309 308 308 309 310 310 310 312 318 320 319 320 322 323 323 322 321 321 320 320 320 319 319
311 312 309 308 310 310 310 309 314 313 315 311 306 309 309 308 310 310 310 309 309 309 309 308 309 309 309 309 309 310 310 312 315 317 318 318 317 317 314 313 311 311 310 308
310 312 309 309 310 310 310 310 310 309 304 313 308 308 309 308 310 311 310 309 309 309 309 308 308 308 307 307 307 307 307 307 307 307 308 308 308 307 306 306 305 304 303 303
310 312 310 309 309 309 309 308 308 310 308 311 311 310 308 309 309 311 310 309 310 309 308 307 307 306 305 304 304 304 304 304 304 304 303 303 303 302 302 302 302 301 301 301
310 312 311 309 310 310 308 309 309 308 313 314 313 308 308 309 309 311 310 310 310 308 307 306 306 305 305 304 303 303 302 302 302 302 301 302 301 300 299 298 297 297 297 297
310 312 312 311 309 308 308 310 309 310 310 308 314 311 309 309 308 310 310 310 309 308 307 304 305 305 304 303 302 301 301 301 300 299 298 298 297 297 296 296 296 296 295 295
309 313 312 312 310 309 310 309 309 309 311 311 310 308 307 308 308 310 310 309 310 308 306 304 304 304 303 301 300 299 299 298 298 297 296 296 296 296 295 295 295 294 294 294
311 314 312 310 310 310 310 310 309 309 311 310 309 308 309 308 309 310 310 309 310 308 306 304 303 303 302 300 299 297 297 297 296 296 296 295 295 294 294 294 294 294 294 294
310 312 311 309 308 310 310 310 310 309 310 309 309 309 308 308 310 310 310 309 309 308 306 305 304 302 301 299 298 296 296 296 296 295 294 294 294 294 294 294 293 293 293 293
309 311 310 309 310 311 311 310 310 310 309 309 309 307 307 308 309 309 310 309 310 308 307 306 303 301 300 298 297 296 295 295 295 294 294 293 293 293 293 293 292 292 292 292
310 311 312 311 312 311 310 310 310 310 309 309 309 309 309 308 310 310 309 309 309 308 306 304 302 301 299 298 296 295 294 294 294 294 293 293 292 292 292 291 291 291 291 291
310 309 312 312 311 312 310 307 309 310 310 309 309 308 307 308 308 309 310 309 309 307 306 303 301 299 298 297 296 295 294 294 293 293 292 292 292 291 291 291 291 290 290 290
310 310 313 313 308 309 310 305 307 307 309 308 309 309 307 308 307 308 309 308 308 307 305 302 300 298 297 296 295 294 293 293 292 291 291 291 291 291 291 291 290 289 288 289
310 311 312 314 316 316 310 307 307 307 310 306 308 308 307 307 310 309 306 307 306 306 302 300 298 297 296 294 294 293 292 292 292 291 291 290 290 290 289 289 288 288 287 287
313 312 315 316 317 309 304 303 306 310 311 301 307 307 307 309 309 306 305 304 304 301 299 298 296 294 294 293 293 292 292 292 291 290 290 290 289 289 288 288 287 287 287 286
313 314 315 315 317 315 299 302 310 306 299 300 305 308 305 303 305 304 303 301 299 298 297 295 293 293 293 293 293 292 291 290 290 290 290 289 288 288 287 286 286 285 285 284
311 310 313 313 310 301 299 301 299 300 300 299 304 304 302 300 301 300 299 298 297 296 294 293 291 290 291 292 293 291 290 290 289 289 289 288 287 286 284 283 283 282 282 281
305 301 309 307 305 302 298 298 297 298 299 299 300 300 299 298 297 297 296 294 292 292 291 290 289 288 288 290 291 291 289 288 288 288 287 286 284 284 283 281 280 280 280 280
302 300 301 302 301 299 299 298 298 297 296 297 297 297 297 295 295 295 294 292 292 291 291 291 290 288 288 288 288 288 288 287 286 285 284 283 282 281 280 280 279 279 279 279
297 301 304 304 302 303 302 299 297 296 295 294 294 295 294 294 294 293 292 291 290 289 290 290 290 289 287 286 285 285 284 284 283 282 281 280 279 278 278 278 278 278 278 278

GFSCGP_925_thetae_099.txt.gz
Theta_e
311 311 312 310 309 310 311 311 312 310 310 311 309 310 309 308 308 309 306 306 306 306 309 312 315 319 327 330 331 332 334 334 334 333 331 330 331 330 330 329 329 330 330 330
311 312 310 310 310 310 310 311 311 311 311 310 310 311 309 308 308 308 308 306 307 306 307 308 309 310 312 317 322 330 334 335 335 335 332 330 330 330 330 330 331 331 330 330
311 312 311 311 310 310 310 310 309 310 311 310 310 308 311 310 308 308 308 306 306 305 307 308 310 311 310 309 311 316 325 334 335 335 333 329 329 330 330 330 330 329 328 328
311 310 311 310 309 309 310 310 310 311 308 307 306 305 306 307 308 307 307 305 306 308 307 308 311 312 313 313 311 309 314 322 333 335 332 330 329 328 328 328 328 327 327 326
311 309 310 310 310 309 310 310 311 310 310 308 309 305 304 306 308 307 306 306 304 306 308 308 309 312 314 316 313 308 309 316 324 334 331 330 328 327 326 325 325 325 326 326
309 307 309 310 308 309 309 309 308 308 307 308 306 304 304 306 307 307 307 307 308 306 306 307 310 311 312 317 314 308 314 318 324 332 330 328 326 325 325 324 324 324 324 322
308 309 308 308 309 308 309 307 308 307 309 308 305 306 305 307 306 307 308 308 307 306 305 306 307 309 310 315 319 315 316 319 322 325 327 326 323 321 321 321 320 319 318 318
309 310 308 307 308 309 307 307 308 309 311 308 305 307 307 307 308 308 309 308 306 306 305 305 307 308 308 310 315 318 318 319 321 322 322 321 320 318 318 318 317 314 310 306
309 311 308 308 309 308 308 309 308 307 297 308 306 305 306 307 310 309 308 308 307 306 305 305 306 307 307 307 308 309 311 313 316 317 318 317 315 313 310 308 305 303 302 302
308 311 309 308 308 308 308 306 309 308 309 308 307 306 305 308 306 309 309 308 307 306 305 304 304 304 305 305 306 306 307 307 308 309 308 306 304 303 302 302 301 299 297 297
309 311 310 308 309 308 307 307 307 309 308 307 306 306 303 306 306 310 309 308 308 307 306 304 303 304 303 304 304 303 303 303 303 303 302 301 300 299 298 297 296 296 296 295
309 310 311 309 308 307 308 308 307 309 308 308 309 308 307 306 305 309 308 308 307 306 305 302 303 303 302 302 302 302 301 301 301 300 299 297 296 296 296 296 295 295 294 294
310 310 310 311 309 309 309 308 307 307 307 307 306 306 306 305 304 307 308 307 308 306 303 302 302 302 301 301 300 300 300 299 298 297 296 296 295 295 295 294 294 294 294 294
311 312 310 310 309 309 310 309 307 307 309 308 307 306 307 306 307 307 307 308 308 306 304 303 302 301 300 299 299 298 298 297 296 296 296 295 294 294 294 293 293 293 293 293
310 310 309 309 308 309 309 309 308 308 309 308 308 308 305 305 306 308 308 308 308 307 305 304 303 301 299 298 297 297 297 296 295 295 294 294 293 293 293 293 293 293 293 293
308 309 309 308 307 309 310 308 309 309 308 308 309 307 305 305 306 307 308 309 309 308 306 304 303 301 298 297 296 296 296 295 295 294 293 292 292 293 293 293 293 292 292 292
309 310 309 313 309 309 311 310 308 308 308 308 308 309 305 306 308 308 308 309 309 308 306 304 303 301 298 296 296 295 295 294 293 293 292 292 292 293 293 292 292 292 291 290
305 307 305 309 307 312 310 307 308 308 309 308 308 307 305 306 306 306 308 308 309 308 306 304 302 300 297 296 295 295 294 293 292 292 292 292 293 292 292 292 291 290 289 289
307 306 307 310 300 306 308 306 305 308 309 307 308 308 305 306 305 306 307 308 308 307 306 305 302 299 297 296 295 294 293 292 292 292 292 292 292 292 292 291 290 289 289 289
308 307 307 297 302 306 307 305 303 306 309 307 307 308 305 304 308 308 304 306 306 306 306 303 300 297 296 295 295 293 292 292 292 292 292 292 292 292 291 289 288 288 287 287
312 310 311 309 307 306 304 303 304 310 310 300 304 306 305 307 308 304 303 304 304 305 301 299 297 296 295 294 294 292 292 292 292 291 291 291 291 290 288 287 287 286 285 285
314 314 315 313 314 314 300 303 309 306 299 300 304 307 304 304 306 304 303 301 300 298 297 297 295 293 293 293 293 291 291 291 291 290 290 290 289 287 286 286 285 284 285 285
313 312 313 313 312 301 298 302 298 299 299 299 300 303 303 302 303 300 299 298 297 297 295 294 293 291 291 292 293 291 291 290 290 290 290 288 286 285 284 284 284 285 284 282
305 303 308 307 305 303 299 298 297 298 299 298 298 300 300 301 299 297 295 294 293 292 292 291 290 290 290 292 292 293 291 290 289 290 287 285 284 283 283 283 283 283 281 280
304 305 306 305 303 300 300 298 298 297 296 297 297 298 298 297 296 295 293 292 291 290 289 290 290 289 288 290 291 290 290 289 289 286 284 283 282 282 282 282 281 280 279 279
297 302 304 304 302 303 301 298 298 297 296 295 296 297 294 294 294 292 291 291 290 289 289 288 288 288 289 289 289 288 287 289 286 284 282 281 281 282 281 280 279 278 278 278

GFSCGP_925_thetae_102.txt.gz
Theta_e
310 311 313 312 308 309 310 310 312 310 309 310 309 310 308 307 307 305 304 304 305 308 312 317 324 326 328 331 334 335 335 334 334 333 331 330 330 330 329 329 329 329 329 329
311 312 311 311 309 310 310 310 310 310 310 310 309 309 308 307 306 305 305 304 306 305 305 307 312 319 326 329 331 333 334 334 334 333 332 330 329 329 329 329 328 329 329 330
311 311 310 310 309 309 308 309 308 311 309 309 308 308 310 309 306 307 305 304 305 304 305 305 307 310 313 317 323 328 332 333 334 334 333 330 329 328 329 329 329 329 330 329
310 310 310 310 310 310 309 308 308 309 307 308 306 308 303 307 307 306 306 304 304 303 305 306 308 310 310 310 311 313 321 332 333 333 333 331 327 327 327 327 328 328 327 327
311 309 310 311 311 308 310 309 310 309 307 307 308 304 303 305 307 306 305 303 303 304 305 306 309 311 312 312 312 310 310 320 333 334 333 330 329 327 326 326 326 326 327 326
309 307 308 310 308 308 308 308 306 306 306 308 305 305 304 305 306 308 306 304 303 304 306 307 309 311 312 315 315 310 308 312 324 333 333 329 330 327 326 325 325 326 325 323
307 308 307 308 309 309 309 308 308 307 309 310 305 303 306 304 304 305 306 305 305 305 306 306 307 309 312 316 313 309 314 319 325 331 333 328 328 325 324 324 323 321 317 316
309 309 308 307 309 309 306 308 308 307 308 306 305 307 307 304 304 304 304 305 305 305 306 306 307 308 310 315 315 316 319 322 327 331 328 326 325 322 321 319 318 316 316 313
308 309 308 307 308 308 308 308 306 307 298 308 305 304 304 306 306 308 307 307 306 304 305 305 306 307 308 312 315 316 319 320 322 323 322 322 321 319 318 315 315 311 304 302
307 310 309 308 307 308 308 306 310 307 309 309 307 306 304 306 305 307 307 307 305 304 304 303 304 305 306 308 310 312 315 316 317 319 319 318 317 316 313 308 303 301 298 297
308 310 309 308 308 308 307 307 306 307 308 310 306 306 302 305 306 307 307 306 306 305 304 303 302 304 304 305 306 307 309 310 311 313 312 311 307 304 302 300 297 296 295 295
309 309 310 308 308 307 307 307 306 309 308 306 308 307 305 303 304 305 307 307 305 305 303 301 301 302 302 303 303 304 304 305 304 304 303 302 300 298 297 296 295 294 294 294
308 310 310 311 308 308 308 307 306 306 306 309 308 307 303 304 305 304 307 306 306 304 302 300 300 300 300 301 301 301 301 301 301 300 299 297 296 296 295 294 294 294 294 293
310 310 310 310 309 308 309 308 306 307 308 306 307 306 305 306 306 306 306 306 306 305 303 302 301 300 299 300 300 300 299 299 298 297 296 295 295 294 294 293 293 293 293 293
309 308 309 308 307 308 308 309 308 307 308 308 308 305 305 303 305 306 306 306 307 306 304 303 302 300 299 298 299 298 298 297 296 295 295 294 293 293 293 293 293 293 292 292
307 305 307 307 307 308 309 307 308 308 308 306 306 305 304 303 304 306 306 308 308 307 306 304 302 301 299 297 297 297 296 295 295 295 294 293 292 292 292 292 292 292 292 291
308 308 307 310 308 310 310 309 307 308 307 307 308 308 303 304 305 306 306 308 309 308 306 304 303 301 299 297 297 295 295 295 294 294 293 292 292 292 292 291 291 291 291 290
306 307 306 309 308 315 312 307 306 307 307 307 307 306 305 304 304 305 307 307 308 308 307 305 304 302 300 297 296 295 295 294 293 292 292 292 292 292 291 291 291 290 290 290
304 304 302 305 293 306 307 305 306 306 309 306 307 307 304 304 304 305 305 306 307 307 307 306 304 303 299 296 295 295 294 293 292 291 291 292 291 291 291 291 290 290 289 288
306 304 306 289 301 306 307 304 302 305 310 308 306 307 304 303 306 308 303 305 305 306 307 306 304 301 297 295 295 294 291 291 291 291 291 291 291 291 290 290 289 288 287 287
308 304 309 295 296 301 301 302 303 309 308 300 304 306 303 305 307 304 305 302 304 304 305 305 301 298 296 294 294 292 291 290 291 292 291 290 290 290 289 288 287 286 286 285
309 309 307 301 303 309 301 302 307 305 298 300 304 306 304 301 303 304 303 301 300 300 301 301 298 296 294 294 293 291 290 291 292 291 290 290 289 288 288 286 285 285 285 284
311 309 310 309 308 301 299 302 299 298 298 299 300 301 302 303 303 302 301 299 298 297 297 297 296 292 292 292 293 291 290 291 291 290 289 288 287 286 285 285 284 284 284 283
306 304 307 309 306 303 298 297 298 298 299 298 298 298 300 302 301 300 296 295 294 293 293 294 292 291 290 291 291 292 292 291 290 289 288 286 286 284 283 283 283 283 283 283
303 306 306 305 305 301 300 299 299 297 296 297 296 297 298 299 299 297 294 290 290 291 292 292 292 291 290 290 291 292 291 290 289 287 286 284 283 282 283 282 282 282 281 281
299 304 308 308 304 305 303 299 298 297 297 295 295 296 296 296 296 294 290 291 290 289 290 291 291 289 287 289 290 290 290 289 289 287 285 282 282 282 281 280 280 280 280 278

GFSCGP_925_thetae_105.txt.gz
Theta_e
309 311 315 319 319 311 310 311 312 310 309 310 308 310 309 305 305 305 306 305 308 315 322 326 330 331 330 331 332 334 334 334 334 334 333 332 331 331 331 331 330 330 328 327
310 311 312 312 310 311 309 311 311 310 309 309 308 309 308 305 304 305 304 303 302 305 306 312 319 324 327 329 330 332 334 334 334 334 334 334 332 328 328 328 329 329 328 328
311 310 310 311 311 311 309 311 309 312 309 308 308 309 309 308 305 306 304 303 302 304 305 304 308 315 322 325 328 331 333 334 334 333 333 332 330 328 327 328 328 328 328 328
311 310 311 311 313 312 312 307 309 309 308 310 307 310 305 306 307 305 304 303 303 302 303 304 305 308 314 321 326 330 332 333 333 333 333 331 330 329 327 326 327 328 329 329
310 310 312 313 313 311 312 307 309 309 308 307 307 306 305 304 306 306 304 304 303 302 302 303 305 309 310 310 313 319 325 331 332 332 333 332 331 328 325 326 328 329 328 327
308 307 311 313 310 310 307 308 306 306 306 308 307 307 306 304 305 306 308 304 303 302 302 304 307 310 311 312 312 311 310 317 330 332 332 331 331 327 326 326 327 326 326 325
306 307 307 307 309 307 308 309 311 311 310 311 304 304 310 304 302 303 304 305 303 301 304 305 306 309 310 312 313 313 311 309 316 331 331 332 330 328 327 326 325 324 322 319
310 311 306 306 309 309 308 309 310 310 310 308 304 306 306 303 302 301 301 301 301 302 305 305 307 309 310 312 315 312 309 309 311 325 331 332 330 328 325 324 323 321 317 314
309 309 307 306 306 309 307 307 307 307 298 307 305 303 303 304 303 304 305 303 303 304 305 306 306 307 308 313 314 312 313 316 319 325 328 330 327 325 323 322 320 316 313 311
306 309 308 307 307 307 308 306 309 307 308 308 306 305 305 304 306 304 305 305 304 304 304 304 304 306 307 312 314 314 316 318 321 323 326 324 322 323 320 318 315 313 308 303
306 308 309 307 308 308 306 307 306 308 309 309 306 305 302 304 306 305 305 305 305 304 304 303 303 305 306 309 311 313 313 314 315 316 317 318 318 318 316 315 310 304 300 296
307 307 308 308 307 307 307 307 308 311 309 304 307 306 303 302 302 303 305 306 304 304 303 301 302 303 303 305 307 309 309 310 312 313 315 315 315 314 311 305 300 297 296 294
308 308 308 310 308 307 307 306 306 306 307 309 308 309 301 304 304 304 305 305 305 303 301 300 299 300 301 302 303 304 306 308 309 310 311 309 307 304 301 298 295 294 294 293
309 309 309 309 308 307 309 307 305 307 309 307 307 307 305 304 305 306 306 305 305 304 303 301 299 299 300 301 301 302 302 304 304 305 304 302 300 298 296 295 294 293 293 293
308 309 307 307 307 307 308 309 307 307 308 308 309 305 306 304 304 304 305 305 305 305 304 302 301 299 299 299 300 300 301 300 300 299 298 297 296 295 294 293 293 293 292 292
306 305 306 307 307 307 308 308 308 308 308 308 307 306 303 302 303 305 305 306 307 306 305 304 302 300 299 299 298 299 299 298 298 297 295 294 294 293 293 292 292 292 291 291
308 304 303 305 306 307 309 307 307 307 308 308 307 308 302 302 303 304 305 306 307 307 306 305 303 301 300 299 299 297 298 298 296 295 294 293 293 292 292 292 292 291 291 290
308 309 307 305 308 310 308 305 305 306 306 307 307 306 304 303 303 304 304 306 306 306 306 305 304 303 301 300 298 297 297 296 295 294 293 292 292 292 291 291 291 290 290 289
304 306 304 310 302 306 308 306 307 307 309 305 306 305 303 303 304 303 302 304 305 306 306 306 305 304 302 299 298 296 295 294 293 293 292 292 291 291 291 291 290 289 289 289
304 303 307 292 310 311 310 303 302 305 311 310 307 305 303 302 306 309 303 303 304 304 306 306 305 304 301 298 297 295 293 293 291 292 292 291 291 291 291 290 289 289 288 287
305 302 308 292 300 300 300 301 302 309 310 300 304 305 302 304 307 302 302 302 302 303 304 306 305 302 300 296 295 294 292 291 292 292 292 291 291 291 291 289 289 288 286 285
308 308 306 296 297 309 299 300 307 305 298 300 303 304 302 300 300 299 301 301 299 299 301 304 302 300 299 296 295 293 292 292 292 292 291 291 290 289 289 288 287 285 285 284
310 308 308 306 306 302 298 301 299 297 297 298 299 299 302 302 302 300 300 298 297 298 299 301 300 296 295 294 295 293 292 292 291 291 290 290 289 288 287 286 285 284 284 284
305 304 306 307 305 304 299 298 298 298 298 298 298 298 299 300 298 298 297 295 294 293 295 297 296 292 291 292 293 294 291 291 291 288 288 288 287 286 285 284 283 283 284 284
303 304 304 303 304 300 299 298 298 297 297 297 296 297 297 298 297 297 294 290 289 291 293 295 293 291 291 292 292 292 290 290 288 287 287 286 286 285 284 283 283 283 283 283
301 306 308 305 303 303 302 299 298 298 298 296 296 296 295 295 295 295 291 291 291 291 292 292 292 292 291 291 291 289 289 289 288 286 285 285 285 284 282 282 282 282 281 281

GFSCGP_925_thetae_108.txt.gz
Theta_e
311 314 322 321 317 314 317 319 320 310 309 310 309 309 310 306 305 312 317 318 319 321 325 327 328 329 330 333 333 333 333 333 332 331 330 329 330 330 330 329 329 329 328 327
312 313 313 316 316 316 312 312 315 311 309 308 309 309 307 305 304 305 310 310 313 313 310 318 325 327 328 329 331 333 334 333 333 332 332 330 330 329 328 329 330 330 329 328
314 311 311 313 312 315 315 312 310 312 309 308 308 309 308 306 304 304 303 303 304 307 307 308 313 321 325 327 328 330 331 333 333 333 333 332 332 331 329 327 328 328 327 326
311 310 310 311 311 311 314 310 309 310 315 316 308 312 308 306 307 304 304 302 302 300 300 303 307 311 318 323 326 328 329 330 332 333 333 333 332 331 331 327 326 326 327 328
312 311 310 312 312 311 312 308 309 309 309 307 308 307 308 304 305 305 304 303 303 303 300 301 304 310 314 316 320 323 326 329 331 332 332 332 331 331 329 327 326 328 328 329
308 306 308 310 311 311 309 312 308 306 307 311 311 308 308 305 305 306 307 304 304 302 299 300 305 307 310 312 315 319 323 328 330 332 332 332 331 331 328 327 326 327 328 327
307 306 306 309 310 311 311 315 316 311 310 313 302 305 310 306 302 304 306 306 304 301 300 300 302 306 308 311 311 312 312 316 325 329 331 331 332 331 329 325 324 325 325 324
312 312 305 305 310 311 312 314 315 315 312 310 303 307 307 304 304 301 300 300 300 300 301 302 303 306 308 310 311 312 312 311 310 320 329 329 331 331 328 325 325 325 323 321
310 309 306 304 305 308 306 314 310 308 299 307 306 304 303 303 304 302 301 302 301 300 300 302 304 306 308 309 311 312 312 311 310 309 321 326 329 330 327 326 325 323 320 315
306 309 306 306 306 306 306 307 309 308 311 309 306 305 307 306 305 306 304 304 305 301 301 303 304 306 308 309 311 313 313 311 311 311 315 322 328 329 327 325 323 319 315 311
304 306 308 306 306 305 305 307 307 308 309 311 307 308 302 305 305 305 305 303 304 303 303 303 303 306 307 308 311 313 313 313 313 314 317 320 325 325 324 322 320 316 312 307
304 305 307 306 306 305 305 306 307 310 309 304 308 310 302 302 302 302 302 303 304 303 302 302 302 304 304 306 309 311 311 312 313 316 318 319 320 319 319 316 317 314 307 299
306 307 303 308 307 306 306 305 306 306 307 309 310 311 302 303 304 302 303 302 304 303 302 301 300 301 302 303 305 307 308 309 310 312 314 313 313 313 313 313 310 307 299 295
308 308 307 308 308 306 309 306 305 306 308 309 308 308 307 305 304 304 305 305 304 303 302 301 299 299 301 302 303 305 307 308 309 308 309 309 309 309 309 308 303 297 295 294
308 310 308 306 306 307 308 308 306 307 308 309 310 308 306 305 305 303 304 305 305 304 303 302 301 299 300 300 302 303 306 306 307 305 305 306 306 305 302 299 295 294 293 293
305 304 306 306 306 306 307 308 307 307 308 308 308 308 306 304 302 303 304 304 306 305 305 303 302 301 299 300 300 301 302 303 303 303 304 303 300 298 296 294 293 292 292 292
307 304 303 304 306 306 307 307 307 306 307 308 308 309 303 303 302 303 302 304 305 305 305 304 303 302 301 300 301 300 301 301 301 301 299 297 295 294 293 292 292 292 291 291
308 310 307 308 306 309 308 305 305 306 307 307 307 305 304 304 302 302 302 303 304 304 304 304 304 303 302 301 300 300 299 300 297 296 296 294 294 293 292 292 291 291 291 290
306 308 307 311 309 307 306 304 303 304 306 304 304 304 303 302 303 302 301 301 303 304 304 305 305 304 303 301 300 300 298 297 295 294 294 293 292 292 291 291 291 290 290 289
303 307 310 297 311 311 309 304 303 307 310 307 304 303 302 301 304 308 304 301 301 302 303 305 306 305 303 301 300 298 296 295 293 294 294 293 292 291 291 291 290 290 289 289
303 301 309 298 308 302 300 301 304 311 309 300 304 305 302 303 305 301 300 301 300 300 301 303 305 304 303 301 299 296 294 293 294 294 293 292 292 291 291 290 290 289 288 287
307 308 305 294 297 309 298 301 310 306 299 301 304 303 300 300 301 301 299 299 297 297 299 301 302 303 302 300 298 295 294 295 294 294 293 292 291 290 290 290 288 288 287 286
308 307 308 308 307 302 297 302 299 297 298 299 299 300 301 302 302 299 299 297 295 295 295 298 299 299 299 298 297 295 295 294 293 292 290 290 290 290 289 289 287 286 285 284
304 303 305 306 303 302 299 297 297 297 297 297 297 297 298 299 298 298 296 295 293 292 292 294 297 296 295 296 296 296 294 293 292 289 288 289 289 288 288 287 287 285 284 284
301 303 302 302 302 301 298 298 297 296 296 296 296 296 296 296 295 296 292 290 289 291 293 293 294 294 294 294 294 294 294 293 289 288 286 286 287 288 286 286 286 285 285 285
302 306 306 302 301 301 301 297 297 297 296 294 295 295 294 294 294 293 289 290 291 291 292 293 293 293 293 293 292 293 292 291 288 286 285 285 285 284 284 284 283 283 283 284

GFSCGP_925_thetae_111.txt.gz
Theta_e
311 318 327 323 323 321 323 326 326 312 318 311 309 309 311 308 307 312 319 323 323 324 325 326 328 330 332 333 333 332 331 331 330 329 329 329 328 328 329 330 329 327 326 327
312 314 320 320 318 315 317 319 320 318 308 308 308 309 309 305 306 305 311 317 322 320 318 323 327 327 328 330 332 332 333 332 332 331 331 330 330 329 330 328 327 328 328 328
314 314 312 317 318 319 316 313 311 311 309 307 308 311 309 306 304 303 303 307 312 318 320 315 318 325 327 327 329 331 333 333 333 332 331 330 329 330 330 328 328 328 328 328
313 312 312 314 318 320 321 312 313 310 313 316 309 314 310 308 307 304 305 302 304 307 308 313 313 316 322 327 328 328 330 331 333 333 332 331 330 330 330 328 327 326 325 327
316 313 311 312 314 313 312 307 307 310 310 308 307 310 307 305 306 305 305 303 303 304 304 305 307 313 318 322 326 328 328 329 330 331 332 332 331 331 333 331 329 326 326 327
311 306 309 310 309 311 310 313 314 307 307 312 311 310 309 309 305 307 306 305 305 305 302 301 303 306 309 314 319 323 325 326 328 329 330 331 331 331 331 331 328 326 326 327
308 307 307 309 311 310 312 316 319 319 317 315 303 308 314 308 303 305 307 307 306 304 302 301 300 302 304 306 312 315 317 321 325 327 329 330 331 331 331 332 329 326 326 327
314 314 306 307 311 313 314 316 314 316 313 311 303 309 308 305 308 303 301 302 301 300 301 301 301 302 304 306 310 313 315 318 321 326 328 329 329 330 330 330 328 325 325 325
311 311 304 306 306 312 312 317 308 307 297 307 306 305 304 302 303 303 302 302 303 302 301 300 301 302 304 306 309 312 313 313 313 317 326 326 326 328 329 329 327 325 324 323
306 309 305 305 305 306 311 310 315 310 307 307 307 305 309 305 305 306 305 304 303 302 302 300 301 303 304 306 309 311 311 311 311 310 309 318 324 327 327 329 326 323 323 321
304 307 307 305 306 307 305 311 308 310 308 309 308 308 302 306 305 306 305 303 303 303 302 301 302 304 305 307 308 310 311 312 311 311 310 309 319 324 325 327 325 323 321 318
304 305 307 306 305 303 305 307 309 311 308 304 307 309 304 302 304 304 303 303 301 302 302 302 302 303 305 307 308 310 311 311 311 311 311 313 317 321 322 323 323 321 318 312
304 307 305 308 306 305 305 303 309 306 305 308 308 311 304 301 303 302 303 303 302 303 303 302 301 301 302 304 306 308 309 311 312 311 311 312 316 318 318 320 319 316 311 310
308 307 308 309 308 306 307 304 303 307 307 309 307 308 306 306 304 303 303 304 304 304 303 302 301 301 302 304 305 306 308 310 310 311 312 313 313 314 316 316 313 311 306 309
306 307 305 305 305 306 306 306 304 306 308 309 310 309 306 305 305 304 303 305 306 305 304 303 302 301 301 302 303 304 307 308 309 309 309 309 309 310 309 309 306 304 301 301
304 304 306 305 304 305 307 306 306 307 308 307 309 308 306 303 302 303 303 304 304 304 304 303 302 301 301 301 302 303 304 306 305 305 305 305 304 304 304 302 300 298 295 294
307 304 301 309 304 304 305 306 306 306 307 308 308 308 304 304 302 302 302 301 302 303 303 303 303 303 302 302 302 302 303 304 303 303 303 302 301 301 300 299 296 294 292 292
307 308 300 297 300 310 308 303 305 306 306 306 307 305 305 304 302 301 301 302 302 302 302 303 303 303 303 303 302 303 303 303 302 301 302 301 300 299 297 295 293 292 292 291
303 305 300 305 298 306 307 305 303 304 306 303 304 304 302 303 303 301 299 299 301 301 301 303 304 305 304 304 303 301 300 300 299 299 299 300 299 297 294 292 291 291 291 290
303 305 306 296 309 310 309 303 300 304 308 307 302 303 302 300 304 306 302 301 300 299 300 301 303 304 305 303 302 301 298 296 296 298 299 299 298 296 293 292 291 291 290 290
297 300 309 302 311 303 302 302 302 307 308 299 302 302 301 303 304 301 300 300 298 299 299 300 301 302 303 303 302 298 296 295 298 297 297 296 295 293 292 291 291 290 290 289
302 303 301 293 310 310 299 302 308 306 299 302 303 301 301 300 301 300 298 297 296 295 296 298 298 299 301 301 300 297 295 297 296 296 295 294 293 291 291 291 290 289 289 287
306 305 303 306 306 301 297 300 299 298 299 301 302 301 300 300 300 299 298 295 294 293 294 296 297 298 299 300 299 297 297 296 295 294 293 291 291 290 290 289 288 287 287 286
304 303 303 303 303 302 298 298 296 296 296 296 296 296 296 297 297 296 295 293 292 292 292 293 295 296 297 297 297 297 297 296 295 293 291 290 289 288 288 288 288 287 285 285
302 302 299 299 302 300 298 297 296 295 294 294 294 294 295 294 295 295 292 289 288 291 293 293 292 293 294 294 294 294 295 295 293 291 290 288 287 287 286 286 287 286 286 287
302 304 306 301 300 301 299 296 296 295 294 293 293 292 291 291 292 291 288 289 289 289 291 292 292 292 292 293 292 292 293 293 292 289 287 287 286 285 285 284 283 284 286 286

GFSCGP_925_thetae_114.txt.gz
Theta_e
315 327 333 330 330 327 327 331 331 323 324 320 320 323 323 322 312 317 319 324 327 328 328 331 332 333 333 333 332 329 326 325 325 325 326 327 328 327 327 328 329 329 327 326
318 325 326 327 325 326 329 331 332 327 313 314 320 321 321 319 314 314 316 319 324 326 328 329 329 331 332 333 333 333 331 328 327 327 328 329 329 329 329 329 329 329 328 326
323 319 320 323 318 322 323 330 325 323 313 312 315 324 320 316 315 313 311 314 318 324 326 327 328 329 330 332 333 333 333 333 331 330 330 330 331 330 330 330 329 328 326 327
317 312 319 322 319 319 318 313 314 314 315 325 318 332 326 321 319 311 313 312 313 317 323 325 325 327 328 329 330 332 333 333 333 332 331 330 330 331 331 331 329 327 327 327
318 314 318 321 321 320 318 316 317 315 314 314 314 318 323 315 317 318 312 312 312 312 315 320 323 324 325 327 328 329 331 332 333 332 332 331 331 332 333 332 330 327 327 325
315 311 314 318 315 311 312 315 316 311 312 322 320 317 323 320 316 316 316 313 312 312 311 312 315 319 320 321 324 326 328 330 331 332 332 332 332 332 332 332 330 329 327 326
313 313 310 311 315 313 315 319 322 322 320 325 308 315 320 317 314 315 316 315 313 312 311 310 309 307 311 315 317 321 325 327 329 331 331 332 332 332 332 332 330 330 328 326
318 317 310 311 315 317 317 321 321 326 323 322 305 315 317 312 315 312 310 312 311 310 309 309 309 308 308 307 309 313 317 323 326 328 330 330 331 331 332 332 331 328 329 326
320 314 308 310 312 314 316 319 311 312 305 312 313 312 311 312 308 308 308 307 309 309 307 307 306 306 306 306 308 309 311 314 320 324 327 327 328 328 329 330 330 326 326 326
313 311 308 307 312 311 315 315 317 317 320 318 315 310 314 313 311 310 308 308 309 307 307 306 305 305 305 306 307 309 311 312 313 315 324 325 326 327 328 328 327 326 326 325
309 310 308 308 313 314 314 317 315 317 314 319 318 317 311 310 311 311 310 308 308 308 307 307 306 305 306 306 307 309 310 311 311 312 313 319 325 325 326 327 327 328 327 323
309 309 311 312 306 308 313 315 315 319 318 313 311 316 309 308 308 307 308 307 307 306 306 307 306 305 305 306 307 308 310 311 311 311 311 310 312 318 320 323 324 325 324 321
308 310 313 310 308 307 312 311 315 312 311 318 319 319 311 305 306 307 307 309 308 307 308 307 306 306 306 306 307 308 309 309 310 310 310 311 311 311 314 317 320 322 320 317
309 309 312 313 311 310 309 311 313 315 315 316 314 316 313 311 311 308 307 306 308 309 308 308 307 306 306 306 306 307 307 308 310 310 310 310 311 312 312 314 316 316 316 314
310 314 309 308 308 309 310 310 310 313 314 313 313 312 311 311 311 312 310 308 308 309 308 308 308 308 306 306 305 305 305 306 308 308 308 309 310 310 310 311 312 309 308 309
307 314 309 308 306 309 310 310 310 310 311 311 311 311 311 310 310 310 310 308 308 308 308 308 308 307 306 305 304 303 304 305 307 306 307 308 309 309 309 308 307 305 303 305
309 311 312 314 308 310 313 310 310 309 310 311 311 311 311 310 309 309 309 308 307 307 307 307 307 307 306 305 304 303 304 304 305 306 306 307 307 305 305 304 303 302 301 298
310 310 314 310 309 313 311 310 309 309 310 310 310 310 310 310 310 310 307 308 307 307 306 306 306 306 306 305 304 304 303 303 304 304 305 305 303 302 302 301 300 299 299 296
308 310 312 314 314 312 310 306 307 308 309 309 309 309 309 306 305 309 305 305 306 306 304 304 304 305 305 304 304 303 302 301 301 302 302 303 302 301 300 298 298 297 294 292
306 309 313 307 314 313 310 306 305 307 311 310 308 308 308 305 308 310 305 302 302 302 301 302 302 302 303 304 303 302 299 298 298 299 301 303 302 301 299 297 295 294 293 291
310 311 312 312 314 316 307 304 307 313 313 307 306 308 307 306 309 305 302 301 300 300 299 299 300 301 302 302 302 300 299 298 300 299 298 299 300 299 299 296 293 291 290 289
311 313 313 313 314 314 303 304 311 310 304 304 303 303 305 304 302 301 301 299 298 299 298 297 298 298 299 299 299 298 297 299 298 297 297 296 296 295 294 293 291 290 289 289
311 311 313 312 312 305 302 306 301 300 303 304 305 302 302 302 302 300 299 297 297 295 294 294 294 296 297 297 298 297 299 298 297 295 295 294 293 292 292 290 289 287 287 287
305 304 310 309 306 304 302 298 298 298 299 298 299 299 300 300 298 297 296 295 294 292 291 292 294 294 294 295 296 295 296 296 295 295 293 292 290 289 289 289 288 288 287 287
307 305 306 306 302 301 299 299 298 297 296 296 295 295 297 297 296 296 294 292 291 290 290 291 291 291 292 293 294 294 294 294 294 293 291 290 289 289 288 288 287 287 287 288
303 306 309 311 304 305 301 298 297 298 296 295 295 293 292 294 295 293 291 288 288 288 289 291 291 291 291 291 292 293 293 292 292 291 289 289 288 287 287 287 286 286 286 287

GFSCGP_925_thetae_117.txt.gz
Theta_e
319 328 332 333 332 333 333 334 335 332 322 324 327 327 326 325 318 319 318 320 324 326 327 330 332 334 333 331 326 324 325 326 327 327 327 327 328 328 327 327 328 330 330 327
321 328 329 331 332 332 333 334 335 331 319 324 330 330 327 326 326 322 320 318 320 324 325 328 331 333 334 333 332 328 325 325 326 326 326 326 327 328 328 328 329 330 329 327
328 329 326 331 332 332 333 334 334 333 326 319 323 328 326 325 325 324 321 318 317 319 323 326 329 332 334 334 334 334 330 327 326 326 326 327 329 330 330 330 330 330 329 328
324 320 327 328 330 331 330 319 326 318 322 331 323 335 332 330 328 325 324 322 319 317 320 324 327 329 332 334 334 334 334 333 330 328 330 330 331 331 331 331 331 330 329 328
320 322 328 327 325 327 322 316 317 316 317 317 321 323 326 324 325 325 325 322 322 317 317 320 324 326 329 331 333 334 334 335 334 333 332 333 332 332 332 332 332 331 329 327
318 319 325 325 320 317 316 316 314 313 314 322 323 323 327 326 322 321 322 323 321 318 316 317 320 325 326 329 330 331 333 334 334 334 334 333 333 333 333 333 333 333 331 328
316 317 314 320 317 313 315 322 326 327 324 329 313 326 324 323 323 320 320 321 321 320 316 316 315 320 324 326 328 330 330 331 332 334 334 334 334 333 333 334 334 333 331 328
321 320 314 319 321 317 318 324 327 331 329 326 309 320 321 316 312 315 316 314 316 318 317 316 315 314 317 321 324 326 328 329 329 332 333 333 333 333 334 334 334 332 330 328
322 319 313 315 316 317 318 323 319 315 311 316 318 317 316 315 314 311 314 313 312 312 313 313 312 312 312 311 314 319 321 324 326 329 331 332 333 333 333 333 333 332 331 328
320 314 314 312 315 316 319 317 320 320 329 325 322 317 317 317 315 314 312 314 313 312 312 311 310 309 309 310 310 310 312 315 317 324 328 330 331 331 331 331 331 331 330 327
319 313 312 312 315 318 316 319 318 320 321 325 325 322 314 312 311 313 313 312 311 311 310 310 310 309 308 308 308 309 310 311 312 316 323 326 328 328 328 328 328 329 328 326
312 312 313 315 308 313 316 318 318 322 322 320 319 320 311 311 310 310 310 310 310 310 310 309 309 309 308 308 308 308 309 311 312 314 314 320 325 325 325 325 325 326 327 326
310 313 317 314 313 310 315 315 318 317 315 324 322 321 314 312 311 310 310 311 311 310 311 310 310 310 309 308 308 309 309 311 312 312 312 312 313 319 323 323 323 324 324 323
311 312 315 317 314 312 312 314 314 317 318 319 319 319 316 313 312 311 310 310 310 310 310 311 311 310 309 309 308 309 310 310 311 310 311 312 312 313 315 316 317 319 319 319
311 315 312 312 311 311 311 313 314 317 317 317 316 317 316 316 315 314 312 312 311 310 310 311 311 312 310 309 308 308 309 309 309 308 309 310 311 311 311 312 312 313 315 315
311 317 312 312 310 311 312 312 314 314 316 316 315 314 313 313 312 312 312 311 311 311 311 310 310 310 309 309 308 307 307 307 307 307 308 309 309 309 309 309 310 311 310 309
312 316 317 319 311 311 314 312 312 313 313 315 315 314 312 312 311 311 311 311 311 310 309 310 309 309 309 308 308 307 306 306 305 306 307 308 308 308 307 307 307 307 306 305
312 314 316 314 315 313 313 310 311 311 312 312 312 312 312 312 312 312 311 311 310 309 310 309 308 308 308 308 307 306 306 305 305 304 305 305 305 306 306 305 303 302 302 302
311 312 317 317 315 315 312 309 310 311 311 311 311 311 311 311 309 310 309 310 309 310 307 305 305 305 306 306 306 305 304 303 303 302 302 303 304 304 302 301 301 300 297 296
309 312 316 316 317 315 310 309 308 309 311 311 311 311 311 310 310 310 310 308 306 304 304 304 303 303 304 305 304 303 302 302 301 300 301 301 302 303 302 301 299 298 296 294
311 316 315 316 317 320 310 308 308 312 312 310 310 310 311 310 310 308 304 303 302 301 301 300 302 301 300 300 301 301 300 300 300 299 299 299 299 300 300 298 296 296 294 293
312 314 315 316 316 314 308 307 310 311 307 307 306 307 307 310 305 305 303 302 301 300 299 297 298 298 298 298 298 299 299 299 299 298 298 297 297 297 297 297 295 293 292 290
312 311 316 313 314 308 306 309 307 305 309 306 307 305 305 305 304 303 302 300 298 296 294 294 295 295 294 296 296 296 296 297 297 296 296 295 294 294 294 294 293 291 290 289
307 309 313 310 310 308 306 302 302 301 304 303 303 303 304 304 302 300 298 296 295 292 292 293 293 293 291 293 294 294 295 295 295 294 293 292 292 291 291 291 291 290 289 289
309 307 310 311 304 303 303 303 303 300 299 299 298 299 301 299 299 297 295 293 292 291 291 291 291 291 290 292 292 293 293 294 293 293 292 291 290 290 289 289 289 289 290 290
306 309 310 311 306 308 307 303 300 299 299 298 297 296 295 297 296 294 292 290 290 289 289 289 289 289 289 290 290 291 291 291 291 291 291 290 289 289 288 288 288 288 288 289

GFSCGP_925_thetae_120.txt.gz
Theta_e
324 329 331 330 328 332 329 333 332 330 322 321 320 322 321 321 315 314 315 315 320 326 327 331 333 334 334 329 324 326 328 329 330 329 329 328 329 328 327 327 326 328 329 327
323 328 328 328 328 332 333 333 335 327 323 325 327 326 323 323 324 319 316 315 315 320 323 328 331 333 334 330 325 324 327 328 328 328 328 327 328 329 328 327 327 328 329 329
329 328 327 330 332 334 335 334 334 331 319 318 320 325 324 324 324 323 322 317 315 314 319 322 328 331 333 333 329 324 325 326 327 327 327 327 327 327 328 327 327 328 330 330
326 326 329 331 334 333 336 325 326 321 325 330 322 332 329 327 324 324 324 320 316 313 314 319 327 330 332 333 333 330 326 325 326 326 326 327 326 327 328 328 328 328 329 329
324 323 331 333 333 331 327 318 316 317 316 321 318 321 323 322 327 325 323 322 319 315 312 315 323 328 331 333 334 334 333 328 325 325 326 326 327 329 329 330 330 330 329 329
318 322 327 328 320 320 314 316 316 314 318 326 325 321 323 324 322 322 322 322 321 318 314 312 320 326 328 331 333 334 334 334 332 328 326 327 329 330 331 330 331 332 331 330
319 326 316 319 320 318 318 324 326 328 326 329 317 323 324 322 320 318 318 317 317 317 314 311 312 320 325 328 331 333 334 334 334 334 331 329 331 332 332 332 332 332 332 331
320 321 320 319 320 319 319 324 325 328 326 323 310 320 320 316 313 310 310 314 312 309 314 311 311 316 323 326 328 330 331 333 334 334 334 334 333 333 333 332 332 333 333 332
322 319 314 320 317 317 319 326 316 313 306 315 315 315 315 314 313 311 309 313 311 311 310 313 312 313 315 322 326 328 329 330 330 332 333 334 334 333 333 333 333 333 333 332
318 318 314 318 317 317 320 317 322 319 319 319 319 318 316 313 312 312 310 310 310 310 310 309 308 310 311 312 315 321 325 327 329 329 330 331 333 333 333 333 333 333 333 332
316 315 314 315 318 318 316 320 319 320 321 322 322 320 312 313 310 311 310 310 309 308 307 307 306 309 308 308 309 310 311 317 321 324 326 328 330 331 332 332 333 333 332 331
314 314 315 315 310 315 316 319 319 322 321 319 318 317 308 308 308 308 308 308 308 308 307 306 307 308 308 308 308 308 308 309 310 311 314 321 326 328 330 331 331 331 329 329
312 313 316 316 313 310 316 317 318 316 314 317 318 318 309 309 310 308 307 309 307 308 308 307 307 307 308 308 308 308 308 308 310 311 313 313 317 324 326 328 328 327 326 326
312 313 314 317 315 311 314 317 317 318 315 316 316 318 315 310 309 308 308 308 307 306 307 307 306 307 309 308 308 308 309 309 310 311 312 312 312 313 322 324 323 323 323 323
311 312 313 312 312 312 314 316 316 318 318 318 317 316 315 311 309 308 308 310 309 308 308 306 306 307 309 309 308 308 308 309 309 310 310 311 311 312 312 315 319 320 320 320
310 310 311 309 311 312 313 314 315 315 317 316 315 314 313 311 311 310 310 310 309 309 309 307 308 307 307 308 308 308 308 308 308 308 308 309 310 310 311 311 311 312 312 312
311 312 311 312 309 309 309 311 313 314 313 315 316 314 312 310 309 309 309 308 307 308 307 306 306 305 307 308 308 307 307 307 307 307 307 307 308 308 308 308 308 308 307 308
311 312 313 310 311 311 308 309 310 312 312 312 313 312 311 310 309 308 307 307 307 307 306 306 304 306 306 307 307 307 307 306 306 306 305 305 306 306 306 306 305 305 305 305
311 311 311 312 308 308 310 307 309 310 310 311 311 311 310 308 309 306 306 306 306 307 304 304 305 305 305 305 306 306 305 305 304 303 302 303 303 304 304 305 305 304 303 302
310 311 313 314 307 308 310 307 306 307 309 308 309 309 309 306 309 309 305 305 303 303 303 303 303 303 303 302 302 303 302 302 301 301 300 300 301 301 302 303 303 303 302 301
310 311 313 307 304 307 307 303 306 308 308 305 307 308 307 307 308 304 302 301 301 300 300 301 301 299 298 299 300 300 300 299 299 299 300 299 298 299 299 300 299 300 298 296
310 311 311 304 303 309 304 305 308 307 305 304 306 305 305 305 303 302 300 299 298 297 296 297 297 295 295 297 299 298 296 296 297 298 297 296 296 296 296 296 296 295 295 293
308 309 310 310 309 306 304 304 305 305 304 304 303 303 303 302 301 300 298 297 294 293 293 294 294 293 293 295 295 295 294 296 297 296 295 295 294 294 294 294 294 293 292 291
307 306 306 305 306 304 303 303 301 303 303 303 303 301 301 301 299 297 295 293 292 291 291 293 292 291 290 291 292 292 292 294 295 295 294 293 292 292 291 291 292 292 291 290
304 305 304 303 303 303 303 302 301 299 298 297 297 299 300 297 295 294 292 290 290 290 290 290 289 289 288 289 290 290 291 292 292 292 291 291 291 290 290 290 290 290 291 291
303 305 307 306 303 305 304 300 298 297 297 295 295 296 295 294 293 291 289 289 289 288 288 288 287 287 287 288 288 289 290 290 291 290 290 290 289 289 289 288 289 289 289 289